[[{"header":{"parameterUnit":"m.s-1","parameterCategory":1,"la1":30.6,"la2":29.2853,"lo1":-89.7004,"lo2":-87.6739,"dy":0.0162,"dx":0.0183,"nx":112,"ny":82,"refTime":"2024-05-09T12:00:00:Z","depth":0,"parameterNumber":2,"parameterNumberName":"U-component_of_WINDS"},"data":[0.0,0.0,0.0,0.0,0.0,0.0,0.0,0.0,0.0,0.0,0.0,0.0,0.0,0.0,0.0,0.0,0.0,0.0,0.0,0.0,0.0,0.0,0.0,0.0,0.0,0.0,0.0,0.0,0.0,0.0,0.0,0.0,0.0,0.0,0.0,0.0,0.0,0.0,0.0,0.0,0.0,0.0,0.0,0.0,0.0,0.0,0.0,0.0,0.0,0.0,0.0,0.0,0.0,0.0,0.0,0.0,0.0,0.0,0.0,0.0,0.0,0.0,0.0,0.0,0.0,0.0,0.0,0.0,0.0,0.0,0.0,0.0,0.0,0.0,0.0,0.0,0.0,0.0,0.0,0.0,0.0,0.0,0.0,0.0,0.0,0.0,0.0,0.0,0.0,0.0,0.0,5.7574,6.1661,6.3947,6.3299,6.0516,5.6899,5.243,0.0,0.0,0.0,0.0,0.0,0.0,0.0,0.0,0.0,0.0,0.0,0.0,0.0,0.0,0.0,0.0,0.0,0.0,0.0,0.0,0.0,0.0,0.0,0.0,0.0,0.0,0.0,0.0,0.0,0.0,0.0,0.0,0.0,0.0,0.0,0.0,0.0,0.0,0.0,0.0,0.0,0.0,0.0,0.0,0.0,0.0,0.0,0.0,0.0,0.0,0.0,0.0,0.0,0.0,0.0,0.0,0.0,0.0,0.0,0.0,0.0,0.0,0.0,0.0,0.0,0.0,0.0,0.0,0.0,0.0,0.0,0.0,0.0,0.0,0.0,0.0,0.0,0.0,0.0,0.0,0.0,0.0,0.0,0.0,0.0,0.0,0.0,0.0,0.0,0.0,0.0,0.0,0.0,0.0,0.0,0.0,0.0,0.0,0.0,0.0,0.0,0.0,0.0,0.0,5.6436,6.3007,6.5565,6.6257,6.4899,6.1709,5.8319,5.4876,0.0,0.0,0.0,0.0,0.0,0.0,0.0,0.0,0.0,0.0,0.0,0.0,0.0,0.0,0.0,0.0,0.0,0.0,0.0,0.0,0.0,0.0,0.0,0.0,0.0,0.0,0.0,0.0,0.0,0.0,0.0,0.0,0.0,0.0,0.0,0.0,0.0,0.0,0.0,0.0,0.0,0.0,0.0,0.0,0.0,0.0,0.0,0.0,0.0,0.0,0.0,0.0,0.0,0.0,0.0,0.0,0.0,0.0,0.0,0.0,0.0,0.0,0.0,0.0,0.0,0.0,0.0,0.0,0.0,0.0,0.0,0.0,0.0,0.0,0.0,0.0,0.0,0.0,0.0,0.0,0.0,0.0,0.0,0.0,0.0,0.0,0.0,0.0,0.0,0.0,0.0,0.0,0.0,0.0,0.0,0.0,0.0,0.0,0.0,0.0,0.0,0.0,0.0,5.6101,6.0199,6.5679,6.7328,6.7402,6.5817,6.3055,5.9665,5.5585,5.225,0.0,0.0,0.0,0.0,0.0,0.0,0.0,0.0,0.0,0.0,0.0,0.0,0.0,0.0,0.0,0.0,0.0,0.0,0.0,0.0,0.0,0.0,0.0,0.0,0.0,0.0,0.0,0.0,0.0,0.0,0.0,0.0,0.0,0.0,0.0,0.0,0.0,0.0,0.0,0.0,0.0,0.0,0.0,0.0,0.0,0.0,0.0,0.0,0.0,0.0,0.0,0.0,0.0,0.0,0.0,0.0,0.0,0.0,0.0,0.0,0.0,0.0,0.0,0.0,0.0,0.0,0.0,0.0,0.0,0.0,0.0,0.0,0.0,0.0,0.0,0.0,0.0,0.0,0.0,0.0,0.0,0.0,0.0,0.0,0.0,0.0,0.0,0.0,0.0,0.0,0.0,0.0,0.0,0.0,0.0,0.0,0.0,0.0,0.0,0.0,0.0,0.0,5.9914,6.355,6.7433,6.8613,6.8584,6.7195,6.4288,6.083,5.6841,5.3248,0.0,0.0,0.0,0.0,0.0,0.0,0.0,0.0,0.0,0.0,0.0,0.0,0.0,0.0,0.0,0.0,0.0,0.0,0.0,0.0,0.0,0.0,0.0,0.0,0.0,0.0,0.0,0.0,0.0,0.0,0.0,0.0,0.0,0.0,0.0,0.0,0.0,0.0,0.0,0.0,0.0,0.0,0.0,0.0,0.0,0.0,0.0,0.0,0.0,0.0,0.0,0.0,0.0,0.0,0.0,0.0,0.0,0.0,0.0,0.0,0.0,0.0,0.0,0.0,0.0,0.0,0.0,0.0,0.0,0.0,0.0,0.0,0.0,0.0,0.0,0.0,0.0,0.0,0.0,0.0,0.0,0.0,0.0,0.0,0.0,0.0,0.0,0.0,0.0,0.0,0.0,0.0,0.0,0.0,0.0,0.0,0.0,0.0,0.0,0.0,0.0,0.0,6.1164,6.5144,6.9108,7.0191,7.0408,6.9805,6.518,6.1672,6.0165,5.398,0.0,0.0,0.0,0.0,0.0,0.0,0.0,0.0,0.0,0.0,0.0,0.0,0.0,0.0,0.0,0.0,0.0,0.0,0.0,0.0,0.0,0.0,0.0,0.0,0.0,0.0,0.0,0.0,0.0,0.0,0.0,0.0,0.0,0.0,0.0,0.0,0.0,0.0,0.0,0.0,0.0,0.0,0.0,0.0,0.0,0.0,0.0,0.0,0.0,0.0,0.0,0.0,0.0,0.0,0.0,0.0,0.0,0.0,0.0,0.0,0.0,0.0,0.0,0.0,0.0,0.0,0.0,0.0,0.0,0.0,0.0,0.0,0.0,0.0,0.0,0.0,0.0,0.0,0.0,0.0,0.0,0.0,0.0,0.0,0.0,0.0,0.0,0.0,0.0,0.0,0.0,0.0,0.0,0.0,0.0,0.0,0.0,0.0,0.0,0.0,0.0,0.0,6.2463,6.6594,0.0,7.1257,7.1332,7.0,6.6923,6.3728,6.0588,0.0,0.0,0.0,0.0,0.0,0.0,0.0,0.0,0.0,0.0,0.0,0.0,0.0,0.0,0.0,0.0,0.0,0.0,0.0,0.0,0.0,0.0,0.0,0.0,0.0,0.0,0.0,0.0,0.0,0.0,0.0,0.0,0.0,0.0,0.0,0.0,0.0,0.0,0.0,0.0,0.0,0.0,0.0,0.0,0.0,0.0,0.0,0.0,0.0,0.0,0.0,0.0,0.0,0.0,0.0,0.0,0.0,0.0,0.0,0.0,0.0,0.0,0.0,0.0,0.0,0.0,0.0,0.0,0.0,0.0,0.0,0.0,0.0,0.0,0.0,0.0,0.0,0.0,0.0,0.0,0.0,0.0,0.0,0.0,0.0,0.0,0.0,0.0,0.0,0.0,0.0,0.0,0.0,0.0,0.0,0.0,0.0,0.0,0.0,0.0,0.0,0.0,5.9526,6.3866,6.7832,0.0,7.2298,7.219,7.0705,6.7853,6.4708,6.1294,0.0,0.0,0.0,0.0,0.0,0.0,0.0,0.0,0.0,0.0,0.0,0.0,0.0,0.0,0.0,0.0,0.0,0.0,0.0,0.0,0.0,0.0,0.0,0.0,0.0,0.0,0.0,0.0,0.0,0.0,0.0,0.0,0.0,0.0,0.0,0.0,0.0,0.0,0.0,0.0,0.0,0.0,0.0,0.0,0.0,0.0,0.0,0.0,0.0,0.0,0.0,0.0,0.0,0.0,0.0,0.0,0.0,0.0,0.0,0.0,0.0,0.0,0.0,0.0,0.0,0.0,0.0,0.0,0.0,0.0,0.0,0.0,0.0,0.0,0.0,0.0,0.0,0.0,0.0,0.0,0.0,0.0,0.0,0.0,0.0,0.0,0.0,0.0,0.0,0.0,0.0,0.0,0.0,0.0,0.0,0.0,0.0,0.0,0.0,0.0,0.0,0.0,6.1968,6.5423,6.8873,7.287,7.337,7.3103,7.2265,6.7792,6.4326,0.0,0.0,0.0,0.0,0.0,0.0,0.0,0.0,0.0,0.0,0.0,0.0,0.0,0.0,0.0,0.0,0.0,0.0,0.0,0.0,0.0,0.0,0.0,0.0,0.0,0.0,0.0,0.0,0.0,0.0,0.0,0.0,0.0,0.0,0.0,0.0,0.0,0.0,0.0,0.0,0.0,0.0,0.0,0.0,0.0,0.0,0.0,0.0,0.0,0.0,0.0,0.0,0.0,0.0,0.0,0.0,0.0,0.0,0.0,0.0,0.0,0.0,0.0,0.0,0.0,0.0,0.0,0.0,0.0,0.0,0.0,0.0,0.0,0.0,0.0,0.0,0.0,0.0,0.0,0.0,0.0,0.0,0.0,0.0,0.0,0.0,0.0,0.0,0.0,0.0,0.0,0.0,0.0,0.0,0.0,0.0,0.0,0.0,0.0,0.0,0.0,0.0,0.0,6.2029,6.6444,7.0213,7.3061,7.4053,7.3914,7.2313,6.8948,6.5682,6.2773,0.0,0.0,0.0,0.0,0.0,0.0,0.0,0.0,0.0,0.0,0.0,0.0,0.0,0.0,0.0,0.0,0.0,0.0,0.0,0.0,0.0,0.0,0.0,0.0,0.0,0.0,0.0,0.0,0.0,0.0,0.0,0.0,0.0,0.0,0.0,0.0,0.0,0.0,0.0,0.0,0.0,0.0,0.0,0.0,0.0,0.0,0.0,0.0,0.0,0.0,0.0,0.0,0.0,0.0,0.0,0.0,0.0,0.0,0.0,0.0,0.0,0.0,0.0,0.0,0.0,0.0,0.0,0.0,0.0,0.0,0.0,0.0,0.0,0.0,0.0,0.0,0.0,0.0,0.0,0.0,0.0,0.0,0.0,0.0,0.0,0.0,0.0,0.0,0.0,0.0,0.0,0.0,0.0,0.0,0.0,0.0,0.0,0.0,0.0,0.0,0.0,0.0,6.3079,6.7268,7.0855,7.3637,7.4416,7.4022,7.2265,6.9574,6.651,6.3054,0.0,0.0,0.0,0.0,0.0,0.0,0.0,0.0,0.0,0.0,0.0,0.0,0.0,0.0,0.0,0.0,0.0,0.0,0.0,0.0,0.0,0.0,0.0,0.0,0.0,0.0,0.0,0.0,0.0,0.0,0.0,0.0,0.0,0.0,0.0,0.0,0.0,0.0,0.0,0.0,0.0,0.0,0.0,0.0,0.0,0.0,0.0,0.0,0.0,0.0,0.0,0.0,0.0,0.0,0.0,0.0,0.0,0.0,0.0,0.0,0.0,0.0,0.0,0.0,0.0,0.0,0.0,0.0,0.0,0.0,0.0,0.0,0.0,0.0,0.0,0.0,0.0,0.0,0.0,0.0,0.0,0.0,0.0,0.0,0.0,0.0,0.0,0.0,0.0,0.0,0.0,0.0,0.0,0.0,0.0,0.0,0.0,0.0,0.0,0.0,0.0,0.0,6.4694,6.7944,7.1093,7.4344,7.4486,7.3673,7.211,6.9779,6.6896,6.3453,0.0,0.0,0.0,0.0,0.0,0.0,0.0,0.0,0.0,0.0,0.0,0.0,0.0,0.0,0.0,0.0,0.0,0.0,0.0,0.0,0.0,0.0,0.0,0.0,0.0,0.0,0.0,0.0,0.0,0.0,0.0,0.0,0.0,0.0,0.0,0.0,0.0,0.0,0.0,0.0,0.0,0.0,0.0,0.0,0.0,0.0,0.0,0.0,0.0,0.0,0.0,0.0,0.0,0.0,0.0,0.0,0.0,0.0,0.0,0.0,4.1942,0.0,0.0,0.0,0.0,0.0,0.0,0.0,0.0,0.0,0.0,0.0,0.0,0.0,0.0,0.0,0.0,0.0,0.0,0.0,0.0,0.0,0.0,0.0,0.0,0.0,0.0,0.0,0.0,0.0,0.0,0.0,0.0,0.0,0.0,0.0,0.0,0.0,0.0,0.0,0.0,0.0,6.5574,6.8861,7.1787,7.435,7.4516,7.3733,7.1908,6.9664,6.6905,6.3652,0.0,0.0,0.0,0.0,0.0,0.0,0.0,0.0,0.0,0.0,0.0,0.0,0.0,0.0,0.0,0.0,0.0,0.0,0.0,0.0,0.0,0.0,0.0,0.0,0.0,0.0,0.0,0.0,0.0,0.0,0.0,0.0,0.0,0.0,0.0,0.0,0.0,0.0,0.0,0.0,0.0,0.0,0.0,0.0,0.0,0.0,0.0,0.0,0.0,0.0,0.0,0.0,0.0,0.0,0.0,0.0,0.0,0.0,0.0,0.0,0.0,4.3395,0.0,0.0,0.0,0.0,0.0,0.0,0.0,0.0,0.0,0.0,0.0,0.0,0.0,0.0,0.0,0.0,0.0,0.0,0.0,0.0,0.0,0.0,0.0,0.0,0.0,0.0,0.0,0.0,0.0,0.0,0.0,0.0,0.0,0.0,0.0,0.0,0.0,0.0,0.0,0.0,6.5625,6.9207,7.2277,7.466,7.4702,7.4082,7.2944,7.0447,6.7808,6.5216,6.1295,0.0,0.0,0.0,0.0,0.0,0.0,0.0,0.0,0.0,0.0,0.0,0.0,0.0,0.0,0.0,0.0,0.0,0.0,0.0,0.0,0.0,0.0,0.0,0.0,0.0,0.0,0.0,0.0,0.0,0.0,0.0,0.0,0.0,0.0,0.0,0.0,0.0,0.0,0.0,0.0,0.0,0.0,0.0,0.0,0.0,0.0,0.0,0.0,0.0,0.0,0.0,0.0,0.0,5.1002,5.1398,5.14,5.2067,5.2381,5.2206,4.8829,4.6847,4.5964,0.0,0.0,0.0,0.0,0.0,0.0,0.0,0.0,0.0,0.0,0.0,0.0,0.0,0.0,0.0,0.0,0.0,0.0,0.0,0.0,0.0,0.0,0.0,0.0,0.0,5.2007,5.1698,0.0,0.0,0.0,0.0,0.0,0.0,0.0,0.0,0.0,0.0,0.0,0.0,6.5998,6.9605,7.2733,7.5184,7.4928,7.4375,7.3976,7.1286,6.8833,6.6979,6.3564,6.0229,0.0,0.0,0.0,0.0,0.0,0.0,0.0,0.0,0.0,0.0,0.0,0.0,0.0,0.0,0.0,0.0,0.0,0.0,0.0,0.0,0.0,0.0,0.0,0.0,0.0,0.0,0.0,0.0,0.0,0.0,0.0,0.0,3.7882,3.8038,0.0,0.0,0.0,0.0,0.0,0.0,0.0,0.0,0.0,0.0,0.0,0.0,0.0,4.7154,4.8887,5.0957,5.2438,5.333,5.4801,5.5438,5.5254,5.5365,5.5758,5.6304,5.5786,0.0,4.9289,4.8278,0.0,0.0,0.0,0.0,0.0,0.0,0.0,0.0,0.0,0.0,0.0,0.0,0.0,0.0,0.0,0.0,0.0,0.0,0.0,0.0,0.0,0.0,5.468,5.5759,5.6457,5.7033,0.0,5.451,5.142,5.0741,5.1767,0.0,0.0,0.0,0.0,0.0,0.0,0.0,6.8507,7.1108,7.3437,7.5758,7.5059,7.4098,7.3302,7.0989,6.9021,6.7632,6.4383,6.1513,5.9215,5.6398,0.0,0.0,0.0,0.0,0.0,0.0,0.0,0.0,0.0,0.0,0.0,0.0,0.0,0.0,0.0,0.0,0.0,0.0,0.0,0.0,0.0,0.0,0.0,0.0,0.0,0.0,0.0,0.0,0.0,3.9171,4.0168,4.0158,4.0215,3.9928,0.0,0.0,0.0,0.0,0.0,0.0,0.0,0.0,0.0,5.0264,5.0547,5.1638,5.3664,5.4701,5.5829,5.7074,5.827,5.9025,5.9401,5.9845,5.9902,5.963,5.9711,5.7974,5.4896,5.2848,5.0735,4.8735,0.0,0.0,0.0,0.0,4.7503,4.7989,4.9378,5.0118,0.0,5.0359,0.0,0.0,0.0,0.0,0.0,0.0,0.0,0.0,0.0,0.0,5.722,5.8997,5.9654,6.0244,6.1513,6.0196,5.7973,0.0,5.5047,5.5215,5.5052,0.0,0.0,0.0,0.0,6.6109,7.0051,7.2455,7.4459,7.632,7.5902,7.5243,7.4561,7.2479,7.0544,6.8994,6.6092,6.3489,6.1402,5.8817,5.6113,0.0,0.0,0.0,0.0,0.0,0.0,0.0,0.0,0.0,0.0,0.0,0.0,0.0,0.0,0.0,0.0,0.0,0.0,0.0,0.0,0.0,0.0,0.0,0.0,0.0,0.0,0.0,0.0,4.1379,4.2634,4.2608,4.2832,4.2514,0.0,0.0,0.0,0.0,0.0,0.0,4.9155,4.9906,5.1744,5.4955,5.5149,5.6239,5.8411,5.8788,5.9556,6.0713,6.1532,6.224,6.2781,6.334,6.3185,6.2423,6.2536,6.1661,5.9926,5.6818,5.4165,5.2012,5.1485,5.0613,4.9794,5.1001,5.1441,5.1624,5.3193,5.3795,5.3839,5.3259,5.2735,5.2015,5.0299,0.0,0.0,0.0,0.0,5.5357,5.707,5.8593,6.0137,6.1837,6.2422,6.2923,6.4098,6.4162,6.3056,0.0,5.8806,5.8638,5.9027,0.0,0.0,0.0,0.0,6.7722,7.1424,7.3631,7.5422,7.6841,7.6596,7.6059,7.5469,7.3639,7.1766,7.0082,6.7763,6.5529,6.3395,6.1224,5.8773,5.5925,0.0,0.0,0.0,0.0,0.0,0.0,0.0,0.0,0.0,0.0,0.0,0.0,0.0,0.0,0.0,0.0,0.0,0.0,0.0,0.0,0.0,0.0,0.0,0.0,0.0,0.0,0.0,0.0,0.0,4.5028,4.5704,0.0,0.0,0.0,0.0,4.7384,4.7747,4.9193,5.2205,5.3079,5.4907,5.8063,5.8864,6.0027,6.175,6.327,6.4021,6.3984,6.4661,6.4943,6.4862,6.4752,6.4685,6.4635,6.4641,6.4154,6.3096,5.9358,5.6889,5.5458,5.5432,5.4444,5.3266,5.4822,5.5448,5.5638,5.6496,5.7335,5.7991,5.7959,5.6519,5.4488,5.2765,5.3042,0.0,0.0,5.6813,5.9916,5.9764,6.2166,6.4595,6.4325,6.4959,6.5575,6.5503,6.4912,6.3996,0.0,6.3035,6.3077,6.1679,0.0,6.4132,6.5052,6.7266,6.9867,7.2841,7.4563,7.6073,7.7415,7.6703,7.5771,7.4991,7.3457,7.1927,7.0535,6.9091,6.7264,6.5083,6.34,6.0993,5.7742,5.5858,0.0,0.0,0.0,0.0,0.0,0.0,0.0,0.0,0.0,0.0,0.0,0.0,0.0,0.0,0.0,0.0,0.0,0.0,0.0,0.0,0.0,0.0,0.0,0.0,0.0,0.0,0.0,0.0,4.811,4.8425,0.0,4.8693,4.8296,4.8835,5.0728,5.2271,5.4308,5.7047,5.7761,5.9312,6.2055,6.272,6.3568,6.4688,6.5697,6.6435,6.6907,6.7152,6.7505,6.796,6.7903,6.7285,6.6225,6.6323,6.5544,6.4144,6.2887,6.0877,5.8539,5.8112,5.7327,5.6601,5.7766,5.8532,5.9116,5.9853,6.062,6.116,6.0134,5.8532,5.6963,5.6467,5.6915,5.7719,5.8312,6.0263,6.2247,6.2683,6.4477,6.626,6.6673,6.7418,6.8188,6.8661,6.8537,6.8213,6.7796,6.5903,6.4516,6.5113,6.5762,6.7077,6.9573,7.0598,7.2212,7.5298,7.6,7.6587,7.7488,7.7174,7.6322,7.499,7.436,7.2971,7.0384,6.9401,6.8179,6.6505,6.4523,6.2428,6.0237,5.8418,5.5788,0.0,0.0,0.0,0.0,0.0,0.0,0.0,0.0,0.0,0.0,0.0,0.0,0.0,0.0,0.0,0.0,0.0,0.0,0.0,0.0,0.0,0.0,0.0,0.0,0.0,0.0,5.0591,5.1288,5.1858,5.222,5.2314,5.2391,5.3245,5.5165,5.6747,5.8637,6.1026,6.1751,6.3069,6.5135,6.581,6.6548,6.7336,6.7779,6.8276,6.8793,6.8743,6.9005,6.9544,6.9507,6.8815,6.7753,6.7855,6.707,6.5734,6.5543,6.4139,6.2041,6.1347,6.0494,5.9818,6.0991,6.1573,6.1923,6.2579,6.3185,6.3436,6.2114,6.1004,6.019,6.0069,6.0566,6.133,6.2218,6.3631,6.5035,6.5804,6.7009,6.8173,6.8678,6.9208,6.9787,7.0257,7.0361,7.0361,7.0361,6.8322,6.6951,6.8118,6.8426,6.9458,7.2217,7.2849,7.3941,7.6458,7.6896,7.7083,7.7472,7.7387,7.6743,7.5409,7.5066,7.3779,7.1076,7.0109,6.9032,6.7657,6.574,6.3977,6.2372,6.0026,5.6947,5.3157,0.0,0.0,0.0,0.0,0.0,0.0,0.0,0.0,0.0,0.0,0.0,0.0,0.0,0.0,0.0,0.0,0.0,0.0,0.0,0.0,0.0,0.0,0.0,4.7656,5.109,5.3884,5.458,5.6042,5.7079,5.7257,5.7262,5.8264,6.0717,6.0915,6.1867,6.3985,6.4869,6.5886,6.7217,6.8064,6.8859,6.9617,6.9654,6.9683,6.9683,6.9535,6.946,6.9497,6.9325,6.9264,6.9228,6.9228,6.8786,6.7974,6.7221,6.6497,6.5842,6.5093,6.3915,6.2857,6.4456,6.4566,6.3991,6.4662,6.4928,6.4902,6.412,6.4039,6.4063,6.3334,6.3745,6.4654,6.5472,6.6887,6.8307,6.895,6.9828,7.0444,7.0216,7.0257,7.0312,7.0218,7.0227,7.0227,7.0227,7.0447,7.0635,7.0568,7.068,7.1274,7.2791,7.3831,0.0,7.628,7.7127,7.7508,7.7304,7.7281,7.6986,7.6161,7.5345,7.4219,7.2613,7.1243,6.991,6.8506,6.718,6.5675,6.4001,6.0523,5.7258,5.4264,0.0,0.0,0.0,0.0,0.0,0.0,0.0,0.0,0.0,0.0,0.0,0.0,0.0,0.0,0.0,0.0,0.0,0.0,0.0,0.0,0.0,0.0,5.0962,5.0852,5.3729,5.6503,5.8423,5.8944,5.97,6.1098,6.053,6.0866,6.2846,6.344,6.4483,6.6226,6.6985,6.7846,6.8903,6.9534,6.9983,7.0314,7.0774,7.1257,7.183,7.121,7.1223,7.1759,7.1156,7.0561,7.0061,7.0061,6.9626,6.8866,6.8648,6.8417,6.8027,6.5595,6.4467,6.4333,6.5362,6.5946,6.6274,6.6488,6.6174,6.5683,6.5464,6.5044,6.4729,6.5187,6.595,6.6853,6.7724,6.875,6.9595,6.9775,7.0374,7.0948,7.0977,7.1374,7.194,7.2562,7.2723,7.2723,7.2723,7.3258,7.3337,7.2272,7.2226,7.304,7.5265,7.5817,0.0,7.7157,7.7331,7.7313,7.7163,7.7156,7.6824,7.6028,7.5229,7.4102,7.2591,7.1696,7.065,6.939,6.8442,6.6605,6.3829,6.0721,5.8638,0.0,0.0,0.0,0.0,0.0,0.0,0.0,0.0,0.0,0.0,0.0,0.0,0.0,0.0,0.0,0.0,0.0,0.0,0.0,0.0,0.0,0.0,5.2577,5.5552,5.6698,5.797,5.9462,6.1387,6.2131,6.2953,6.4024,6.4184,6.4635,6.5635,6.6392,6.719,6.8051,6.9128,6.9927,7.0378,7.1335,7.1904,7.1998,7.2331,7.2754,7.3181,7.2718,7.2754,7.3189,7.2718,7.2291,7.1857,7.1857,7.1213,7.0162,7.0162,6.9771,0.0,0.0,0.0,0.0,0.0,6.7716,6.8117,6.8059,6.7782,6.7418,6.7418,6.714,6.6919,6.7477,6.8036,6.8654,6.9467,7.0109,7.0657,7.1252,7.1428,7.156,7.2014,7.2409,7.2818,7.3383,7.3771,7.4006,7.4117,7.4491,0.0,7.4206,7.3953,7.4399,7.6118,7.6752,7.7223,7.7806,7.7808,7.7657,7.7477,7.7189,7.6802,7.644,7.5371,0.0,0.0,0.0,7.0674,6.9063,6.8413,0.0,0.0,0.0,6.0528,5.9555,0.0,0.0,0.0,5.1723,5.078,0.0,0.0,0.0,0.0,0.0,0.0,0.0,0.0,0.0,0.0,0.0,0.0,0.0,0.0,0.0,0.0,5.6921,6.0493,6.3358,6.2958,6.278,6.3974,6.5289,6.617,6.638,6.7671,6.8502,6.8517,6.9333,6.9769,6.9635,0.0,0.0,0.0,0.0,7.3897,7.388,7.3897,7.3933,7.3989,7.3933,7.3941,7.4013,7.3941,7.3905,7.3905,7.3905,7.308,7.1776,7.1776,7.0951,6.9699,6.9344,6.934,6.9518,6.9409,6.9446,6.9467,6.9274,0.0,0.0,6.9373,6.947,6.9581,6.9668,6.9829,7.0142,7.085,7.1209,7.1648,7.2974,7.2782,7.241,7.3147,7.3322,7.335,7.3439,7.4022,7.4572,7.477,7.4889,7.5207,7.593,7.561,7.5448,7.6116,7.697,7.7711,7.8222,7.8187,7.8057,7.7985,0.0,0.0,7.7024,7.5683,7.4794,7.4842,7.2621,7.0409,6.8325,6.7897,6.6629,6.4261,6.3691,6.2524,6.0693,6.0126,5.9621,5.9065,5.5389,5.3724,0.0,0.0,0.0,0.0,0.0,0.0,0.0,0.0,0.0,0.0,0.0,0.0,0.0,0.0,0.0,5.5376,5.9183,6.2596,6.5012,6.6247,6.7025,6.7266,6.6903,6.7252,6.8764,6.8982,6.9074,6.9215,7.0417,7.113,7.1099,7.2621,7.3466,7.3442,7.3724,7.3847,7.3752,7.3847,7.4129,7.4602,0.0,0.0,7.4846,7.4194,7.3905,7.3905,7.3905,7.3724,7.3434,7.3434,7.3261,7.2754,7.0206,6.9605,7.0136,6.9491,6.9636,7.01,6.9424,6.9214,6.9237,6.9237,6.926,6.9414,7.0188,7.043,0.0,7.2322,7.2776,7.301,7.392,7.3965,7.3829,7.41,7.4074,7.4193,7.4967,7.5246,7.5363,7.5439,7.6084,7.6486,7.6033,7.5922,7.616,7.6966,7.7138,7.7464,7.819,7.7502,7.7142,7.7774,7.7133,7.666,7.669,7.5935,7.5165,7.4528,7.2678,7.1027,6.9655,6.8834,6.7711,6.6272,6.4528,6.3427,6.303,6.1645,6.0922,6.0699,5.8741,5.7841,0.0,0.0,0.0,0.0,0.0,0.0,0.0,0.0,0.0,0.0,0.0,4.848,5.0804,0.0,5.7442,6.0109,6.3128,6.5814,6.7692,6.8626,6.9026,6.8746,6.865,6.9092,7.0434,7.0791,7.1132,7.1515,7.2283,7.2678,7.2597,7.3828,7.4484,7.4484,7.5289,7.5473,7.5,7.5473,7.5863,7.614,7.5336,7.5364,7.6123,7.5235,7.4882,7.4966,7.4874,7.4716,7.4484,7.4086,7.3905,7.3724,7.2183,7.1784,7.2038,7.1249,7.1205,7.143,7.0633,7.0343,7.0416,7.0814,7.0959,7.1112,7.1987,7.2328,7.2551,7.3335,7.3616,7.3853,7.4587,7.4389,7.4176,7.4647,7.468,7.4793,7.5265,7.5689,7.5976,7.6094,7.6518,7.6753,7.6394,7.6408,7.675,7.7662,7.8091,7.8536,7.9188,7.8756,7.8344,7.8272,7.7528,7.692,7.6624,7.5976,7.5061,7.3871,7.2767,7.167,7.0598,6.951,6.8475,6.7417,6.5885,6.4982,6.4736,6.3824,6.3425,6.3494,6.2747,6.1794,0.0,0.0,0.0,0.0,0.0,0.0,0.0,0.0,4.6458,4.8066,5.019,5.2668,5.5536,5.9075,6.2288,6.4568,6.6662,6.8553,7.0108,7.0462,7.0437,7.0108,7.0545,7.1124,7.1845,7.2525,7.3103,7.3588,7.3877,7.4018,7.3927,7.4905,7.5478,7.552,7.687,7.7278,7.6584,7.7312,7.7566,7.7352,7.6579,7.6483,7.6908,7.6147,7.5876,7.5971,7.5858,7.561,7.5231,7.4621,7.4384,7.4384,7.4384,7.4384,7.4239,7.3297,7.2935,7.2826,7.2175,7.1957,7.2066,7.2718,7.2935,7.3036,7.3687,7.401,7.4135,7.4127,7.4236,7.4535,7.5177,7.4846,7.4528,7.518,7.5317,7.5317,7.5317,7.5841,7.6362,7.6495,7.6581,7.661,7.6757,7.6769,7.7133,7.811,7.8768,7.942,8.0101,8.0037,7.9596,7.8776,7.7982,7.7252,7.666,7.5923,7.4904,7.3499,7.2988,7.2224,7.1048,7.0174,6.9284,6.8407,6.7273,6.6572,6.6205,6.5779,6.5613,6.5767,6.5939,6.4985,4.4292,4.4045,0.0,4.5825,4.6613,4.7791,0.0,0.0,5.1799,5.3424,5.5158,5.6853,5.8556,6.0954,6.3466,6.5733,6.7459,6.9125,7.0907,7.1789,7.2483,7.3121,7.2738,7.2698,7.3382,7.3555,7.3544,7.3422,7.4106,7.4579,7.466,7.5956,7.6784,7.6959,7.7658,7.7883,7.7629,7.809,7.7783,7.6778,7.6973,7.6665,7.5959,7.5834,7.5798,7.5833,7.5936,7.595,7.5893,7.5991,7.603,7.603,7.603,7.603,7.5849,7.4347,7.3768,7.376,7.3651,7.3615,7.3659,7.3724,7.3768,7.376,7.3868,7.3921,7.4082,7.4774,7.4963,7.5161,7.5958,7.6102,7.6066,7.6139,7.6175,7.6175,7.6175,7.6247,7.6328,7.6345,7.647,7.6614,7.663,7.6725,7.7093,7.7904,7.8016,7.8526,7.9994,7.9408,7.8836,7.871,7.7996,7.7252,7.666,7.5698,7.4866,7.4139,7.359,7.2519,7.0729,7.1044,7.0756,6.9713,6.8307,6.759,6.7668,6.6339,6.5663,6.5651,6.6538,6.6511,4.7619,0.0,0.0,0.0,5.0321,5.143,5.3611,5.4498,5.5334,5.6917,5.8894,6.0823,6.24,6.4624,6.6688,0.0,6.958,7.0795,7.1524,7.2735,7.3712,7.4191,7.4395,7.4439,7.4227,7.4284,7.4405,7.4616,7.5045,7.5492,7.5862,7.6526,7.7146,7.7694,7.8414,7.8602,7.8162,7.8648,7.8729,7.8369,7.782,7.7353,7.6957,7.641,7.589,7.5478,7.5744,7.5867,7.5875,7.5953,7.6057,7.6114,7.6114,7.6091,7.5869,7.4952,7.4593,7.452,7.405,7.3905,7.3977,7.4448,7.4593,7.4701,7.5144,7.5297,7.537,7.5696,7.5804,7.5877,7.6211,7.6284,7.6284,7.6284,7.6284,7.6284,7.6284,7.6284,7.6284,7.6284,7.6378,7.6565,7.7037,7.7168,7.7654,7.8917,7.8778,7.9051,8.0527,8.0366,7.976,7.879,7.7538,7.6705,7.6454,7.6033,7.5509,7.479,7.4622,7.3785,7.2071,7.1992,7.1544,7.0623,6.96,6.9116,6.9171,6.8569,6.8274,6.8353,6.8774,6.8916,5.0211,0.0,0.0,5.2792,5.404,5.5177,5.6877,5.7763,5.8677,6.0254,6.216,6.4026,6.5648,6.7685,6.9371,7.0204,7.135,7.2257,7.2523,7.3623,7.4419,7.4506,7.5132,7.5267,7.4491,7.4764,7.5214,7.572,7.5666,7.5962,7.6652,7.6867,7.7288,7.7917,7.8819,7.9107,7.8727,7.9219,7.9436,7.9331,7.8518,7.7985,7.7688,7.7012,7.6402,7.584,7.6007,7.6042,7.6051,7.6148,7.6126,7.6039,7.6308,7.6177,7.5822,7.5475,7.5317,7.5211,7.4683,7.449,7.4563,7.5236,7.5434,7.5542,7.6139,7.6284,7.6284,7.6284,7.6284,7.6284,7.6284,7.6242,7.6297,7.6556,7.6604,7.6542,7.6629,7.6646,7.6573,7.6356,7.6284,7.6573,7.737,7.7507,7.805,7.9671,7.9539,7.9683,8.0956,8.0912,8.0231,7.8837,7.7458,7.6535,7.632,7.6284,7.5977,7.5131,7.5333,7.48,7.3371,7.3144,7.2621,7.178,7.1096,7.066,7.044,7.0262,7.0207,7.0238,7.0273,7.0401,0.0,0.0,5.3941,5.5649,5.736,5.9138,6.1068,6.1682,6.2283,6.3907,6.503,6.6177,6.7711,6.9353,7.071,7.1495,7.228,7.3127,7.4091,7.4427,7.4523,7.4331,7.4663,7.4707,0.0,7.4914,7.5747,7.6323,7.5662,7.5646,7.6669,7.7015,7.731,7.7525,7.8599,7.9316,7.958,7.9776,7.949,7.8734,7.8878,7.8439,7.7518,7.7482,7.7437,7.742,7.6874,7.6688,7.6715,7.7036,7.6708,7.6084,7.7068,7.6844,7.5986,7.5967,7.5891,7.5797,7.5907,7.5931,7.5965,7.6188,7.6247,7.6284,7.6284,7.6284,7.6284,7.6284,7.6284,7.6284,7.6284,7.6148,7.6263,7.721,7.7297,7.7246,7.7436,7.7479,7.7225,7.6465,7.6284,7.6573,7.737,7.7507,7.805,7.9671,7.9897,8.0187,8.0975,8.0406,7.9636,7.8792,7.7961,7.7162,7.6364,7.6284,7.5944,7.5147,7.5406,7.5175,7.4195,7.4574,7.4389,7.347,7.2776,7.2048,7.127,7.0616,7.0218,7.0124,7.0225,7.0293,0.0,0.0,5.7051,5.9414,6.0745,6.2096,6.4291,6.4882,6.5106,6.577,6.6582,6.7226,6.7357,6.8658,6.997,7.0764,7.1977,7.3154,7.4162,7.4708,7.4887,7.4543,7.4841,0.0,0.0,0.0,0.0,7.5573,7.596,7.6451,7.6996,7.777,7.8409,7.8892,7.939,7.9773,7.9986,7.9928,7.9815,7.9672,7.9079,7.8619,7.8267,7.7232,7.6759,7.6733,7.6012,7.5791,7.5881,7.5872,7.5801,7.5718,7.6041,7.5871,7.5487,7.5621,7.555,7.546,7.5771,7.5885,7.5875,7.6029,7.6097,7.6114,7.625,7.6284,7.6284,7.6284,7.6284,7.6284,7.6284,7.614,7.6084,7.6406,7.6877,7.7203,7.7309,7.7421,7.7434,7.7153,7.6682,7.6718,7.8086,7.8303,7.8847,8.0468,8.0578,8.065,8.1065,8.0279,7.9665,7.9517,7.8298,7.7408,7.7119,7.6629,7.6194,7.5907,7.6005,7.5749,7.5015,7.5241,7.5011,7.4319,7.3634,7.3156,7.2899,7.2142,7.178,7.1829,7.178,7.192,5.806,5.9145,6.0579,6.2359,6.3768,6.5075,6.6222,6.675,6.6996,6.6945,6.7222,6.7348,6.6974,6.7975,6.9114,6.9935,7.162,7.3154,7.4162,7.487,7.5102,7.457,7.4673,7.4368,0.0,0.0,0.0,7.5071,7.603,7.6807,7.7293,7.8124,7.8772,7.9159,7.9493,7.9763,7.9977,7.9841,7.988,8.0083,7.9354,7.9047,7.9079,7.8039,7.7585,7.7615,7.6795,7.6369,7.6202,7.6138,7.605,7.5962,7.6312,7.632,7.612,7.5979,7.5791,7.5636,7.5764,7.5789,7.5833,7.6057,7.6097,7.6123,7.625,7.6233,7.6199,7.6267,7.6233,7.6199,7.6267,7.614,7.6084,7.6442,7.7093,7.7564,7.7345,7.7638,7.7833,7.7551,7.708,7.7225,7.8847,7.9292,7.9791,8.0831,8.0757,8.0702,8.1075,8.0532,8.0063,7.9937,7.8735,7.7794,7.7504,7.6763,7.6284,7.6284,7.6378,7.6211,7.5752,7.6,7.5773,7.5024,7.474,7.4265,7.3714,7.3487,7.3126,7.2631,7.2833,7.3094,6.0985,6.2687,6.4433,6.4629,6.6468,6.7934,6.7086,6.7501,6.7893,6.7368,6.6884,6.6568,0.0,0.0,6.8337,6.9221,7.1291,7.3154,7.4198,7.5012,7.5192,0.0,0.0,0.0,0.0,0.0,0.0,7.4823,0.0,7.6804,7.7499,7.8147,7.8468,7.8458,7.8961,7.9341,7.9621,7.9631,7.973,7.987,7.9684,7.9694,7.987,7.9649,7.9659,7.9773,7.8972,7.8196,7.7527,7.7688,7.7341,7.6822,7.7667,7.7899,7.7698,7.6974,7.6577,7.6386,7.6007,7.5807,7.5824,7.6168,7.6286,7.625,7.6275,7.6148,7.6038,7.6216,7.614,7.6038,7.6225,7.6131,7.6246,7.7193,7.7894,7.8177,7.76,7.8069,7.8403,7.7688,7.7579,7.8122,7.9635,8.0415,8.0794,8.0794,8.0461,8.0433,8.1003,8.1065,8.0767,8.0018,7.9222,7.844,7.7612,7.6822,7.6356,7.6284,7.6478,7.6495,7.6309,7.6838,7.6648,7.5699,7.5962,7.5359,7.3824,7.4544,7.4103,7.265,7.3384,7.3722,6.449,6.566,6.6995,6.8377,6.8912,6.9156,6.9451,6.8347,6.7129,6.6593,6.558,6.4822,0.0,0.0,0.0,6.9863,7.1656,0.0,7.4959,7.5245,0.0,0.0,0.0,7.4175,7.2847,7.3899,0.0,0.0,7.6298,7.7664,7.8128,7.9015,7.9458,7.9302,7.9568,7.9753,7.9812,7.9812,7.9763,7.9691,7.9799,7.9753,7.9665,7.9167,7.8882,7.8759,7.8094,7.7687,7.7446,7.6967,7.6986,7.7271,7.696,7.713,7.7476,7.6736,7.6806,7.7153,7.6624,7.5962,7.5433,7.5815,7.585,7.5788,7.6165,7.6148,7.6003,7.6055,7.6038,7.6012,7.6055,7.5971,7.5947,7.6318,7.6968,7.7456,7.7319,7.7444,7.7741,7.8277,7.8883,7.9426,7.9816,8.0415,8.0794,8.0794,8.0582,8.0537,8.0849,8.074,8.0676,8.0794,8.007,7.9281,7.8451,7.7666,7.6936,7.6356,7.6478,7.6589,7.6548,7.6894,7.6967,7.6737,7.6317,7.5909,7.5506,7.5094,7.475,7.4433,7.3912,7.3831,6.7685,6.8635,6.9522,7.0246,7.0323,6.9954,6.8915,6.7871,6.6541,6.4633,6.3409,0.0,0.0,0.0,0.0,0.0,0.0,0.0,7.4895,7.5156,7.511,0.0,7.4776,0.0,7.4155,7.481,7.5532,0.0,7.7006,7.7789,7.8361,7.9267,7.9743,7.9714,7.9831,7.989,7.989,7.989,7.9831,7.9714,7.9743,7.973,7.9586,7.9251,7.9028,7.892,0.0,7.8365,7.7982,7.7589,7.7661,7.7982,7.7554,7.7875,7.8436,7.7294,7.7152,7.7349,7.6389,7.5673,7.5333,7.6158,7.6354,7.622,7.6172,7.6065,7.591,7.591,7.5858,7.5814,7.5893,7.5868,7.5833,7.5952,7.6608,7.7113,7.6753,7.7002,7.7595,7.8531,7.9635,8.0405,8.0325,8.0505,8.0629,8.0545,8.0368,8.032,8.05,8.0594,8.0713,8.093,8.0007,7.9184,7.8754,7.7641,7.6791,7.632,7.6478,7.6606,7.6606,7.691,7.71,7.71,7.6779,7.6452,7.6093,7.6004,7.5616,7.5007,7.4478,7.4346,7.029,7.1208,7.1647,7.1176,7.1091,7.0358,6.7383,6.6653,6.5658,6.2304,0.0,6.0563,6.0482,6.2583,6.4895,6.6687,0.0,7.3136,7.4471,7.4977,7.5225,7.5361,7.4984,7.5161,7.6229,7.6088,7.6618,7.8183,7.7715,7.7673,7.8529,7.923,7.97,7.9841,7.988,7.988,7.9851,7.988,7.988,7.9841,7.9694,7.9621,7.9536,7.9602,7.9582,7.9507,7.9743,7.9468,7.88,7.8722,7.8767,7.8838,7.8624,7.9114,7.9711,7.8079,7.758,7.7437,7.601,7.551,7.5664,7.6687,7.6989,7.6836,7.6203,7.5901,7.578,7.5763,7.5639,7.5523,7.571,7.5754,7.5806,7.5953,7.6501,7.6826,7.6141,7.6812,7.7791,7.8453,7.9908,8.0948,8.0785,8.0592,8.0396,8.0226,8.0025,7.9971,8.0143,8.0508,8.0759,8.0812,7.9635,7.88,7.8709,7.7306,7.6428,7.632,7.6478,7.6597,7.6573,7.6878,7.7069,7.7069,7.7217,7.6943,7.6269,7.6959,7.6592,7.5234,7.5131,7.5021,7.1236,7.1832,7.2221,7.2736,7.1608,7.0011,6.8547,6.5858,0.0,0.0,0.0,5.9772,6.107,6.2708,0.0,6.8788,0.0,0.0,0.0,0.0,7.507,0.0,0.0,0.0,0.0,0.0,0.0,0.0,0.0,7.8378,7.9353,7.9505,7.9631,7.9671,7.9802,7.9802,7.9635,7.9802,7.9802,7.9635,7.9808,7.9645,7.9271,7.9487,7.9397,7.9049,7.9467,0.0,7.9396,7.8914,7.9088,7.9569,7.8222,7.8615,7.9711,7.8079,7.7901,7.8374,7.7401,7.7116,7.6967,7.6275,7.5916,7.5818,7.5981,7.5901,7.5763,7.5612,7.555,7.5496,7.5532,7.5532,7.5621,7.5798,7.5949,7.6021,7.5877,7.6974,7.8,7.7963,7.9384,8.0592,8.0555,8.0386,8.0235,8.0197,8.0025,7.9925,7.9935,8.0304,8.0611,8.0795,8.014,7.9419,7.8758,7.7835,7.7008,7.6356,7.6478,7.6548,7.637,7.6664,7.6842,7.6842,7.7053,7.7129,7.7105,7.7244,7.7171,7.6878,7.6195,7.5535,7.221,7.2777,7.3133,7.3138,7.1463,6.9215,6.7121,0.0,0.0,0.0,0.0,5.8077,6.0392,0.0,0.0,0.0,0.0,0.0,0.0,0.0,0.0,0.0,0.0,0.0,0.0,0.0,0.0,0.0,0.0,7.9377,7.9231,7.9457,7.9612,7.9612,7.9783,7.9841,7.9743,7.9841,7.9841,7.9743,7.9841,7.9665,7.9211,7.9477,7.9347,7.8936,7.9241,0.0,7.9586,7.9303,7.9481,7.9818,7.9033,7.9212,7.9747,7.8543,7.8374,7.8517,7.7339,7.6937,7.6788,7.606,7.5961,7.6061,7.5808,7.5691,7.5612,7.5388,7.5334,7.5334,7.5334,7.5334,7.5379,7.5603,7.5971,7.6285,7.6373,7.7541,7.8554,7.8564,7.9607,8.0461,8.0358,8.0264,8.0159,8.0054,7.9948,7.989,7.989,8.0143,8.0419,8.063,7.9727,7.9021,7.8736,7.757,7.6718,7.632,7.6478,7.6573,7.6454,7.6664,7.6842,7.6937,7.7061,7.7178,7.7281,7.7281,7.7281,7.7281,7.6489,7.5909,7.2925,7.3415,7.3632,7.3033,7.0979,6.8305,6.5402,6.2049,0.0,0.0,5.6485,5.6798,5.9676,0.0,0.0,0.0,0.0,0.0,0.0,0.0,0.0,0.0,0.0,0.0,0.0,0.0,0.0,0.0,0.0,0.0,7.8998,7.9377,7.9556,7.9507,7.9714,7.9822,7.9822,7.9822,7.9841,7.989,7.989,7.9665,7.9211,7.9427,7.9276,7.8854,7.9059,0.0,7.9447,7.9487,7.9635,7.9822,7.9643,7.9708,7.9783,7.9017,7.8705,7.8517,7.7069,7.648,7.6241,7.5711,7.5935,7.632,7.5747,7.5523,7.5442,7.5279,7.5215,7.5215,7.5215,7.5215,7.5261,7.5388,7.6033,7.6651,7.6778,7.7924,7.8979,7.9119,7.9829,8.032,8.0159,8.013,8.0073,7.9919,7.989,7.989,7.989,8.0074,8.029,8.0475,7.9369,7.8747,7.8948,7.748,7.6646,7.6791,7.6627,7.6621,7.6802,7.6757,7.6825,7.7037,7.7084,7.7178,7.7281,7.7281,7.7281,7.7281,7.6636,7.6269,7.3156,7.3191,7.2996,7.2624,7.0263,6.7408,6.5049,0.0,0.0,5.7533,5.68,5.7121,5.9725,0.0,0.0,0.0,0.0,7.0025,0.0,0.0,0.0,0.0,0.0,0.0,0.0,0.0,0.0,0.0,0.0,0.0,7.916,7.9447,7.9487,7.9241,7.9487,7.9641,7.9641,7.9641,7.9704,7.989,7.989,7.9665,7.9201,7.9221,7.9008,7.8626,7.8844,0.0,0.0,7.916,7.9407,7.9535,7.8798,7.9093,7.9783,7.9017,7.8705,7.8569,7.7478,7.669,7.596,7.5028,7.5132,7.563,7.5754,7.5648,7.5442,7.5279,7.5215,7.5215,7.5215,7.5215,7.5189,7.5207,7.5823,7.6439,7.6458,7.7663,7.8734,7.8753,7.9386,7.9938,7.9919,7.9919,7.9909,7.989,7.989,7.989,7.989,8.0076,8.0288,8.0483,7.9869,7.9584,7.9764,7.83,7.7696,7.8448,7.7134,7.6671,7.7387,7.6903,7.6676,7.6817,7.7021,7.7178,7.7281,7.7281,7.7281,7.7281,7.7208,7.6812,7.306,7.3364,7.3241,7.2504,6.9913,6.6972,6.476,0.0,5.7965,5.7581,5.6933,5.7186,5.9828,6.0401,6.1974,6.6533,6.718,0.0,0.0,0.0,0.0,0.0,0.0,0.0,0.0,0.0,0.0,0.0,0.0,0.0,7.8983,7.912,7.913,7.9038,7.9231,7.9377,7.9377,7.9507,7.9546,7.9471,7.9635,7.9487,7.9038,7.9038,7.8875,7.8595,7.8678,0.0,0.0,7.8998,7.915,7.9341,7.9022,7.9232,7.9669,7.9358,7.9251,7.9125,7.8229,7.7418,7.6617,7.574,7.5287,7.5152,7.5225,7.5271,7.5289,7.5207,7.5215,7.5215,7.5215,7.5215,7.5215,7.5215,7.5796,7.6411,7.6411,7.753,7.8552,7.8676,7.9267,7.9743,7.987,7.989,7.989,7.989,7.989,7.9938,8.0054,8.0028,8.0157,8.0462,7.9945,7.9691,7.9889,7.8865,7.8376,7.8666,7.8086,7.7651,7.7515,7.7285,7.7003,7.6676,7.6854,7.7021,7.7186,7.7279,7.7281,7.7281,7.7281,7.7142,7.2369,7.2917,7.2908,7.1798,6.9041,6.6027,0.0,6.0321,5.7453,5.7545,5.6945,5.7113,5.9547,6.0181,6.159,6.5395,6.6313,6.7613,7.061,0.0,0.0,0.0,0.0,0.0,0.0,0.0,0.0,0.0,0.0,0.0,7.8813,7.9235,7.9408,7.9268,7.9216,7.9307,7.9565,7.9513,7.9437,7.9311,7.9497,7.9357,7.8881,7.8881,7.8792,7.8585,7.8585,0.0,0.0,7.8823,7.8936,7.912,7.912,7.9291,7.9612,7.9612,7.9444,7.9114,7.8248,7.7579,7.6921,7.586,7.5395,7.5223,7.4974,7.4996,7.5116,7.5171,7.5215,7.5215,7.5215,7.5215,7.5215,7.5215,7.5796,7.6393,7.6328,7.7416,7.8436,7.8581,7.9151,7.9645,7.9851,7.989,7.989,7.989,7.989,7.9938,8.0083,8.0035,8.0109,8.0464,8.0171,8.0026,8.0153,7.9473,7.9173,7.9381,7.8955,7.8557,7.8231,7.7863,7.7464,7.7007,7.6971,7.7009,7.7171,7.7235,7.7281,7.7281,7.7281,7.7281,7.1047,7.1523,7.1621,7.0257,6.7412,6.4406,0.0,5.9281,5.6904,5.7307,5.6885,5.6943,5.8695,6.0198,6.1895,6.3976,6.6061,6.8031,6.9951,0.0,0.0,0.0,0.0,0.0,0.0,0.0,0.0,0.0,0.0,0.0,7.8665,8.0049,8.0636,8.0094,7.9524,7.9565,8.0399,7.96,7.9357,7.9612,7.9612,7.9357,7.8881,7.8881,7.8792,7.8585,0.0,0.0,0.0,7.8595,7.872,7.8891,7.8891,7.918,7.9612,7.9612,7.9088,7.8287,7.7275,7.6914,7.6601,7.4868,7.5105,7.596,7.5152,7.4903,7.495,7.5134,7.5215,7.5215,7.5215,7.5215,7.5215,7.5215,7.5796,7.6356,7.615,7.7311,7.8387,7.8397,7.9053,7.9645,7.9851,7.989,7.989,7.989,7.989,7.989,7.989,8.0073,8.0283,8.047,8.066,8.0786,8.0803,8.0233,8.0214,8.1011,7.9562,7.9064,7.9852,7.8672,7.798,7.798,7.7513,7.7318,7.7318,7.7281,7.7281,7.7281,7.7281,7.7281,6.838,6.882,6.8476,6.6216,6.4473,6.2712,6.0307,5.803,5.6434,5.6564,5.6472,5.6597,5.7244,5.8501,6.0306,6.3057,6.4295,6.5848,0.0,0.0,0.0,0.0,0.0,0.0,0.0,0.0,0.0,0.0,0.0,0.0,7.862,7.9705,8.0204,7.9919,7.9701,7.9732,7.9989,7.9324,7.8967,7.8931,7.9049,7.8967,7.8689,7.8689,7.8657,0.0,0.0,7.8585,7.8585,7.8585,7.8626,7.8678,7.8522,7.8647,7.8875,7.872,7.8585,7.8392,7.7535,7.7369,7.7349,7.623,7.5858,7.5815,7.5735,7.5414,7.5107,7.5161,7.5215,7.5215,7.5215,7.5088,7.4996,7.4996,7.5062,7.5153,7.5087,7.6167,7.7244,7.7537,7.8534,7.9467,7.9822,7.989,7.989,7.989,7.989,7.9938,8.0083,8.0159,8.0264,8.0479,8.0692,8.0867,8.0975,8.0821,8.083,8.1083,8.0612,8.0214,7.9924,7.8987,7.828,7.786,7.7279,7.7016,7.7171,7.7272,7.7281,7.7281,7.7281,7.7281,6.5278,6.5948,6.5701,6.3428,6.2271,6.1056,5.8549,5.7093,5.6176,5.5831,5.6102,5.6404,5.6368,5.7987,5.9914,6.174,6.3442,0.0,0.0,0.0,0.0,0.0,0.0,0.0,0.0,0.0,0.0,0.0,0.0,0.0,7.9041,7.9905,8.0327,8.0224,8.0028,7.9895,7.9895,7.9231,7.8844,7.872,7.8854,7.8803,7.8585,7.8585,7.8585,0.0,0.0,7.8504,0.0,7.8364,7.8332,7.8311,7.8208,7.8258,7.8403,7.794,7.793,7.7977,7.6924,7.7153,7.7686,7.6319,7.5691,7.5548,7.5706,7.5507,7.5215,7.5215,7.5215,7.5215,7.5215,7.5042,7.4903,7.4903,7.4744,7.4565,7.4498,7.5352,7.635,7.695,7.8,7.9042,7.9776,7.989,7.989,7.989,7.989,7.9938,8.0063,8.015,8.0285,8.0494,8.0676,8.0867,8.1065,8.1119,8.1119,8.1119,8.1119,8.0757,7.9924,7.9206,7.8528,7.7877,7.7247,7.7013,7.7186,7.7279,7.7281,7.7281,7.7281,7.7281,0.0,6.2775,6.3078,6.1471,6.0449,5.9173,5.6926,5.6228,0.0,5.5091,5.5671,5.6235,5.6013,5.8352,6.0351,6.0314,0.0,0.0,0.0,0.0,0.0,0.0,0.0,0.0,0.0,0.0,0.0,0.0,0.0,0.0,7.9708,8.0424,8.081,8.074,8.032,8.0083,8.0083,7.9283,7.8895,7.8895,7.8895,7.8782,7.8564,7.8574,7.8574,0.0,7.8378,7.8282,7.8272,7.8025,7.7893,7.7893,7.7872,7.8001,7.8079,7.738,7.7191,7.7143,7.5655,7.6358,7.7578,7.5369,7.4935,7.5215,7.5206,7.5215,7.5215,7.5215,7.5215,7.5215,7.5161,7.5024,7.4885,7.4866,7.4697,7.4498,7.4316,7.4867,7.5666,7.6688,7.7551,7.8485,7.9679,7.9844,7.9799,7.9799,7.9779,7.9779,7.9799,8.0018,8.0266,8.0466,8.0676,8.0876,8.1047,8.1074,8.1119,8.1119,8.1102,8.0703,7.9924,7.9292,7.8663,7.8,7.74,7.7178,7.7281,7.7281,7.7281,7.7281,7.7281,7.7281,5.6849,0.0,5.9405,5.7657,5.642,5.5424,0.0,5.3782,5.3264,5.4065,0.0,5.5625,5.5537,5.7473,5.9401,0.0,0.0,0.0,0.0,0.0,0.0,0.0,0.0,0.0,0.0,0.0,0.0,0.0,0.0,7.8865,7.8865,7.9638,7.9768,7.9146,7.9621,7.9852,7.9852,7.9079,7.8668,7.8668,7.8668,7.8588,7.8378,7.8546,7.8525,0.0,7.8314,7.8282,7.8272,7.8025,7.7893,7.7872,7.7732,7.7688,7.7687,7.7327,7.7073,7.6799,7.5812,7.5929,7.6357,7.5481,7.5366,7.5537,7.5266,7.5215,7.5215,7.5215,7.5215,7.5152,7.5005,7.4819,7.4631,7.4479,7.4277,7.4137,7.4088,7.4651,7.5508,7.6669,7.7551,7.8485,7.9679,7.9264,7.874,7.874,7.8603,7.8599,7.872,7.9484,8.0054,8.0247,8.0603,8.0804,8.0867,8.0994,8.1119,8.1119,8.0939,8.0569,7.9924,7.9031,7.8312,7.788,7.7344,7.7178,7.7281,7.7281,7.7281,7.7281,7.7281,7.7281,5.3686,5.5467,5.7249,5.5837,5.5106,5.4515,5.3656,5.2688,0.0,0.0,0.0,5.4588,5.5581,0.0,0.0,0.0,0.0,0.0,0.0,0.0,0.0,0.0,0.0,0.0,0.0,0.0,0.0,0.0,0.0,7.876,7.9146,7.9217,7.9217,7.9146,7.9217,7.9252,7.9252,7.883,7.8585,7.8585,7.8585,7.8504,7.8293,7.8525,7.8406,0.0,7.8122,7.8058,7.795,7.7699,7.7566,7.7579,7.7457,7.7402,7.7356,7.6877,7.6727,7.664,7.5355,7.4917,7.4931,7.5193,7.51,7.4877,7.4898,7.4913,7.495,7.5134,7.5215,7.5161,7.5061,7.481,7.4565,7.446,7.42,7.401,7.401,7.437,7.5074,7.6183,7.7088,7.8025,7.9164,7.8808,7.8529,7.8911,7.8485,7.8319,7.8891,7.9514,7.9967,8.0178,8.0547,8.0795,8.0803,8.0967,8.1047,8.0957,8.093,8.0424,7.9258,7.877,7.814,7.7356,7.7185,7.7178,7.7281,7.7248,7.7256,7.7281,7.7248,7.7256,5.1841,5.3672,5.5698,5.4738,5.4705,5.4449,5.2872,0.0,0.0,0.0,0.0,0.0,0.0,0.0,0.0,0.0,0.0,0.0,0.0,0.0,0.0,0.0,0.0,0.0,0.0,0.0,0.0,0.0,0.0,7.8901,7.9568,7.8939,7.8859,7.955,7.8929,7.8532,7.8532,7.8564,7.8585,7.8585,7.8585,7.8448,7.824,7.8473,7.8269,7.7785,0.0,0.0,7.7512,7.729,7.7201,7.7201,7.7063,7.7097,7.7097,7.6373,7.6359,7.6496,7.4697,7.3833,7.3667,7.4552,7.4367,7.392,7.4441,7.4584,7.4669,7.5105,7.5215,7.518,7.5143,7.4866,7.4574,7.4546,7.4258,7.401,7.401,7.4151,7.4601,7.5552,7.6447,7.7333,7.8298,7.8199,7.8267,7.9065,7.8435,7.8234,7.9222,7.9536,7.974,7.9952,8.0319,8.0577,8.0514,8.084,8.0948,8.0704,8.0939,8.0316,7.8638,7.8551,7.8065,7.7004,7.7042,7.7178,7.7281,7.7178,7.7171,7.7287,7.7163,7.7171,5.1466,5.2608,5.3464,5.2531,5.2417,5.2281,5.1338,0.0,0.0,0.0,0.0,0.0,0.0,0.0,0.0,0.0,0.0,0.0,0.0,0.0,0.0,0.0,0.0,0.0,0.0,0.0,0.0,0.0,0.0,7.8655,7.876,7.8511,7.8405,7.851,7.8416,7.8346,7.8346,7.8525,7.8585,7.8585,7.8585,7.8364,7.7958,7.8229,7.7982,7.7323,0.0,7.7501,7.7256,7.7223,7.7201,7.7132,7.6511,7.6649,7.7097,7.6373,7.6239,7.6236,7.4633,7.367,7.3139,7.3459,7.3485,7.3532,7.4354,7.4584,7.4669,7.5105,7.5215,7.5143,7.4987,7.4772,7.4546,7.4383,7.4161,7.401,7.401,7.4151,7.4553,7.5393,7.5951,7.6529,7.7314,7.6734,7.6457,7.7217,7.705,7.7177,7.8199,7.8502,7.8707,7.8903,7.9301,7.9449,7.9302,8.0251,8.0676,8.0305,8.0622,8.0424,7.9459,7.8464,7.7908,7.7806,7.7334,7.7178,7.7281,7.7178,7.7116,7.7132,7.7116,7.7116,4.9659,5.0748,5.1689,5.0743,5.1569,5.2286,5.1009,0.0,0.0,0.0,0.0,0.0,0.0,0.0,0.0,0.0,0.0,0.0,0.0,0.0,0.0,0.0,0.0,0.0,0.0,0.0,0.0,0.0,0.0,0.0,7.8585,7.8409,7.8282,7.8282,7.8282,7.8282,7.8282,7.8515,7.8585,7.8585,7.8585,7.8417,7.8122,7.824,7.7917,7.7222,0.0,7.7379,7.702,7.7156,7.7201,7.7132,7.6373,7.6315,7.6499,7.5412,7.5016,7.4854,7.3864,7.3209,7.2859,7.2953,7.2984,7.3098,7.3727,7.3916,7.4008,7.4688,7.5024,7.5143,7.495,7.4744,7.4536,7.4354,7.4132,7.401,7.401,7.4151,7.4412,7.479,7.5861,7.6662,7.6636,7.6853,7.7152,7.7496,7.7389,7.7611,7.8554,7.8524,7.8491,7.8676,7.8962,7.9103,7.9013,8.0026,8.0622,8.0522,7.9765,7.9288,7.9141,7.7767,7.7114,7.7332,7.7093,7.7077,7.7281,7.7077,7.7006,7.71,7.6902,7.6918,4.8368,4.9338,5.0333,4.9812,5.1302,5.2548,5.1119,0.0,0.0,0.0,0.0,0.0,0.0,0.0,0.0,0.0,0.0,0.0,0.0,0.0,0.0,0.0,0.0,0.0,0.0,0.0,0.0,0.0,0.0,0.0,7.8585,7.8409,7.8282,7.8282,7.8282,7.8282,7.8282,7.8515,7.8585,7.8585,7.8585,7.8504,7.8282,7.8282,7.7939,7.7289,7.7557,7.7323,7.6816,7.7167,7.7223,7.703,7.6144,7.5729,7.5441,7.4612,7.4096,7.3748,7.333,7.2998,7.2755,7.2713,7.2723,7.2838,7.3201,7.3313,7.3476,7.4229,7.4735,7.5024,7.4931,7.4744,7.4536,7.4354,7.417,7.4079,7.4079,7.4258,7.4412,7.4325,7.5768,7.6816,7.6152,7.7037,7.7886,7.8073,7.7958,7.8191,7.9084,7.8787,7.8523,7.8686,7.8895,7.9062,7.9269,7.994,8.0436,8.0645,7.9195,7.8414,7.8615,7.7308,7.6716,7.7028,7.6887,7.6921,7.7165,7.6882,7.6846,7.6974,7.6737,7.6753,4.8904,4.9309,4.9651,5.0351,5.1318,0.0,5.1451,5.2442,0.0,0.0,0.0,0.0,0.0,0.0,0.0,0.0,0.0,0.0,0.0,0.0,0.0,0.0,0.0,0.0,0.0,0.0,0.0,0.0,0.0,0.0,7.8585,7.8409,7.8282,7.8282,7.8282,7.8282,7.8282,7.8515,7.8585,7.8585,7.8585,7.8504,7.8282,7.8282,7.8015,7.7476,7.7763,7.7478,7.6827,7.7357,7.729,7.6701,7.5458,7.4557,7.4026,7.4636,7.4395,7.3796,7.3772,7.3416,7.2953,7.2755,7.2828,7.3026,7.3242,7.3313,7.337,7.3841,7.4271,7.4678,7.4857,7.4744,7.4536,7.4354,7.4287,7.4277,7.4277,7.4584,7.4754,7.4374,7.5456,7.6307,7.5903,7.6479,7.7239,7.8002,7.8088,7.8361,7.9105,7.8879,7.8686,7.8705,7.8866,7.9308,8.0032,8.0,8.0036,8.0246,7.9434,7.8762,7.8457,7.7774,7.75,7.7729,7.7121,7.6809,7.6834,7.6676,7.663,7.6647,7.6614,7.6622,4.8428,4.8633,4.8971,5.0318,5.1104,0.0,0.0,5.3632,0.0,0.0,0.0,0.0,0.0,0.0,0.0,0.0,0.0,0.0,0.0,0.0,0.0,0.0,0.0,0.0,0.0,0.0,0.0,0.0,0.0,0.0,7.842,7.8186,7.8058,7.8058,7.8058,7.8133,7.8282,7.8515,7.8585,7.8585,7.8585,7.8543,7.8494,7.8346,7.7682,7.6643,7.7215,7.6514,7.5083,7.6014,7.6034,7.5339,7.455,7.3785,7.314,7.344,7.3371,7.3106,7.3106,7.2986,7.2797,7.2723,7.2744,7.2828,7.2901,7.2932,7.3015,7.3401,7.3642,7.3926,7.4412,7.4659,7.4707,7.4383,7.4393,7.445,7.4325,7.4517,7.4763,7.4945,7.5635,7.6264,7.6447,7.7142,7.7744,7.8037,7.8377,7.8685,7.8993,7.8266,7.7915,7.8277,7.807,7.8254,7.917,7.9203,7.9203,7.9248,7.865,7.8455,7.8936,7.7411,7.6887,7.7617,7.6986,7.6725,7.6793,7.666,7.6606,7.6597,7.6462,7.647,4.7766,4.7924,4.8518,0.0,0.0,0.0,5.358,5.5406,5.652,0.0,0.0,0.0,0.0,0.0,0.0,0.0,0.0,0.0,0.0,0.0,0.0,0.0,0.0,0.0,0.0,0.0,0.0,0.0,0.0,7.8525,7.8304,7.8197,7.8076,7.8047,7.8076,7.8194,7.8388,7.8364,7.8374,7.8364,7.8226,7.8311,7.8574,7.8045,7.7278,7.6337,7.6426,7.5534,7.4071,7.5068,7.5016,7.4316,7.3938,7.3347,7.2692,7.2692,7.2692,7.2692,7.2692,7.2734,7.2786,7.2713,7.2744,7.2786,7.2713,7.2692,7.2755,7.3036,7.3211,7.3425,7.3876,7.4364,7.465,7.4374,7.4498,7.4659,7.4527,7.465,7.4874,7.5093,7.5699,7.629,7.6508,7.739,7.8108,7.8108,7.8564,7.8881,7.8881,7.836,7.808,7.8363,7.7949,7.7871,7.8365,7.8587,7.8717,7.8694,7.8298,7.8325,7.8807,7.7208,7.6644,7.7376,7.6794,7.6553,7.6639,7.6553,7.6531,7.6487,7.637,7.6378,4.6969,4.7403,0.0,0.0,0.0,0.0,0.0,5.7824,5.8618,0.0,0.0,0.0,0.0,0.0,0.0,0.0,0.0,0.0,0.0,0.0,0.0,0.0,0.0,0.0,0.0,0.0,7.862,7.862,7.8585,7.8525,7.8293,7.8494,7.8504,7.8282,7.8494,7.8574,7.8574,7.8119,7.7882,7.7882,7.7388,7.7663,7.8529,7.7338,7.6787,7.6686,7.5438,7.4603,7.4216,7.4693,7.444,7.3785,7.3785,7.3347,7.2692,7.2692,7.2692,7.2692,7.2692,7.2828,7.2963,7.2765,7.2838,7.2963,7.2755,7.2692,7.2692,7.2692,7.2995,7.3303,7.3313,7.3807,7.4296,7.4296,7.4612,7.4903,7.4903,7.5051,7.5061,7.4704,7.5562,7.6245,7.5883,7.7081,7.8073,7.8108,7.8529,7.8881,7.8891,7.9281,7.9441,7.9024,7.8796,7.8443,7.7818,7.8332,7.8659,7.8689,7.8715,7.8424,7.7841,7.7254,7.7019,7.7213,7.6616,7.632,7.632,7.632,7.632,7.632,7.6284,7.6284,4.6994,4.7804,0.0,0.0,0.0,0.0,0.0,5.8294,0.0,0.0,0.0,0.0,0.0,0.0,0.0,0.0,0.0,0.0,0.0,0.0,0.0,0.0,0.0,0.0,7.9427,7.9427,7.9427,7.9427,7.8901,7.8343,7.7774,7.7807,7.763,7.7267,7.7299,7.7421,7.7621,7.7489,7.7212,7.6845,7.6703,7.6714,7.6834,7.6461,7.553,7.4203,7.4335,7.3546,7.2202,7.2656,7.2802,7.2747,7.2962,7.2899,7.2692,7.2692,7.2692,7.2692,7.2692,7.2734,7.2776,7.2713,7.2734,7.2776,7.2713,7.2692,7.2692,7.2692,7.2786,7.2911,7.3057,7.3354,7.3687,7.3994,7.4383,7.4688,7.4688,7.4847,7.509,7.5314,7.5378,7.5624,7.6438,7.647,7.6788,7.7931,7.7626,7.7384,7.7681,7.8179,7.8153,7.7082,7.674,7.6607,7.6615,7.6763,7.7153,7.7813,7.8384,7.8857,7.9262,7.8293,7.7973,7.8465,7.8008,7.7778,7.7778,7.72,7.7016,7.7117,7.6573,7.6284,4.6895,0.0,0.0,0.0,0.0,0.0,0.0,0.0,0.0,0.0,0.0,0.0,0.0,0.0,0.0,0.0,0.0,0.0,0.0,0.0,7.8031,7.895,7.9217,7.9462,7.9778,7.9497,7.9248,7.9056,7.8591,7.8012,7.7255,7.731,7.7188,7.6805,7.6895,7.7144,7.7478,7.73,7.7036,7.6709,7.6211,7.5646,7.5081,7.5061,7.4355,7.3113,7.306,7.2417,7.1446,7.1832,7.2115,7.2341,7.2597,7.2692,7.2692,7.2692,7.2692,7.2692,7.2692,7.2692,7.2692,7.2692,7.2692,7.2692,7.2692,7.2692,7.2692,7.2692,7.2692,7.2723,7.2849,7.2974,7.3201,7.3727,7.4102,7.4364,7.446,7.4574,7.4773,7.5064,7.499,7.5122,7.5861,7.589,7.6132,7.702,7.6779,7.6604,7.6914,7.7293,7.7136,7.6147,7.5887,7.5737,7.5748,7.5949,7.6369,7.7035,7.7854,7.8688,7.9525,7.8921,7.8745,7.9091,7.8729,7.8492,7.8412,7.7986,7.7684,7.747,7.7008,7.661,4.6761,0.0,0.0,0.0,0.0,0.0,0.0,0.0,0.0,0.0,0.0,0.0,0.0,0.0,0.0,0.0,0.0,0.0,0.0,0.0,7.8823,7.9603,7.9111,7.895,7.9574,7.9013,7.8413,7.7893,7.7839,7.7544,7.6827,7.702,7.702,7.6702,7.6952,7.7278,7.7698,7.722,7.6961,7.6891,7.5663,7.4514,7.34,7.3408,7.3209,7.2853,7.1773,7.139,7.1589,7.1887,7.2094,7.2277,7.2575,7.2681,7.266,7.2681,7.2681,7.266,7.2692,7.2681,7.266,7.2692,7.2692,7.2692,7.2692,7.2692,7.2692,7.2692,7.2692,7.2692,7.2692,7.2692,7.2849,7.3401,7.3712,7.3959,7.4219,7.4287,7.4306,7.4306,7.4612,7.481,7.4603,7.5293,7.5811,7.5584,7.601,7.6368,7.6528,7.6544,7.6381,7.601,7.5765,7.5513,7.5179,7.5636,7.6073,7.6312,7.7207,7.8043,7.8785,7.9059,7.9285,7.942,7.8989,7.8733,7.8629,7.8733,7.8431,7.7724,7.7651,7.7189,0.0,4.9196,0.0,0.0,0.0,0.0,0.0,0.0,0.0,0.0,0.0,0.0,0.0,0.0,0.0,0.0,0.0,0.0,0.0,0.0,0.0,7.8788,7.9252,7.9219,7.839,7.8683,7.8529,7.7656,7.7456,7.72,7.6816,7.6702,7.6426,7.5936,7.5983,7.6054,7.6159,7.551,7.507,7.4819,7.3977,7.3225,7.2562,7.2608,7.2304,7.1683,7.1413,7.1323,7.1412,7.181,7.1909,7.1809,7.2459,7.2565,7.2416,7.2618,7.2565,7.2427,7.2628,7.2565,7.2427,7.2628,7.2692,7.2692,7.2692,7.2692,7.2692,7.2692,7.2692,7.2692,7.2692,7.2692,7.2734,7.287,7.3289,7.3742,7.3994,7.418,7.4306,7.4306,7.4498,7.4593,7.4402,7.4668,7.4832,7.464,7.5697,7.6387,7.6003,7.5966,7.5882,7.561,7.5033,7.4649,7.4702,7.4846,7.514,7.568,7.6498,7.7056,7.7326,7.8153,7.9107,8.0211,7.9684,7.972,8.0289,7.9675,7.9421,7.939,7.8738,7.8014,0.0,0.0,0.0,0.0,0.0,0.0,0.0,0.0,0.0,0.0,0.0,0.0,0.0,0.0,0.0,0.0,0.0,0.0,0.0,0.0,0.0,7.908,7.9217,7.9002,7.847,7.8124,7.7676,7.7065,7.6586,7.612,7.5776,7.5659,7.5303,7.4684,7.4639,7.4744,7.4988,7.481,7.465,7.4362,7.385,7.3084,7.2148,7.2197,7.193,7.1446,7.1446,7.1379,7.1323,7.1667,7.1721,7.1655,7.2169,7.2277,7.2169,7.2309,7.2277,7.218,7.2309,7.2341,7.232,7.2352,7.2427,7.2512,7.2512,7.2512,7.2533,7.266,7.2692,7.2692,7.2692,7.2692,7.2692,7.2692,7.2991,7.337,7.3617,7.3846,7.4034,7.4132,7.4316,7.4422,7.4325,7.4383,7.4422,7.4316,7.4914,7.5236,7.4966,7.4943,7.4894,7.4779,7.4424,7.4268,7.4553,7.4604,7.4817,7.5322,7.5917,7.6479,7.6884,7.7224,7.7982,7.9192,7.9558,7.9874,8.0089,8.0235,8.0189,7.9888,7.9462,7.8847,0.0,0.0,0.0,0.0,0.0,0.0,0.0,0.0,0.0,0.0,0.0,0.0,0.0,0.0,0.0,0.0,0.0,0.0,0.0,7.814,7.8539,7.9206,7.8606,7.8217,7.841,7.7368,7.6523,7.6267,7.5583,7.5013,7.4709,7.4503,7.4119,7.3522,7.3488,7.3695,7.4093,7.4347,7.4422,7.4335,7.3968,7.3182,7.2039,7.2007,7.1887,7.1666,7.1622,7.1523,7.1379,7.1523,7.1578,7.1567,7.1876,7.1963,7.1931,7.1974,7.1963,7.1942,7.1974,7.2083,7.2169,7.2039,7.2115,7.2266,7.2298,7.2309,7.2363,7.2618,7.2692,7.2692,7.2692,7.2692,7.2681,7.2639,7.2828,7.3067,7.3273,7.3446,7.3637,7.3911,7.4073,7.4209,7.4238,7.4248,7.4258,7.4296,7.4112,7.402,7.4034,7.403,7.401,7.401,7.401,7.4147,7.4575,7.4601,7.4774,7.5224,7.5582,7.6057,7.6664,7.6464,7.6658,7.7432,7.8809,7.9385,7.9188,8.0216,8.0414,7.9844,7.9871,7.9517,0.0,0.0,0.0,0.0,0.0,0.0,0.0,0.0,0.0,0.0,0.0,0.0,0.0,0.0,0.0,7.4027,7.5131,7.5785,7.5376,7.6304,7.7095,7.72,7.6706,7.631,7.6136,7.611,7.5852,7.5263,7.4883,7.4757,7.4954,7.4112,7.359,7.3488,7.3488,7.3523,7.3592,7.3039,7.2926,7.3305,7.2768,7.2421,7.2266,7.2072,7.1974,7.1931,7.1688,7.1578,7.1556,7.1589,7.1512,7.139,7.181,7.1865,7.1677,7.1909,7.1865,7.1677,7.192,7.1876,7.1721,7.1931,7.2007,7.2072,7.2256,7.2309,7.2363,7.2618,7.2692,7.2692,7.2692,7.2692,7.2639,7.2416,7.2692,7.3067,7.3273,7.3201,7.3221,7.3672,7.3772,7.3852,7.402,7.4049,7.4118,7.4277,7.4112,7.4053,7.4226,7.4122,7.401,7.401,7.401,7.4164,7.4564,7.4615,7.4855,7.543,7.5665,7.5836,7.5932,7.618,7.6223,7.6055,7.7216,7.8141,7.8777,7.8929,7.923,7.9639,7.9818,7.9764,4.8799,5.2758,5.6879,0.0,0.0,0.0,0.0,0.0,0.0,0.0,0.0,0.0,0.0,7.2677,7.3952,7.4272,7.4947,7.5468,7.545,7.5986,7.6475,7.6766,7.6073,7.5796,7.6277,7.5658,7.517,7.5001,7.4522,7.4069,7.3731,7.3174,7.2699,7.2293,7.2259,7.2259,7.2259,7.2225,7.2355,7.2649,7.2319,7.2126,7.2126,7.2029,7.192,7.1788,7.1655,7.1523,7.1434,7.1434,7.1367,7.1323,7.1535,7.1557,7.1446,7.1546,7.1523,7.1446,7.158,7.1612,7.16,7.1601,7.18,7.1985,7.1918,7.2081,7.2309,7.2309,7.2384,7.248,7.248,7.2395,7.2309,7.2309,7.2373,7.2501,7.2713,7.2984,7.3242,7.3435,7.3476,7.3547,7.3802,7.4004,7.419,7.4287,7.4219,7.4209,7.4293,7.4106,7.401,7.401,7.401,7.4135,7.4405,7.4815,7.5284,7.579,7.6394,7.6643,7.642,7.666,7.6573,7.6078,7.7021,7.76,7.7858,7.8432,7.8839,7.9086,7.9201,7.9193,0.0,0.0,5.5567,5.8951,6.0737,6.214,0.0,0.0,0.0,0.0,6.9036,7.0692,7.1402,7.2534,7.3632,7.4401,7.4813,7.5108,7.5391,7.5662,7.598,7.6378,7.5767,7.5524,7.6119,7.5237,7.4534,7.4353,7.3809,7.3277,7.2644,7.2316,7.1875,7.1334,7.13,7.13,7.13,7.1689,7.1985,7.2103,7.1974,7.1898,7.1898,7.1832,7.1711,7.1512,7.1578,7.1501,7.1356,7.1323,7.13,7.13,7.13,7.13,7.13,7.13,7.13,7.13,7.13,7.139,7.1512,7.1356,7.1546,7.1788,7.1633,7.1842,7.2126,7.2018,7.2105,7.2234,7.2234,7.2105,7.2018,7.2081,7.2105,7.2105,7.2202,7.2809,7.3254,7.3029,7.3216,7.342,7.343,7.3827,7.418,7.4287,7.4434,7.4479,7.4383,7.4327,7.4221,7.401,7.401,7.4145,7.453,7.5089,7.5657,7.626,7.7096,7.7432,7.7151,7.7208,7.7045,7.6615,7.698,7.7112,7.6975,7.7728,7.8169,7.8307,7.835,7.8495,0.0,5.1436,0.0,5.5916,5.8111,0.0,0.0,0.0,0.0,0.0,7.0329,7.1447,7.2026,7.2375,7.2838,7.3642,7.4342,7.4576,7.3922,7.4695,7.5359,7.5382,7.5337,7.5068,7.45,7.4543,7.4034,7.2632,7.2518,7.2451,7.2417,7.1751,7.1334,7.13,7.13,7.13,7.13,7.1523,7.1633,7.1644,7.1633,7.1622,7.1611,7.1412,7.1334,7.1334,7.1501,7.16,7.1567,7.139,7.13,7.13,7.13,7.13,7.13,7.13,7.13,7.13,7.13,7.1312,7.1312,7.13,7.1312,7.1379,7.1534,7.1622,7.1688,7.1931,7.1996,7.2007,7.2007,7.1996,7.1942,7.1688,7.1962,7.2245,7.205,7.2739,7.3133,7.2241,7.299,7.3554,7.2882,7.3293,7.3846,7.4248,7.473,7.4946,7.464,7.4839,7.4757,7.408,7.401,7.436,7.5266,7.5378,7.583,7.6817,7.7428,7.7773,7.7731,7.7567,7.7458,7.7458,7.6733,7.6348,7.6339,7.6384,7.6734,7.7275,7.7466,7.7883,0.0,0.0,0.0,5.4724,5.6771,5.8821,6.1433,6.3885,6.5853,6.6765,6.8915,7.0758,7.1345,7.2445,7.3263,7.3258,7.3841,7.4082,7.3521,7.4208,7.467,7.436,7.4059,7.3926,7.4026,7.3662,7.3197,7.2632,7.2632,7.244,7.192,7.1526,7.13,7.13,7.13,7.13,7.13,7.1356,7.1401,7.1401,7.1401,7.1401,7.1401,7.1334,7.13,7.13,7.139,7.1401,7.139,7.1334,7.13,7.13,7.13,7.13,7.13,7.13,7.13,7.13,7.13,7.13,7.13,7.13,7.1401,7.149,7.1423,7.1612,7.1821,7.1624,7.1634,7.1732,7.1732,7.1645,7.1613,7.181,7.1996,7.2126,7.218,7.2461,7.2596,7.2247,7.306,7.3557,7.2816,7.3656,7.4331,7.4139,7.4666,7.5078,7.5091,7.5554,7.5559,7.4806,7.47,7.4827,7.5164,7.5678,7.6413,7.7391,7.8119,7.8512,7.8554,7.8504,7.8415,7.8255,7.7491,7.6823,7.6284,7.6284,7.6395,7.6616,7.6684,7.6865,4.7143,0.0,0.0,0.0,0.0,5.6911,6.0094,0.0,6.4742,6.6088,6.8157,7.0052,7.1196,7.2375,7.3187,7.3125,7.3537,7.3777,7.3476,7.4061,7.4393,7.4075,7.3843,7.3679,7.3628,7.3141,7.2643,7.2248,7.227,0.0,7.1512,7.1356,7.13,7.13,7.13,7.13,7.13,7.1064,7.1064,7.13,7.1064,7.1064,7.13,7.13,7.13,7.13,7.13,7.13,7.13,7.13,7.13,7.13,7.13,7.13,7.13,7.13,7.13,7.13,7.13,7.13,7.13,7.13,7.1379,7.1479,7.1345,7.1524,7.1712,7.139,7.1412,7.1512,7.1512,7.1446,7.149,7.1898,7.2063,7.2171,7.2384,7.2416,7.2447,7.2568,7.3247,7.3731,7.3402,7.3954,7.4479,7.4515,7.5037,7.5484,7.567,7.6257,7.6358,7.5575,7.5499,7.5624,7.5966,7.6487,7.7135,7.7848,7.8482,7.8715,7.8526,7.8359,7.8251,7.8096,7.7341,7.6664,7.6134,7.6261,7.6284,7.6284,7.6284,7.6284,0.0,0.0,0.0,0.0,0.0,0.0,5.8849,6.0877,6.2988,6.6969,6.8324,6.948,7.1723,7.214,7.2419,7.3129,7.3506,7.3702,7.3692,7.4153,7.4486,7.4451,7.4698,7.4394,7.3168,7.289,7.2338,7.1368,7.13,7.13,7.13,7.13,7.13,7.13,7.13,7.13,7.13,7.0601,7.0601,7.13,7.0567,7.0601,7.13,7.13,7.13,7.13,7.13,7.13,7.13,7.13,7.13,7.13,7.13,7.13,7.13,7.13,7.13,7.13,7.13,7.13,7.13,7.13,7.13,7.13,7.13,7.13,7.13,7.13,7.13,7.13,7.1312,7.1457,7.1666,7.1942,7.216,7.2399,7.2628,7.2685,7.2755,7.3045,7.3561,7.4048,7.4529,7.4175,7.4213,7.5409,7.5791,7.6051,7.6171,7.6903,7.7153,7.6384,7.6336,7.6735,7.772,7.7792,7.7893,7.8098,7.8451,7.834,7.7533,7.7128,7.6922,7.6931,7.6204,7.5819,7.5816,7.6125,7.6275,7.6303,7.6275,7.6275,4.6102,0.0,0.0,0.0,0.0,0.0,5.6489,5.9174,6.1727,6.4759,6.7199,6.9094,7.0119,7.0903,7.1589,7.2192,7.2935,7.3364,7.3211,7.3788,7.3972,7.3271,7.3607,7.3487,7.2394,7.2095,7.1827,0.0,7.1367,7.13,7.13,7.13,7.13,7.13,7.13,7.13,7.13,7.1097,7.1097,7.13,7.1097,7.1097,7.13,7.13,7.13,7.13,7.13,7.13,7.13,7.13,7.13,7.13,7.13,7.13,7.13,7.13,7.13,7.13,7.13,7.13,7.13,7.13,7.13,7.13,7.13,7.13,7.13,7.13,7.13,7.1334,7.149,7.1679,7.1946,7.2148,7.2395,7.2621,7.2671,7.2434,7.2426,7.3241,7.3927,7.4407,7.4311,7.4483,7.4708,7.5054,7.546,7.579,7.5949,7.7325,7.7743,7.6454,7.678,7.7292,7.7757,7.7803,7.7888,7.8102,7.8199,7.8034,7.7535,7.7394,7.7474,7.7748,7.6984,7.6607,7.658,7.6253,7.6086,7.608,7.6094,7.6151,4.5822,4.6312,4.7017,4.8416,0.0,0.0,5.5144,5.7923,6.0526,6.3241,6.5642,6.751,6.846,6.9302,7.0085,7.0808,7.159,7.2314,7.3025,7.3233,7.3057,7.2434,7.2273,7.1937,7.1257,7.1226,7.1266,7.1266,7.107,7.0792,7.0387,7.0387,7.0522,7.0838,7.0522,7.0692,7.1289,7.0692,7.0692,7.13,7.0996,7.0838,7.0838,7.1165,7.0962,7.0387,7.0692,7.0669,7.0376,7.0253,7.0389,7.0681,7.0681,7.0681,7.0715,7.1008,7.121,7.13,7.13,7.13,7.13,7.13,7.13,7.13,7.13,7.1097,7.0906,7.1199,7.1368,7.1457,7.1567,7.1866,7.214,7.2266,7.2512,7.2692,7.2692,7.2392,7.2416,7.3445,7.3989,7.4439,7.4927,7.5012,7.5265,7.5794,7.5896,7.6127,7.6678,7.7821,7.8276,7.7363,7.7628,7.799,7.8225,7.8352,7.8352,7.8227,7.7996,7.7618,7.7071,7.6723,7.6647,7.6876,7.6445,7.6212,7.6329,7.6042,7.5933,7.5914,7.5912,7.5963,4.5645,4.6155,4.6756,0.0,0.0,0.0,5.4319,5.6835,5.9318,6.2205,6.3843,6.5232,6.6853,6.7461,6.8059,6.907,6.9683,7.0709,7.2715,7.2418,7.194,7.1758,7.0941,7.0323,7.0141,7.0494,7.0742,7.074,7.0549,7.0028,6.9157,6.9113,6.9383,7.0071,6.9451,6.9722,7.103,6.9744,6.9744,7.1064,7.0398,7.0071,7.0105,7.0759,7.0353,6.9147,6.98,6.9677,6.9024,6.8704,6.902,6.9682,6.9648,6.9637,6.9749,7.0489,7.0928,7.1132,7.1244,7.1278,7.1267,7.1188,7.1165,7.1165,7.1097,7.0669,7.0342,7.1097,7.1446,7.1611,7.1644,7.194,7.2277,7.2341,7.2501,7.2649,7.2692,7.2493,7.256,7.3458,7.3821,7.441,7.5741,7.5609,7.5754,7.6894,7.6696,7.6723,7.7637,7.8237,7.8585,7.8493,7.8539,7.8678,7.886,7.9099,7.8912,7.8306,7.7797,7.7116,7.6295,7.5581,7.5215,7.5215,7.5215,7.5271,7.5451,7.5656,7.5774,7.5806,7.579,7.5773,0.0,0.0,0.0,0.0,0.0,0.0,5.2988,5.5524,5.8016,6.1015,6.2336,6.363,6.578,6.5742,6.5676,6.6689,6.7298,6.8433,7.0655,7.0848,7.0724,7.0683,7.0504,7.0384,7.0343,7.0299,7.0295,7.0461,7.0072,6.9635,6.9134,6.9113,6.918,6.9316,6.918,6.9248,6.9519,6.9248,6.9237,6.9519,6.9383,6.9316,6.9316,6.9451,6.9383,6.9113,6.9248,6.9116,6.8715,6.8088,6.8245,6.8908,6.8752,6.8674,6.8764,6.9682,6.9962,6.9995,7.0974,7.1165,7.0906,7.0546,7.0398,7.0297,6.9722,6.9823,7.0342,7.1097,7.1446,7.1644,7.1876,7.1988,7.2142,7.2546,7.2504,7.2429,7.2639,7.248,7.2343,7.2545,7.3624,7.4624,7.514,7.5458,7.5789,7.6237,7.6368,7.6469,7.6663,7.7814,7.8367,7.7716,7.8196,7.8678,7.886,7.9099,7.8699,7.7505,7.7466,7.6866,7.551,7.5287,7.5215,7.5215,7.5215,7.5207,7.5244,7.5458,7.5648,7.5821,7.5621,7.5648,0.0,0.0,0.0,4.6482,0.0,0.0,0.0,5.3829,5.6418,5.8607,6.0039,6.1344,6.2799,6.3022,6.3291,6.4205,6.4882,6.5713,6.6851,6.83,6.9404,6.9784,6.9508,6.9266,6.9266,6.95,6.972,6.9788,6.9389,6.8908,6.8347,6.808,6.8132,6.8504,6.8121,6.8324,6.9079,6.8707,6.8707,6.9113,6.9113,6.8876,6.8504,6.891,6.8673,6.7986,6.825,6.8074,6.7539,6.6941,6.6921,6.7278,6.7558,6.7647,6.7814,6.9155,6.9602,6.9657,7.0726,7.0927,7.0622,7.0142,6.9917,6.9771,6.925,6.9631,7.0274,7.0635,7.0903,7.1213,7.1828,7.18,7.178,7.2528,7.261,7.2536,7.266,7.2597,7.2437,7.2202,7.3181,7.4062,7.4047,7.4753,7.5571,7.6165,7.6545,7.6966,7.7442,7.8147,7.8458,7.8024,7.8367,7.8637,7.8741,7.8685,7.835,7.7679,7.7196,7.6581,7.5831,7.5394,7.5215,7.5215,7.5215,7.5234,7.5334,7.5351,7.5433,7.5636,7.555,7.555,0.0,0.0,0.0,0.0,0.0,4.802,0.0,0.0,0.0,5.5989,5.7321,0.0,0.0,0.0,0.0,6.1012,0.0,0.0,0.0,6.5186,0.0,6.83,6.799,6.7689,6.7718,6.8359,6.8818,6.8833,6.8439,6.7884,6.7221,6.6943,6.7056,6.7582,6.7165,6.7506,6.8639,6.7996,6.7996,6.8673,6.8673,6.8335,6.7726,6.8315,6.7921,6.6751,6.7145,6.6959,6.6335,6.5944,6.5758,6.578,6.6379,6.6612,6.6812,6.845,6.9108,6.9264,7.032,7.0576,7.0347,6.9771,6.9312,6.8998,6.9071,6.9428,6.9834,7.0105,7.0258,7.0576,7.1532,7.1484,7.1443,7.2467,7.2649,7.2652,7.2681,7.2692,7.2554,7.2083,7.2661,7.3174,7.3001,7.398,7.5025,7.5732,7.6457,7.7185,7.7926,7.8293,7.8469,7.8557,7.8546,7.8497,7.8363,7.8185,7.7932,7.7638,7.6816,7.6294,7.6152,7.5546,7.5215,7.5215,7.5215,7.528,7.5487,7.528,7.5289,7.5496,7.5451,7.5451,0.0,0.0,0.0,0.0,4.7891,0.0,0.0,0.0,5.3442,5.4025,0.0,0.0,0.0,0.0,0.0,0.0,0.0,0.0,5.9521,6.1599,6.3643,6.5058,6.5782,6.6194,6.6302,6.6719,6.7132,6.7502,6.6964,6.6463,6.6021,6.6558,6.675,6.6506,6.7087,6.7311,6.7072,6.6971,6.6971,6.7072,6.7072,6.7005,6.6927,6.6826,6.6697,6.6518,6.6337,6.612,6.5867,6.5813,6.5658,6.5448,6.5558,6.5591,6.5702,6.699,6.7624,6.8017,6.9446,7.0048,7.006,6.9144,6.8063,6.7347,6.8685,6.8673,6.8436,6.9834,6.9993,6.9985,7.0813,7.1121,7.1457,7.2467,7.2514,7.2431,7.2628,7.2692,7.2554,7.2083,7.2075,7.2228,7.2451,7.3334,7.3968,7.3854,7.5003,7.591,7.6023,7.7161,7.8055,7.8304,7.8317,7.8136,7.7585,7.7704,7.7319,7.6061,7.6079,7.5886,7.5349,7.5251,7.5215,7.5215,7.5215,7.528,7.5487,7.528,7.5288,7.5485,7.5306,7.5216,0.0,0.0,0.0,0.0,0.0,0.0,0.0,0.0,5.1595,0.0,0.0,0.0,0.0,0.0,0.0,0.0,5.5426,0.0,0.0,0.0,5.9875,6.36,0.0,0.0,6.4929,6.5102,6.5506,6.627,6.5641,6.5397,6.5788,6.6279,6.6374,6.595,6.6977,6.726,6.6802,6.6802,6.6802,6.6802,6.6802,6.6802,6.6791,6.6707,6.6613,6.6485,6.6237,6.6009,6.578,6.5636,6.5503,6.5414,6.5414,6.5414,6.5536,6.6745,6.7379,6.7769,6.9119,6.9752,6.9767,6.8489,6.7602,6.7116,6.7668,6.7788,6.7938,6.9028,6.9359,6.9594,7.0612,7.0956,7.1298,7.2435,7.2597,7.2568,7.2671,7.2692,7.2597,7.2245,7.2072,7.1989,7.1953,7.2542,7.3108,7.34,7.4385,7.537,7.6223,7.6897,7.7529,7.8216,7.7872,7.7562,7.7402,7.6801,7.6161,7.5558,7.5461,7.5333,7.5215,7.5215,7.5215,7.5215,7.5215,7.528,7.5487,7.5171,7.5124,7.5314,7.5352,7.5379,4.5398,0.0,0.0,0.0,0.0,0.0,0.0,0.0,0.0,0.0,0.0,0.0,0.0,0.0,5.1702,5.2043,0.0,5.3378,0.0,5.4253,0.0,0.0,0.0,0.0,0.0,6.3354,6.3948,6.4673,6.4238,6.4286,6.5149,6.5572,6.5774,6.5725,6.6802,6.7179,6.6802,6.6928,6.6928,6.6802,6.6802,6.6802,6.6802,6.6739,6.659,6.6389,6.614,6.5878,6.567,6.5492,6.5414,6.5414,6.5414,6.5414,6.5525,6.6479,6.7023,6.7414,6.8392,6.8978,6.9142,6.8057,6.7478,6.7178,6.7101,6.7177,6.7505,6.8524,6.8834,6.9195,7.0556,7.0954,7.1272,7.2445,7.2692,7.2692,7.2692,7.2692,7.2597,7.2288,7.1923,7.1749,7.1894,7.1852,7.2112,7.2976,7.3574,7.4431,7.5896,7.6186,7.6627,7.7484,7.7044,7.6726,7.6765,7.589,7.5245,7.5123,7.4933,7.4877,7.5024,7.5096,7.5133,7.5107,7.5133,7.5225,7.5406,7.5014,7.4922,7.5107,7.5208,7.5262,0.0,0.0,0.0,4.7331,0.0,0.0,0.0,0.0,4.9195,0.0,0.0,0.0,0.0,0.0,4.802,4.7333,4.9967,0.0,0.0,0.0,0.0,0.0,0.0,0.0,0.0,6.1458,6.2451,0.0,6.2662,6.3022,6.3636,6.4183,6.4883,6.5775,6.6596,6.6934,6.6802,6.7239,6.7239,6.6802,6.6802,6.6802,6.6791,6.6603,6.6355,6.6095,6.59,6.5658,6.5425,6.5414,6.5414,6.5414,6.5414,6.5414,6.5448,6.5736,6.6135,6.6574,6.6867,6.7434,6.8055,6.7988,6.7624,6.7233,6.7497,6.7102,6.6876,6.8597,6.8733,6.874,7.0452,7.106,7.1429,7.245,7.2692,7.2692,7.2692,7.2692,7.2554,7.2094,7.1449,7.1305,7.2551,7.14,7.0759,7.2225,7.2211,7.2622,7.4091,7.4684,7.5155,7.5624,7.5641,7.5516,7.5184,7.5132,7.4888,7.4367,7.4496,7.4628,7.4612,7.4799,7.4901,7.4913,7.4901,7.4994,7.5225,7.4801,7.4707,7.4913,7.4731,7.4628,0.0,0.0,4.9604,4.921,0.0,0.0,0.0,0.0,0.0,0.0,0.0,0.0,0.0,4.721,4.7145,4.69,4.7899,4.8553,0.0,4.9136,5.0188,0.0,0.0,0.0,0.0,0.0,0.0,6.0211,6.0606,6.1578,6.3434,6.3974,6.4517,6.5173,6.6481,6.7093,6.688,6.7307,6.7404,6.725,6.6938,6.6802,6.6802,6.6717,6.6484,6.6095,6.602,6.5757,6.5414,6.5414,6.5414,6.5414,6.5414,6.5414,6.5437,6.5692,6.6091,6.6574,6.7162,6.7516,6.7649,6.7163,6.6876,6.6701,6.6489,6.6221,6.6298,6.751,6.8188,6.8876,7.0262,7.1176,7.1897,7.2549,7.2104,7.1535,7.1671,7.1184,7.0683,7.0569,7.0311,7.0202,7.0509,6.9964,7.0194,7.2327,7.2852,7.3128,7.3419,7.3872,7.4503,7.5324,7.5063,7.4871,7.4888,7.4572,7.4358,7.4287,7.4367,7.4463,7.4584,7.4676,7.4714,7.4697,7.4714,7.4742,7.4791,7.4527,7.4441,7.4508,7.429,7.4335,4.963,5.0675,0.0,5.1438,5.2239,0.0,5.1302,0.0,0.0,0.0,0.0,0.0,0.0,0.0,4.6413,4.6413,4.6518,4.6595,0.0,4.6865,4.727,0.0,0.0,0.0,0.0,0.0,5.6192,5.8126,5.8616,6.0017,6.2639,6.3289,6.3912,6.4645,6.5863,6.6434,6.6298,6.6556,6.6721,6.6841,6.6542,6.6531,6.6802,6.6717,6.6484,6.6095,6.602,6.5791,6.5414,6.5414,6.5414,6.5414,6.5414,6.5414,6.5425,6.5592,6.5846,6.6198,6.696,6.7224,6.7125,6.6662,6.6564,6.6533,6.5969,6.5846,6.6078,6.6956,6.7679,6.8537,7.0089,7.0806,7.1284,7.2083,7.1496,7.0747,7.089,7.035,6.9816,6.9772,6.9462,6.9322,6.9716,6.9453,6.9909,7.1954,7.2432,7.2674,7.2911,7.32,7.3666,7.4314,7.4132,7.4096,7.4392,7.4176,7.4069,7.418,7.418,7.4238,7.4364,7.4454,7.4502,7.4472,7.4502,7.4502,7.4482,7.4296,7.418,7.418,7.4069,7.4153]},{"header":{"parameterUnit":"m.s-1","parameterCategory":1,"la1":30.6,"la2":29.2853,"lo1":-89.7004,"lo2":-87.6739,"dy":0.0162,"dx":0.0183,"nx":112,"ny":82,"refTime":"2024-05-09T12:00:00:Z","depth":0,"parameterNumber":3,"parameterNumberName":"V-component_of_WINDS"},"data":[0.0,0.0,0.0,0.0,0.0,0.0,0.0,0.0,0.0,0.0,0.0,0.0,0.0,0.0,0.0,0.0,0.0,0.0,0.0,0.0,0.0,0.0,0.0,0.0,0.0,0.0,0.0,0.0,0.0,0.0,0.0,0.0,0.0,0.0,0.0,0.0,0.0,0.0,0.0,0.0,0.0,0.0,0.0,0.0,0.0,0.0,0.0,0.0,0.0,0.0,0.0,0.0,0.0,0.0,0.0,0.0,0.0,0.0,0.0,0.0,0.0,0.0,0.0,0.0,0.0,0.0,0.0,0.0,0.0,0.0,0.0,0.0,0.0,0.0,0.0,0.0,0.0,0.0,0.0,0.0,0.0,0.0,0.0,0.0,0.0,0.0,0.0,0.0,0.0,0.0,0.0,1.2271,1.4572,1.5426,1.3888,1.4319,1.366,1.1294,0.0,0.0,0.0,0.0,0.0,0.0,0.0,0.0,0.0,0.0,0.0,0.0,0.0,0.0,0.0,0.0,0.0,0.0,0.0,0.0,0.0,0.0,0.0,0.0,0.0,0.0,0.0,0.0,0.0,0.0,0.0,0.0,0.0,0.0,0.0,0.0,0.0,0.0,0.0,0.0,0.0,0.0,0.0,0.0,0.0,0.0,0.0,0.0,0.0,0.0,0.0,0.0,0.0,0.0,0.0,0.0,0.0,0.0,0.0,0.0,0.0,0.0,0.0,0.0,0.0,0.0,0.0,0.0,0.0,0.0,0.0,0.0,0.0,0.0,0.0,0.0,0.0,0.0,0.0,0.0,0.0,0.0,0.0,0.0,0.0,0.0,0.0,0.0,0.0,0.0,0.0,0.0,0.0,0.0,0.0,0.0,0.0,0.0,0.0,0.0,0.0,0.0,0.0,0.0,1.2173,1.4818,1.6044,1.6175,1.4964,1.4708,1.3934,1.2354,0.0,0.0,0.0,0.0,0.0,0.0,0.0,0.0,0.0,0.0,0.0,0.0,0.0,0.0,0.0,0.0,0.0,0.0,0.0,0.0,0.0,0.0,0.0,0.0,0.0,0.0,0.0,0.0,0.0,0.0,0.0,0.0,0.0,0.0,0.0,0.0,0.0,0.0,0.0,0.0,0.0,0.0,0.0,0.0,0.0,0.0,0.0,0.0,0.0,0.0,0.0,0.0,0.0,0.0,0.0,0.0,0.0,0.0,0.0,0.0,0.0,0.0,0.0,0.0,0.0,0.0,0.0,0.0,0.0,0.0,0.0,0.0,0.0,0.0,0.0,0.0,0.0,0.0,0.0,0.0,0.0,0.0,0.0,0.0,0.0,0.0,0.0,0.0,0.0,0.0,0.0,0.0,0.0,0.0,0.0,0.0,0.0,0.0,0.0,0.0,0.0,0.0,0.0,1.1685,1.3432,1.6072,1.6728,1.6591,1.5668,1.4956,1.3843,1.2227,1.1389,0.0,0.0,0.0,0.0,0.0,0.0,0.0,0.0,0.0,0.0,0.0,0.0,0.0,0.0,0.0,0.0,0.0,0.0,0.0,0.0,0.0,0.0,0.0,0.0,0.0,0.0,0.0,0.0,0.0,0.0,0.0,0.0,0.0,0.0,0.0,0.0,0.0,0.0,0.0,0.0,0.0,0.0,0.0,0.0,0.0,0.0,0.0,0.0,0.0,0.0,0.0,0.0,0.0,0.0,0.0,0.0,0.0,0.0,0.0,0.0,0.0,0.0,0.0,0.0,0.0,0.0,0.0,0.0,0.0,0.0,0.0,0.0,0.0,0.0,0.0,0.0,0.0,0.0,0.0,0.0,0.0,0.0,0.0,0.0,0.0,0.0,0.0,0.0,0.0,0.0,0.0,0.0,0.0,0.0,0.0,0.0,0.0,0.0,0.0,0.0,0.0,0.0,1.3094,1.4727,1.695,1.7386,1.7179,1.6287,1.5342,1.4009,1.2147,1.1394,0.0,0.0,0.0,0.0,0.0,0.0,0.0,0.0,0.0,0.0,0.0,0.0,0.0,0.0,0.0,0.0,0.0,0.0,0.0,0.0,0.0,0.0,0.0,0.0,0.0,0.0,0.0,0.0,0.0,0.0,0.0,0.0,0.0,0.0,0.0,0.0,0.0,0.0,0.0,0.0,0.0,0.0,0.0,0.0,0.0,0.0,0.0,0.0,0.0,0.0,0.0,0.0,0.0,0.0,0.0,0.0,0.0,0.0,0.0,0.0,0.0,0.0,0.0,0.0,0.0,0.0,0.0,0.0,0.0,0.0,0.0,0.0,0.0,0.0,0.0,0.0,0.0,0.0,0.0,0.0,0.0,0.0,0.0,0.0,0.0,0.0,0.0,0.0,0.0,0.0,0.0,0.0,0.0,0.0,0.0,0.0,0.0,0.0,0.0,0.0,0.0,0.0,1.4121,1.5959,1.7812,1.8459,1.825,1.696,1.6138,1.486,1.2857,1.1705,0.0,0.0,0.0,0.0,0.0,0.0,0.0,0.0,0.0,0.0,0.0,0.0,0.0,0.0,0.0,0.0,0.0,0.0,0.0,0.0,0.0,0.0,0.0,0.0,0.0,0.0,0.0,0.0,0.0,0.0,0.0,0.0,0.0,0.0,0.0,0.0,0.0,0.0,0.0,0.0,0.0,0.0,0.0,0.0,0.0,0.0,0.0,0.0,0.0,0.0,0.0,0.0,0.0,0.0,0.0,0.0,0.0,0.0,0.0,0.0,0.0,0.0,0.0,0.0,0.0,0.0,0.0,0.0,0.0,0.0,0.0,0.0,0.0,0.0,0.0,0.0,0.0,0.0,0.0,0.0,0.0,0.0,0.0,0.0,0.0,0.0,0.0,0.0,0.0,0.0,0.0,0.0,0.0,0.0,0.0,0.0,0.0,0.0,0.0,0.0,0.0,0.0,1.4744,1.6604,0.0,1.8242,1.7785,1.7311,1.5912,1.4475,1.312,0.0,0.0,0.0,0.0,0.0,0.0,0.0,0.0,0.0,0.0,0.0,0.0,0.0,0.0,0.0,0.0,0.0,0.0,0.0,0.0,0.0,0.0,0.0,0.0,0.0,0.0,0.0,0.0,0.0,0.0,0.0,0.0,0.0,0.0,0.0,0.0,0.0,0.0,0.0,0.0,0.0,0.0,0.0,0.0,0.0,0.0,0.0,0.0,0.0,0.0,0.0,0.0,0.0,0.0,0.0,0.0,0.0,0.0,0.0,0.0,0.0,0.0,0.0,0.0,0.0,0.0,0.0,0.0,0.0,0.0,0.0,0.0,0.0,0.0,0.0,0.0,0.0,0.0,0.0,0.0,0.0,0.0,0.0,0.0,0.0,0.0,0.0,0.0,0.0,0.0,0.0,0.0,0.0,0.0,0.0,0.0,0.0,0.0,0.0,0.0,0.0,0.0,1.3401,1.5259,1.7129,0.0,1.8424,1.7894,1.7875,1.6055,1.4568,1.3729,0.0,0.0,0.0,0.0,0.0,0.0,0.0,0.0,0.0,0.0,0.0,0.0,0.0,0.0,0.0,0.0,0.0,0.0,0.0,0.0,0.0,0.0,0.0,0.0,0.0,0.0,0.0,0.0,0.0,0.0,0.0,0.0,0.0,0.0,0.0,0.0,0.0,0.0,0.0,0.0,0.0,0.0,0.0,0.0,0.0,0.0,0.0,0.0,0.0,0.0,0.0,0.0,0.0,0.0,0.0,0.0,0.0,0.0,0.0,0.0,0.0,0.0,0.0,0.0,0.0,0.0,0.0,0.0,0.0,0.0,0.0,0.0,0.0,0.0,0.0,0.0,0.0,0.0,0.0,0.0,0.0,0.0,0.0,0.0,0.0,0.0,0.0,0.0,0.0,0.0,0.0,0.0,0.0,0.0,0.0,0.0,0.0,0.0,0.0,0.0,0.0,0.0,1.3933,1.5801,1.7631,1.9483,1.9274,1.8906,1.871,1.6804,1.5351,0.0,0.0,0.0,0.0,0.0,0.0,0.0,0.0,0.0,0.0,0.0,0.0,0.0,0.0,0.0,0.0,0.0,0.0,0.0,0.0,0.0,0.0,0.0,0.0,0.0,0.0,0.0,0.0,0.0,0.0,0.0,0.0,0.0,0.0,0.0,0.0,0.0,0.0,0.0,0.0,0.0,0.0,0.0,0.0,0.0,0.0,0.0,0.0,0.0,0.0,0.0,0.0,0.0,0.0,0.0,0.0,0.0,0.0,0.0,0.0,0.0,0.0,0.0,0.0,0.0,0.0,0.0,0.0,0.0,0.0,0.0,0.0,0.0,0.0,0.0,0.0,0.0,0.0,0.0,0.0,0.0,0.0,0.0,0.0,0.0,0.0,0.0,0.0,0.0,0.0,0.0,0.0,0.0,0.0,0.0,0.0,0.0,0.0,0.0,0.0,0.0,0.0,0.0,1.4196,1.6067,1.775,1.9065,1.8657,1.8407,1.868,1.7011,1.5561,1.4619,0.0,0.0,0.0,0.0,0.0,0.0,0.0,0.0,0.0,0.0,0.0,0.0,0.0,0.0,0.0,0.0,0.0,0.0,0.0,0.0,0.0,0.0,0.0,0.0,0.0,0.0,0.0,0.0,0.0,0.0,0.0,0.0,0.0,0.0,0.0,0.0,0.0,0.0,0.0,0.0,0.0,0.0,0.0,0.0,0.0,0.0,0.0,0.0,0.0,0.0,0.0,0.0,0.0,0.0,0.0,0.0,0.0,0.0,0.0,0.0,0.0,0.0,0.0,0.0,0.0,0.0,0.0,0.0,0.0,0.0,0.0,0.0,0.0,0.0,0.0,0.0,0.0,0.0,0.0,0.0,0.0,0.0,0.0,0.0,0.0,0.0,0.0,0.0,0.0,0.0,0.0,0.0,0.0,0.0,0.0,0.0,0.0,0.0,0.0,0.0,0.0,0.0,1.4509,1.648,1.8077,1.9022,1.8813,1.8778,1.9173,1.7407,1.6294,1.6417,0.0,0.0,0.0,0.0,0.0,0.0,0.0,0.0,0.0,0.0,0.0,0.0,0.0,0.0,0.0,0.0,0.0,0.0,0.0,0.0,0.0,0.0,0.0,0.0,0.0,0.0,0.0,0.0,0.0,0.0,0.0,0.0,0.0,0.0,0.0,0.0,0.0,0.0,0.0,0.0,0.0,0.0,0.0,0.0,0.0,0.0,0.0,0.0,0.0,0.0,0.0,0.0,0.0,0.0,0.0,0.0,0.0,0.0,0.0,0.0,0.0,0.0,0.0,0.0,0.0,0.0,0.0,0.0,0.0,0.0,0.0,0.0,0.0,0.0,0.0,0.0,0.0,0.0,0.0,0.0,0.0,0.0,0.0,0.0,0.0,0.0,0.0,0.0,0.0,0.0,0.0,0.0,0.0,0.0,0.0,0.0,0.0,0.0,0.0,0.0,0.0,0.0,1.4806,1.6842,1.8407,1.9097,1.9328,1.9655,2.0189,1.8026,1.732,1.8909,0.0,0.0,0.0,0.0,0.0,0.0,0.0,0.0,0.0,0.0,0.0,0.0,0.0,0.0,0.0,0.0,0.0,0.0,0.0,0.0,0.0,0.0,0.0,0.0,0.0,0.0,0.0,0.0,0.0,0.0,0.0,0.0,0.0,0.0,0.0,0.0,0.0,0.0,0.0,0.0,0.0,0.0,0.0,0.0,0.0,0.0,0.0,0.0,0.0,0.0,0.0,0.0,0.0,0.0,0.0,0.0,0.0,0.0,0.0,0.0,1.1595,0.0,0.0,0.0,0.0,0.0,0.0,0.0,0.0,0.0,0.0,0.0,0.0,0.0,0.0,0.0,0.0,0.0,0.0,0.0,0.0,0.0,0.0,0.0,0.0,0.0,0.0,0.0,0.0,0.0,0.0,0.0,0.0,0.0,0.0,0.0,0.0,0.0,0.0,0.0,0.0,0.0,1.4988,1.6711,1.7898,1.8107,1.8579,1.9735,2.1856,1.9361,1.7439,1.6907,0.0,0.0,0.0,0.0,0.0,0.0,0.0,0.0,0.0,0.0,0.0,0.0,0.0,0.0,0.0,0.0,0.0,0.0,0.0,0.0,0.0,0.0,0.0,0.0,0.0,0.0,0.0,0.0,0.0,0.0,0.0,0.0,0.0,0.0,0.0,0.0,0.0,0.0,0.0,0.0,0.0,0.0,0.0,0.0,0.0,0.0,0.0,0.0,0.0,0.0,0.0,0.0,0.0,0.0,0.0,0.0,0.0,0.0,0.0,0.0,0.0,1.2906,0.0,0.0,0.0,0.0,0.0,0.0,0.0,0.0,0.0,0.0,0.0,0.0,0.0,0.0,0.0,0.0,0.0,0.0,0.0,0.0,0.0,0.0,0.0,0.0,0.0,0.0,0.0,0.0,0.0,0.0,0.0,0.0,0.0,0.0,0.0,0.0,0.0,0.0,0.0,0.0,1.5964,1.7898,1.9282,1.9591,2.0191,2.1111,2.2475,2.0325,1.8149,1.6317,1.6945,0.0,0.0,0.0,0.0,0.0,0.0,0.0,0.0,0.0,0.0,0.0,0.0,0.0,0.0,0.0,0.0,0.0,0.0,0.0,0.0,0.0,0.0,0.0,0.0,0.0,0.0,0.0,0.0,0.0,0.0,0.0,0.0,0.0,0.0,0.0,0.0,0.0,0.0,0.0,0.0,0.0,0.0,0.0,0.0,0.0,0.0,0.0,0.0,0.0,0.0,0.0,0.0,0.0,1.5684,1.599,1.6114,1.6339,1.6641,1.6931,1.5821,1.5221,1.5032,0.0,0.0,0.0,0.0,0.0,0.0,0.0,0.0,0.0,0.0,0.0,0.0,0.0,0.0,0.0,0.0,0.0,0.0,0.0,0.0,0.0,0.0,0.0,0.0,0.0,1.4331,1.4565,0.0,0.0,0.0,0.0,0.0,0.0,0.0,0.0,0.0,0.0,0.0,0.0,1.7203,1.9426,2.1135,2.1803,2.2395,2.2872,2.3236,2.1349,1.9433,1.7771,1.7236,1.7413,0.0,0.0,0.0,0.0,0.0,0.0,0.0,0.0,0.0,0.0,0.0,0.0,0.0,0.0,0.0,0.0,0.0,0.0,0.0,0.0,0.0,0.0,0.0,0.0,0.0,0.0,0.0,0.0,0.0,0.0,0.0,0.0,1.1435,1.1324,0.0,0.0,0.0,0.0,0.0,0.0,0.0,0.0,0.0,0.0,0.0,0.0,0.0,1.4107,1.4583,1.5564,1.6329,1.6879,1.741,1.798,1.8538,1.8575,1.8877,1.9335,1.9158,0.0,1.6298,1.6727,0.0,0.0,0.0,0.0,0.0,0.0,0.0,0.0,0.0,0.0,0.0,0.0,0.0,0.0,0.0,0.0,0.0,0.0,0.0,0.0,0.0,0.0,1.6343,1.6137,1.6673,1.7199,0.0,1.5389,1.3808,1.3626,1.3871,0.0,0.0,0.0,0.0,0.0,0.0,0.0,1.8256,2.0285,2.1927,2.2891,2.3172,2.4009,2.5755,2.2959,2.1804,2.3391,2.0145,1.7893,1.726,1.7142,0.0,0.0,0.0,0.0,0.0,0.0,0.0,0.0,0.0,0.0,0.0,0.0,0.0,0.0,0.0,0.0,0.0,0.0,0.0,0.0,0.0,0.0,0.0,0.0,0.0,0.0,0.0,0.0,0.0,1.1894,1.2376,1.2409,1.2223,1.1957,0.0,0.0,0.0,0.0,0.0,0.0,0.0,0.0,0.0,1.5292,1.5832,1.6529,1.7372,1.7972,1.8545,1.9131,1.9497,1.9947,2.0417,2.057,2.0882,2.1299,2.1072,2.0476,1.9574,1.8569,1.7749,1.7079,0.0,0.0,0.0,0.0,1.6096,1.6246,1.6402,1.6405,0.0,1.6166,0.0,0.0,0.0,0.0,0.0,0.0,0.0,0.0,0.0,0.0,1.7255,1.7721,1.8114,1.8455,1.8715,1.7938,1.6915,0.0,1.5785,1.5621,1.5041,0.0,0.0,0.0,0.0,1.8295,2.0004,2.1936,2.3521,2.4499,2.5029,2.5519,2.6061,2.4912,2.429,2.458,2.0958,1.8788,1.8809,1.7912,1.7005,0.0,0.0,0.0,0.0,0.0,0.0,0.0,0.0,0.0,0.0,0.0,0.0,0.0,0.0,0.0,0.0,0.0,0.0,0.0,0.0,0.0,0.0,0.0,0.0,0.0,0.0,0.0,0.0,1.2824,1.3519,1.3601,1.3543,1.3252,0.0,0.0,0.0,0.0,0.0,0.0,1.4911,1.5526,1.6454,1.7823,1.8235,1.892,1.9934,2.0278,2.0688,2.1165,2.1545,2.1888,2.2232,2.2527,2.2842,2.3106,2.28,2.269,2.2536,2.0347,1.9181,1.8706,1.809,1.7861,1.7832,1.7577,1.7619,1.7807,1.7927,1.8098,1.8211,1.7853,1.7325,1.676,1.648,0.0,0.0,0.0,0.0,1.6397,1.7346,1.7844,1.8404,1.9516,1.9738,1.9839,2.0268,2.0326,1.9806,0.0,1.7681,1.7422,1.6926,0.0,0.0,0.0,0.0,2.004,2.1836,2.3547,2.4985,2.6037,2.6749,2.6981,2.654,2.6439,2.5877,2.4667,2.2017,2.0406,2.016,1.859,1.7654,1.7482,0.0,0.0,0.0,0.0,0.0,0.0,0.0,0.0,0.0,0.0,0.0,0.0,0.0,0.0,0.0,0.0,0.0,0.0,0.0,0.0,0.0,0.0,0.0,0.0,0.0,0.0,0.0,0.0,0.0,1.4753,1.4947,0.0,0.0,0.0,0.0,1.4558,1.4441,1.5055,1.6679,1.7278,1.8222,1.9622,2.0179,2.076,2.1394,2.1901,2.2357,2.2697,2.3355,2.3838,2.417,2.4573,2.4749,2.477,2.4753,2.4606,2.4201,2.1935,2.0495,1.9741,1.9698,1.933,1.8911,1.943,1.9652,1.9702,1.9971,2.0057,2.0074,2.0045,1.9065,1.7869,1.7607,1.6883,0.0,0.0,1.7251,1.8193,1.9203,1.9899,2.0638,2.1835,2.2031,2.204,2.2375,2.2292,2.1588,0.0,1.9347,1.9209,1.8435,0.0,1.9092,1.9424,2.0065,2.1319,2.358,2.4722,2.587,2.7248,2.7847,2.8118,2.8085,2.7054,2.5891,2.4675,2.4424,2.3017,2.0131,1.8949,1.8139,1.7688,1.7696,0.0,0.0,0.0,0.0,0.0,0.0,0.0,0.0,0.0,0.0,0.0,0.0,0.0,0.0,0.0,0.0,0.0,0.0,0.0,0.0,0.0,0.0,0.0,0.0,0.0,0.0,0.0,0.0,1.6375,1.6541,0.0,1.6234,1.5692,1.5676,1.6422,1.6984,1.7793,1.8967,1.9783,2.0676,2.1708,2.2635,2.3275,2.3624,2.4277,2.4757,2.5057,2.5295,2.5575,2.5917,2.6066,2.6039,2.5857,2.5604,2.5345,2.5065,2.3983,2.278,2.156,2.1133,2.0547,2.0026,2.0244,2.0422,2.0644,2.114,2.143,2.1545,2.1165,2.0422,1.9579,1.9099,1.8992,1.905,1.9123,1.9817,2.0658,2.1202,2.175,2.2331,2.2937,2.3173,2.3334,2.3642,2.3641,2.3383,2.2664,2.1672,2.0885,2.0686,2.0577,2.0688,2.1209,2.1731,2.2725,2.4488,2.5475,2.6418,2.7392,2.7922,2.8204,2.8201,2.7088,2.6222,2.5792,2.413,2.2503,2.0949,1.9285,1.8381,1.8345,1.8279,1.7657,0.0,0.0,0.0,0.0,0.0,0.0,0.0,0.0,0.0,0.0,0.0,0.0,0.0,0.0,0.0,0.0,0.0,0.0,0.0,0.0,0.0,0.0,0.0,0.0,0.0,0.0,1.7327,1.7942,1.8205,1.8236,1.7965,1.7737,1.7896,1.8558,1.9246,2.0119,2.1218,2.1981,2.2819,2.3768,2.4646,2.5234,2.5469,2.5954,2.6294,2.6472,2.6603,2.6791,2.7022,2.7117,2.7063,2.6881,2.6622,2.6377,2.6142,2.5777,2.4862,2.3679,2.2975,2.2242,2.1587,2.1786,2.1899,2.208,2.268,2.2958,2.2952,2.2473,2.1865,2.1241,2.0757,2.0873,2.1174,2.1234,2.1813,2.2532,2.2939,2.3278,2.3619,2.4068,2.4211,2.4328,2.4642,2.47,2.47,2.47,2.3546,2.2605,2.2689,2.2377,2.2359,2.3095,2.3429,2.4114,2.5583,2.636,2.7013,2.7672,2.8023,2.8193,2.8194,2.709,2.6398,2.6398,2.4354,2.2784,2.1963,2.0118,1.9065,1.8976,1.8764,1.8007,1.6649,0.0,0.0,0.0,0.0,0.0,0.0,0.0,0.0,0.0,0.0,0.0,0.0,0.0,0.0,0.0,0.0,0.0,0.0,0.0,0.0,0.0,0.0,0.0,1.6133,1.756,1.8801,1.9412,1.9966,2.0195,1.9925,1.9909,2.024,2.1036,2.1179,2.1889,2.3387,2.3811,2.4552,2.5781,2.6191,2.6519,2.6832,2.6847,2.688,2.688,2.7259,2.7449,2.7463,2.7789,2.7941,2.7926,2.7926,2.7769,2.7485,2.7159,2.6656,2.5977,2.5211,2.4355,2.3619,2.4139,2.418,2.4045,2.47,2.466,2.4286,2.4033,2.3467,2.2824,2.2544,2.2436,2.244,2.2704,2.3154,2.3708,2.4353,2.4449,2.4579,2.534,2.5225,2.5072,2.5449,2.5539,2.5539,2.5539,2.4925,2.4386,2.4342,2.4014,2.4086,2.5086,2.5062,0.0,2.6942,2.7359,2.7685,2.8136,2.82,2.8211,2.8192,2.7121,2.6442,2.6407,2.525,2.4093,2.3005,2.1404,2.0197,1.9529,1.9137,1.8191,1.6639,0.0,0.0,0.0,0.0,0.0,0.0,0.0,0.0,0.0,0.0,0.0,0.0,0.0,0.0,0.0,0.0,0.0,0.0,0.0,0.0,0.0,0.0,1.733,1.765,1.9125,2.053,2.1535,2.2038,2.2247,2.2068,2.2368,2.27,2.3088,2.3621,2.429,2.5091,2.5734,2.6214,2.6514,2.7368,2.7721,2.752,2.8057,2.8429,2.868,2.8545,2.8618,2.8856,2.8681,2.8486,2.8262,2.8262,2.8087,2.778,2.7692,2.7534,2.7248,2.5859,2.4989,2.4575,2.4947,2.517,2.5295,2.5502,2.534,2.509,2.5007,2.4684,2.4302,2.419,2.4269,2.4415,2.442,2.4684,2.4987,2.5181,2.5592,2.5955,2.5877,2.6155,2.6428,2.6433,2.6447,2.6447,2.6447,2.646,2.6241,2.5504,2.5046,2.5083,2.5939,2.6014,0.0,2.7275,2.7717,2.7997,2.8181,2.8202,2.8199,2.8213,2.7894,2.7338,2.6466,2.4906,2.3489,2.2316,2.1559,2.0761,1.9953,1.8365,1.7561,0.0,0.0,0.0,0.0,0.0,0.0,0.0,0.0,0.0,0.0,0.0,0.0,0.0,0.0,0.0,0.0,0.0,0.0,0.0,0.0,0.0,0.0,1.828,1.9826,2.0794,2.1296,2.1992,2.32,2.3772,2.4028,2.3957,2.4417,2.477,2.4887,2.5423,2.596,2.6442,2.7121,2.7545,2.7678,2.855,2.8914,2.8679,2.9109,2.9418,2.9613,2.9403,2.9418,2.9593,2.9403,2.9208,2.9032,2.9032,2.8749,2.8325,2.8325,2.8145,0.0,0.0,0.0,0.0,0.0,2.6333,2.6489,2.6638,2.6487,2.6238,2.6238,2.5983,2.5688,2.5649,2.5607,2.5626,2.5908,2.5973,2.6067,2.6485,2.6795,2.7,2.6902,2.7185,2.7429,2.7368,2.7444,2.7486,2.7297,2.7412,0.0,2.6711,2.6143,2.605,2.6815,2.6897,2.7204,2.8127,2.8464,2.8649,2.8799,2.8788,2.8596,2.8224,2.7736,0.0,0.0,0.0,2.4033,2.269,2.1653,0.0,0.0,0.0,1.8596,1.8172,0.0,0.0,0.0,1.5045,1.4366,0.0,0.0,0.0,0.0,0.0,0.0,0.0,0.0,0.0,0.0,0.0,0.0,0.0,0.0,0.0,0.0,2.0753,2.2693,2.4499,2.3794,2.3492,2.4638,2.5246,2.5566,2.5564,2.6125,2.6467,2.643,2.681,2.7197,2.754,0.0,0.0,0.0,0.0,2.9926,2.9967,2.9926,2.9941,3.0011,2.9941,2.9921,2.995,2.9921,2.9906,2.9906,2.9906,2.9549,2.9022,2.9022,2.8666,2.8116,2.7951,2.7752,2.7515,2.7472,2.7487,2.7539,2.7813,0.0,0.0,2.7458,2.7212,2.6927,2.6918,2.6608,2.6443,2.7108,2.7045,2.6989,2.7898,2.7961,2.7841,2.8101,2.8191,2.8225,2.8213,2.8438,2.8532,2.8118,2.8023,2.7955,2.78,2.7193,2.6949,2.7633,2.7682,2.8045,2.9149,2.9354,2.9476,2.9667,0.0,0.0,2.8559,2.7336,2.6923,2.7703,2.6499,2.5149,2.3776,2.1856,2.055,2.0011,2.0771,2.0315,1.8592,1.9482,1.9516,1.8694,1.6967,1.5994,0.0,0.0,0.0,0.0,0.0,0.0,0.0,0.0,0.0,0.0,0.0,0.0,0.0,0.0,0.0,2.0652,2.2404,2.4087,2.5527,2.5908,2.617,2.6412,2.6586,2.6661,2.6547,2.7173,2.747,2.7221,2.8004,2.8536,2.8613,2.9226,2.9636,2.9696,2.9833,3.0047,3.0384,3.0047,3.0185,3.0782,0.0,0.0,3.0287,3.0024,2.9906,2.9906,2.9906,2.9833,2.9716,2.9716,2.9623,2.9418,2.8321,2.8034,2.8181,2.79,2.7958,2.8167,2.7961,2.7855,2.7798,2.7798,2.7741,2.7671,2.7626,2.7544,0.0,2.7852,2.7868,2.7912,2.8375,2.8694,2.8827,2.856,2.8736,2.8969,2.8918,2.8955,2.8976,2.8888,2.8731,2.8549,2.831,2.7821,2.7626,2.8037,2.8362,2.8722,2.9234,2.9726,2.9902,2.9563,3.0141,3.0487,3.0306,2.8793,2.773,2.7426,2.6228,2.5392,2.5052,2.2761,2.1797,2.2416,2.1103,2.0189,1.976,1.9603,1.9556,1.9613,1.8292,1.7632,0.0,0.0,0.0,0.0,0.0,0.0,0.0,0.0,0.0,0.0,0.0,1.7675,1.8711,0.0,2.1816,2.3262,2.4767,2.6153,2.7349,2.7748,2.7801,2.7449,2.7584,2.774,2.7856,2.8332,2.8739,2.8939,2.9227,2.9502,2.97,2.9992,3.0141,3.0141,3.0443,3.0613,3.0635,3.0613,3.0795,3.115,3.0845,3.088,3.1191,3.1091,3.0922,3.0717,3.0942,3.071,3.0141,2.998,2.9906,2.9833,2.9164,2.9003,2.9105,2.8764,2.8769,2.8837,2.8515,2.8398,2.8427,2.8588,2.8647,2.8686,2.8811,2.8696,2.8556,2.8911,2.8836,2.8766,2.9357,2.9537,2.9546,2.9522,2.9653,2.9792,2.9766,2.9862,2.988,2.9687,2.9564,2.9391,2.9015,2.8758,2.8624,2.8747,2.9052,2.9534,3.0348,3.0602,3.0688,3.066,3.0735,3.0785,3.0788,2.945,2.8344,2.7734,2.644,2.5798,2.6001,2.3934,2.2974,2.3296,2.2585,2.1841,2.1093,2.1239,2.1202,2.0995,2.0388,1.978,0.0,0.0,0.0,0.0,0.0,0.0,0.0,0.0,1.795,1.8556,1.9345,2.03,2.144,2.301,2.4555,2.5903,2.7081,2.8133,2.8973,2.9141,2.8996,2.8459,2.8524,2.8759,2.9164,2.9463,2.9907,3.0575,3.0389,3.0352,3.0574,3.0764,3.0807,3.0704,3.1326,3.1566,3.1405,3.1482,3.1585,3.1695,3.1622,3.1753,3.2053,3.2151,3.1988,3.1662,3.1932,3.1512,3.0586,3.022,3.0077,3.0077,3.0077,3.0077,3.0018,2.9637,2.9491,2.9447,2.9183,2.9095,2.9139,2.9403,2.9491,2.9555,2.9818,2.9644,2.9436,2.9879,2.9711,2.9595,3.0302,3.0287,3.0135,3.0399,3.0478,3.0478,3.0478,3.0642,3.0707,3.0373,3.0263,3.0081,2.9705,2.9565,2.9488,2.9447,2.9695,3.0288,3.1452,3.1401,3.1454,3.1927,3.1284,3.0796,3.0803,2.9907,2.9082,2.849,2.6972,2.6332,2.6807,2.5109,2.411,2.4014,2.4174,2.3697,2.2494,2.2891,2.2773,2.2205,2.2183,2.1586,1.7797,1.7364,0.0,1.8384,1.8833,1.9461,0.0,0.0,2.1423,2.2095,2.2601,2.3205,2.4199,2.5248,2.6431,2.7691,2.8526,2.9098,2.9393,2.9713,2.9977,3.0171,2.9665,2.9556,3.0255,3.035,3.058,3.1072,3.1361,3.1345,3.0949,3.19,3.2248,3.1828,3.2589,3.316,3.3553,3.2771,3.2592,3.3061,3.2302,3.2026,3.2194,3.2189,3.2174,3.2091,3.1745,3.1508,3.1339,3.0895,3.0694,3.0694,3.0694,3.0694,3.0621,3.0062,2.9828,2.9848,2.9804,2.9789,2.9784,2.9833,2.9828,2.9848,2.9892,2.9866,2.9884,3.0258,3.0311,3.0343,3.0665,3.0723,3.0709,3.0738,3.0753,3.0753,3.0753,3.0782,3.079,3.0749,3.0436,3.0179,3.0137,2.9788,2.9593,2.988,3.0241,3.0759,3.151,3.1505,3.1777,3.2603,3.1562,3.0796,3.0803,3.068,3.0343,2.9743,2.7927,2.7114,2.7638,2.6034,2.5339,2.5805,2.4988,2.433,2.3879,2.3065,2.263,2.2545,2.2485,2.2073,1.9572,0.0,0.0,0.0,2.0908,2.1599,2.286,2.3168,2.3399,2.4068,2.481,2.5564,2.6347,2.7306,2.8243,0.0,2.9826,3.0462,3.0545,3.0991,3.1289,3.1159,3.1077,3.1072,3.1174,3.0936,3.1153,3.2057,3.2048,3.2093,3.2323,3.2557,3.2697,3.2704,3.3209,3.3365,3.3102,3.3157,3.3165,3.3114,3.3108,3.3108,3.3138,3.3224,3.3146,3.2917,3.22,3.1911,3.189,3.1704,3.1455,3.1212,3.1212,3.1372,3.1499,3.0545,3.0185,3.0155,2.9965,2.9906,2.9936,3.0126,3.0185,3.0229,3.0384,3.0422,3.0451,3.0583,3.0627,3.0656,3.0767,3.0796,3.0796,3.0796,3.0796,3.0796,3.0796,3.0796,3.0796,3.0796,3.0665,3.0619,3.0808,3.0689,3.0736,3.126,3.1081,3.1239,3.2178,3.2266,3.2099,3.1683,3.1131,3.0796,3.0792,3.0792,3.0628,3.0217,2.916,2.8508,2.8389,2.7073,2.6372,2.6383,2.5547,2.505,2.4899,2.4492,2.4156,2.3933,2.3912,2.3499,2.0766,0.0,0.0,2.229,2.3148,2.3866,2.4952,2.5266,2.5514,2.6199,2.6907,2.7611,2.829,2.9189,2.9916,3.0253,3.1047,3.1606,3.1581,3.1893,3.2021,3.1818,3.1843,3.1925,3.2052,3.1711,3.195,3.3047,3.2778,3.2783,3.3255,3.3348,3.3456,3.3576,3.4246,3.4269,3.357,3.401,3.4,3.3547,3.3861,3.401,3.4006,3.4087,3.4016,3.3742,3.2876,3.2498,3.2478,3.2249,3.1898,3.1497,3.1461,3.1675,3.1916,3.1022,3.0789,3.0841,3.0482,3.0333,3.0362,3.0469,3.0501,3.0545,3.0738,3.0796,3.0796,3.0796,3.0796,3.0796,3.0796,3.09,3.0971,3.0955,3.1047,3.1095,3.0984,3.0943,3.0913,3.0826,3.0796,3.0913,3.1235,3.1315,3.1534,3.2214,3.1808,3.1765,3.2683,3.2793,3.2288,3.0931,3.0805,3.0801,3.0811,3.0796,3.0721,3.0522,2.9912,2.9347,2.8925,2.778,2.7062,2.686,2.6119,2.5718,2.5638,2.5443,2.525,2.5045,2.495,2.4585,0.0,0.0,2.1965,2.4541,2.5501,2.631,2.8294,2.8456,2.8364,2.904,2.9209,2.942,3.0103,3.0833,3.1436,3.1785,3.2134,3.2344,3.2288,3.1904,3.1777,3.2224,3.1548,3.1543,0.0,3.2841,3.3083,3.3906,3.3662,3.3408,3.3312,3.4465,3.4952,3.4567,3.6079,3.667,3.6188,3.5754,3.5339,3.4926,3.4502,3.4335,3.4488,3.4472,3.4477,3.4419,3.3625,3.327,3.3207,3.2353,3.1822,3.1491,3.1358,3.1389,3.1523,3.1467,3.1751,3.2076,3.1612,3.1452,3.1369,3.0927,3.0782,3.0796,3.0796,3.0796,3.0796,3.0796,3.0796,3.0796,3.0796,3.1129,3.1467,3.1318,3.1623,3.1849,3.1385,3.1279,3.1177,3.0869,3.0796,3.0913,3.1235,3.1315,3.1534,3.2214,3.228,3.2398,3.2742,3.2793,3.2301,3.0938,3.0808,3.0809,3.0805,3.0796,3.0804,3.0791,2.9727,2.914,2.9179,2.7975,2.7351,2.7469,2.6758,2.6246,2.5984,2.5267,2.5103,2.548,2.5084,2.4892,0.0,0.0,2.4253,2.6745,2.7783,2.8585,2.9979,3.019,3.0079,3.0038,3.0234,3.0327,3.0034,3.0569,3.1176,3.1506,3.2046,3.2379,3.2319,3.263,3.261,3.193,3.2324,0.0,0.0,0.0,0.0,3.3573,3.3472,3.3714,3.4507,3.488,3.5269,3.5719,3.5945,3.5857,3.5377,3.5508,3.5379,3.4927,3.4821,3.4798,3.4821,3.4361,3.4175,3.4139,3.3644,3.3275,3.2969,3.299,3.2763,3.236,3.2302,3.2499,3.2798,3.2489,3.2654,3.2958,3.2236,3.1967,3.189,3.1419,3.1253,3.1212,3.088,3.0796,3.0796,3.0796,3.0796,3.0796,3.0796,3.115,3.1491,3.1429,3.1721,3.1954,3.18,3.1526,3.1285,3.1147,3.0957,3.0972,3.1549,3.1637,3.1856,3.2537,3.2888,3.3021,3.283,3.2792,3.2643,3.2178,3.1337,3.0932,3.1231,3.0984,3.0809,3.0789,3.0443,3.0029,2.9549,2.8859,2.8255,2.7764,2.7028,2.6627,2.6533,2.6102,2.5838,2.5701,2.5838,2.5446,2.517,2.6005,2.7011,2.9224,3.0266,3.0974,3.1653,3.1816,3.1664,3.1128,3.0901,3.0626,3.0126,3.0375,3.0794,3.116,3.1887,3.2379,3.2319,3.2846,3.2899,3.1966,3.2711,3.3111,0.0,0.0,0.0,3.3645,3.3603,3.3971,3.4894,3.5141,3.551,3.6075,3.6096,3.5878,3.5399,3.5704,3.5617,3.5159,3.5357,3.5375,3.5208,3.4949,3.4721,3.4557,3.4191,3.3802,3.3406,3.3551,3.3364,3.298,3.2959,3.3234,3.3593,3.3135,3.3275,3.3527,3.2551,3.2195,3.2091,3.1455,3.1253,3.1191,3.088,3.0921,3.1004,3.0838,3.0921,3.1004,3.0838,3.115,3.1491,3.1444,3.181,3.2103,3.1815,3.1614,3.1446,3.1308,3.1118,3.1177,3.1856,3.2212,3.2542,3.2992,3.358,3.3712,3.2911,3.2793,3.2806,3.2805,3.1611,3.0914,3.1216,3.0966,3.0796,3.0796,3.0665,3.0453,3.0126,2.9388,2.8779,2.8331,2.7527,2.7007,2.6807,2.6747,2.648,2.601,2.6374,2.6109,2.7632,2.8795,3.0045,3.1893,3.2846,3.3317,3.3357,3.3311,3.3045,3.2246,3.1166,3.0359,0.0,0.0,3.0426,3.0842,3.1764,3.2379,3.2334,3.2616,3.2694,0.0,0.0,0.0,0.0,0.0,0.0,3.4099,0.0,3.417,3.453,3.528,3.5708,3.573,3.6506,3.6708,3.6286,3.6264,3.6047,3.5639,3.6052,3.603,3.5639,3.6036,3.6014,3.5569,3.516,3.479,3.4467,3.4006,3.3629,3.3353,3.3268,3.3519,3.3885,3.3494,3.362,3.386,3.268,3.2251,3.2112,3.1185,3.0894,3.088,3.0817,3.1129,3.1399,3.0963,3.115,3.1399,3.0942,3.117,3.1509,3.136,3.1917,3.2257,3.15,3.1591,3.1702,3.1388,3.1344,3.1563,3.22,3.2976,3.3492,3.3492,3.4283,3.4349,3.2984,3.283,3.2837,3.2813,3.1656,3.0873,3.0841,3.0819,3.0826,3.0796,3.0415,3.0373,3.0734,2.9495,2.8896,2.9082,2.8165,2.7428,2.6847,2.7155,2.6994,2.642,2.6687,2.6787,3.0201,3.0924,3.1574,3.3743,3.3984,3.3753,3.4038,3.345,3.265,3.1875,3.082,2.9948,0.0,0.0,0.0,3.1128,3.1903,0.0,3.2642,3.306,0.0,0.0,0.0,3.373,3.3535,3.3678,0.0,0.0,3.4345,3.435,3.5322,3.5542,3.5793,3.614,3.6026,3.59,3.5769,3.5769,3.5878,3.6134,3.5894,3.59,3.6096,3.5584,3.5456,3.5634,3.4923,3.4588,3.4456,3.4092,3.405,3.4176,3.3914,3.4013,3.4292,3.3939,3.4071,3.425,3.3317,3.3078,3.302,3.2133,3.205,3.2097,3.1087,3.1129,3.1482,3.1357,3.1399,3.1461,3.1357,3.1662,3.192,3.1539,3.1807,3.2058,3.1878,3.1881,3.1879,3.1701,3.1871,3.209,3.2273,3.2976,3.3492,3.3492,3.3998,3.4005,3.2948,3.3418,3.3572,3.2874,3.2477,3.2032,3.1373,3.1232,3.106,3.0826,3.0415,3.0242,3.0346,2.9349,2.8825,2.8882,2.8107,2.7629,2.7482,2.7355,2.7045,2.6541,2.6719,2.6485,3.2488,3.3036,3.3534,3.5335,3.5182,3.4521,3.4242,3.3355,3.2163,3.072,2.9652,0.0,0.0,0.0,0.0,0.0,0.0,0.0,3.2298,3.2972,3.3269,0.0,3.3635,0.0,3.3868,3.4315,3.4896,0.0,3.4866,3.4838,3.566,3.5837,3.5922,3.5987,3.5726,3.5595,3.5595,3.5595,3.5726,3.5987,3.5922,3.6047,3.6269,3.5778,3.5703,3.594,0.0,3.489,3.4694,3.452,3.4551,3.4694,3.4504,3.4647,3.4922,3.4414,3.435,3.4387,3.3661,3.3445,3.3344,3.2425,3.2263,3.228,3.1381,3.1434,3.1807,3.1807,3.1932,3.2035,3.1849,3.2009,3.2091,3.1606,3.1757,3.1966,3.1816,3.1723,3.172,3.1803,3.22,3.2588,3.2785,3.3372,3.3888,3.4086,3.4503,3.4612,3.4093,3.377,3.3381,3.2852,3.2528,3.2168,3.1669,3.1295,3.1001,3.0811,3.0415,3.02,3.02,2.9307,2.8803,2.8803,2.8207,2.785,2.7696,2.771,2.7405,2.6907,2.6993,2.6784,3.4544,3.5068,3.5503,3.6609,3.6174,3.5199,3.3987,3.2824,3.1383,2.9156,0.0,2.7143,2.6064,2.7598,2.8745,2.7943,0.0,3.2228,3.1899,3.2796,3.3394,3.3086,3.4123,3.4674,3.4213,3.4901,3.5524,3.5862,3.557,3.5474,3.5762,3.6107,3.6112,3.5704,3.5617,3.5617,3.5682,3.5617,3.5617,3.5704,3.603,3.6286,3.6378,3.6329,3.6372,3.6443,3.5922,3.5485,3.5161,3.5049,3.5044,3.5075,3.498,3.5224,3.5516,3.4763,3.4541,3.4477,3.3842,3.3619,3.3465,3.2379,3.2062,3.2023,3.1613,3.1828,3.2216,3.2257,3.2546,3.2716,3.2381,3.2278,3.2154,3.1704,3.181,3.1945,3.166,3.1571,3.1652,3.1996,3.2564,3.3117,3.3514,3.3976,3.4437,3.4831,3.529,3.5605,3.5603,3.4174,3.3065,3.283,3.22,3.1762,3.1676,3.1185,3.0855,3.0811,3.0415,3.0221,3.0283,2.939,2.8887,2.8887,2.8487,2.81,2.7783,2.8058,2.7924,2.7429,2.7369,2.7329,3.6492,3.6699,3.6625,3.7161,3.6191,3.4668,3.2948,3.1237,0.0,0.0,0.0,2.5738,2.608,2.6921,0.0,2.8691,0.0,0.0,0.0,0.0,3.3743,0.0,0.0,0.0,0.0,0.0,0.0,0.0,0.0,3.6185,3.6215,3.6259,3.6264,3.6177,3.5791,3.5791,3.6161,3.5791,3.5791,3.6161,3.5873,3.6139,3.686,3.6486,3.6681,3.7334,3.653,0.0,3.6026,3.529,3.5186,3.5452,3.4827,3.5002,3.5516,3.4763,3.4684,3.4869,3.4461,3.4334,3.4092,3.2647,3.2395,3.2525,3.174,3.1828,3.2257,3.2608,3.2752,3.2778,3.2695,3.2695,3.2587,3.2174,3.2116,3.2147,3.2086,3.25,3.2984,3.337,3.3722,3.3976,3.4064,3.4459,3.4809,3.4897,3.529,3.5611,3.5589,3.5335,3.4529,3.2977,3.2201,3.1584,3.1024,3.1127,3.1089,3.0826,3.0415,3.0346,3.0686,2.9837,2.9377,2.9377,2.8929,2.8502,2.8112,2.8186,2.816,2.8052,2.7756,2.7516,3.7415,3.7082,3.6637,3.7492,3.6045,3.3899,3.2128,0.0,0.0,0.0,0.0,2.4131,2.4247,0.0,0.0,0.0,0.0,0.0,0.0,0.0,0.0,0.0,0.0,0.0,0.0,0.0,0.0,0.0,0.0,3.6725,3.6946,3.6551,3.6307,3.6307,3.5835,3.5704,3.5922,3.5704,3.5704,3.5922,3.5704,3.6096,3.6989,3.6508,3.6789,3.7571,3.6924,0.0,3.6269,3.5853,3.5647,3.5563,3.5214,3.5293,3.5532,3.497,3.4869,3.4932,3.4408,3.4255,3.4013,3.2653,3.2587,3.2949,3.2349,3.2324,3.2608,3.3025,3.3148,3.3148,3.3148,3.3148,3.3045,3.2628,3.2664,3.2725,3.2517,3.3164,3.3775,3.3754,3.3996,3.4283,3.4525,3.4744,3.4984,3.5225,3.5465,3.5595,3.5595,3.5603,3.5072,3.3682,3.2491,3.1526,3.0866,3.0947,3.0972,3.0811,3.0415,3.0283,3.0478,2.9837,2.9377,2.9125,2.8908,2.8592,2.82,2.82,2.82,2.82,2.7863,2.7629,3.7735,3.7205,3.6687,3.7438,3.5704,3.3269,3.1195,2.8687,0.0,0.0,2.3073,2.2714,2.2535,0.0,0.0,0.0,0.0,0.0,0.0,0.0,0.0,0.0,0.0,0.0,0.0,0.0,0.0,0.0,0.0,0.0,3.7442,3.6725,3.6334,3.6443,3.5987,3.5748,3.5748,3.5748,3.5704,3.5595,3.5595,3.6096,3.6989,3.6616,3.6941,3.7744,3.7313,0.0,3.6573,3.6486,3.6161,3.5748,3.5668,3.5619,3.5548,3.5155,3.499,3.4932,3.4439,3.4226,3.3994,3.3067,3.2944,3.3135,3.2788,3.2716,3.2901,3.3369,3.3513,3.3513,3.3513,3.3513,3.341,3.3025,3.3208,3.3354,3.3061,3.3756,3.4367,3.4043,3.4272,3.4612,3.4984,3.505,3.5181,3.553,3.5595,3.5595,3.5595,3.5468,3.5172,3.4549,3.3053,3.1791,3.1074,3.0961,3.0943,3.1001,3.0571,3.0375,3.0447,2.9921,2.9418,2.8971,2.8845,2.8592,2.82,2.82,2.82,2.82,2.7917,2.7783,3.7627,3.7645,3.7596,3.6606,3.5128,3.3059,2.9923,0.0,0.0,2.319,2.2178,2.1891,2.2405,0.0,0.0,0.0,0.0,3.047,0.0,0.0,0.0,0.0,0.0,0.0,0.0,0.0,0.0,0.0,0.0,0.0,3.7097,3.6573,3.6486,3.6924,3.6486,3.6242,3.6242,3.6242,3.6009,3.5595,3.5595,3.6096,3.7011,3.6968,3.7421,3.8216,3.7765,0.0,0.0,3.7097,3.666,3.6194,3.5832,3.5655,3.5548,3.5155,3.499,3.5007,3.5054,3.4899,3.4617,3.4588,3.3795,3.2762,3.2375,3.2525,3.2901,3.3369,3.3513,3.3513,3.3513,3.3513,3.3476,3.3435,3.3684,3.3933,3.3891,3.4451,3.4926,3.4883,3.5189,3.5486,3.553,3.553,3.5552,3.5595,3.5595,3.5595,3.5595,3.5078,3.4884,3.5413,3.398,3.2635,3.1772,3.1437,3.1367,3.1695,3.1091,3.088,3.1193,3.0511,2.9914,2.9439,2.9013,2.8592,2.82,2.82,2.82,2.82,2.8173,2.8005,3.7301,3.7305,3.7117,3.6669,3.4691,3.2258,2.9897,0.0,2.4997,2.2754,2.1944,2.1719,2.2127,2.2827,2.4178,2.667,2.7977,0.0,0.0,0.0,0.0,0.0,0.0,0.0,0.0,0.0,0.0,0.0,0.0,0.0,3.7382,3.7184,3.7162,3.7356,3.6946,3.6725,3.6725,3.6443,3.6356,3.6427,3.6161,3.6486,3.7356,3.7356,3.7701,3.828,3.8109,0.0,0.0,3.7442,3.7119,3.6708,3.6561,3.6291,3.5993,3.5826,3.5778,3.5773,3.5574,3.5281,3.4967,3.4817,3.4211,3.3558,3.3394,3.3292,3.3251,3.3435,3.3513,3.3513,3.3513,3.3513,3.3513,3.3513,3.3746,3.3996,3.3996,3.4747,3.5333,3.5055,3.5551,3.5922,3.5639,3.5595,3.5595,3.5595,3.5595,3.5486,3.5225,3.5187,3.5087,3.4777,3.3396,3.2476,3.2404,3.1914,3.1666,3.1783,3.1549,3.1373,3.1294,3.1029,3.0575,2.9914,2.9453,2.9013,2.8571,2.8318,2.82,2.82,2.82,2.8125,3.6849,3.6978,3.6823,3.6509,3.4164,3.1427,0.0,2.7014,2.4406,2.2632,2.1913,2.1692,2.1987,2.2744,2.4087,2.6463,2.7722,2.9355,3.2039,0.0,0.0,0.0,0.0,0.0,0.0,0.0,0.0,0.0,0.0,0.0,3.783,3.8032,3.8035,3.7783,3.7255,3.706,3.7154,3.6709,3.6595,3.6773,3.6465,3.6768,3.7598,3.7598,3.7873,3.8302,3.8302,0.0,0.0,3.7808,3.7571,3.7184,3.7184,3.6816,3.6307,3.6307,3.6205,3.608,3.5814,3.5585,3.5334,3.5022,3.4633,3.4256,3.4143,3.3906,3.364,3.3517,3.3513,3.3513,3.3513,3.3513,3.3513,3.3513,3.3746,3.4037,3.4183,3.5001,3.559,3.5269,3.5811,3.6139,3.5682,3.5595,3.5595,3.5595,3.5595,3.5486,3.5159,3.5268,3.5197,3.4674,3.3362,3.2587,3.2791,3.2286,3.1988,3.2097,3.19,3.1739,3.1607,3.1162,3.0685,3.014,2.9474,2.8936,2.8613,2.8326,2.82,2.82,2.82,2.82,3.6347,3.6788,3.711,3.5918,3.3404,3.0742,0.0,2.6277,2.3898,2.2809,2.2068,2.1698,2.2036,2.292,2.4167,2.5909,2.7617,2.9471,3.1695,0.0,0.0,0.0,0.0,0.0,0.0,0.0,0.0,0.0,0.0,0.0,3.8314,3.9042,3.9084,3.823,3.7426,3.7154,3.7491,3.7171,3.6768,3.6307,3.6307,3.6768,3.7598,3.7598,3.7873,3.8302,0.0,0.0,0.0,3.828,3.8023,3.7576,3.7576,3.7054,3.6307,3.6307,3.6043,3.5729,3.5778,3.5814,3.5745,3.5485,3.5072,3.4617,3.4224,3.4111,3.4009,3.3599,3.3513,3.3513,3.3513,3.3513,3.3513,3.3513,3.3746,3.4121,3.4578,3.5233,3.5697,3.5676,3.6026,3.6139,3.5682,3.5595,3.5595,3.5595,3.5595,3.5595,3.5595,3.5181,3.5091,3.5539,3.4316,3.3308,3.2852,3.2492,3.2434,3.2756,3.217,3.1944,3.2288,3.0816,3.0007,3.0007,2.8813,2.8213,2.8213,2.82,2.82,2.82,2.82,2.82,3.2845,3.3102,3.3006,3.2385,3.0236,2.7983,2.6949,2.4745,2.2783,2.2352,2.1943,2.1619,2.1456,2.2438,2.3831,2.5577,2.6879,2.8418,0.0,0.0,0.0,0.0,0.0,0.0,0.0,0.0,0.0,0.0,0.0,0.0,3.8319,3.8499,3.8632,3.8683,3.8416,3.8351,3.8448,3.7756,3.7507,3.7674,3.7334,3.7507,3.8087,3.8087,3.8152,0.0,0.0,3.8302,3.8302,3.8302,3.8216,3.8109,3.843,3.8173,3.7701,3.8023,3.7852,3.7443,3.7242,3.6955,3.6635,3.6258,3.5676,3.5027,3.4639,3.412,3.3661,3.3538,3.3513,3.3513,3.3513,3.3702,3.3906,3.3906,3.4233,3.4596,3.474,3.5568,3.6122,3.5489,3.6127,3.653,3.5748,3.5595,3.5595,3.5595,3.5595,3.5486,3.5159,3.4984,3.4744,3.4343,3.3837,3.3315,3.2845,3.2705,3.2683,3.2785,3.2595,3.2434,3.2317,3.1612,3.0959,3.0425,2.9544,2.8915,2.8613,2.834,2.82,2.82,2.82,2.82,3.0266,3.0862,3.0746,3.0253,2.8296,2.6311,2.5515,2.3649,2.2058,2.1975,2.1817,2.1687,2.1673,2.2896,2.4283,2.5495,2.6991,0.0,0.0,0.0,0.0,0.0,0.0,0.0,0.0,0.0,0.0,0.0,0.0,0.0,3.8524,3.8622,3.8826,3.9128,3.8816,3.8644,3.8644,3.7951,3.7765,3.8023,3.7744,3.7851,3.8302,3.8302,3.8302,0.0,0.0,3.8554,0.0,3.8751,3.8815,3.8858,3.9153,3.8965,3.8584,3.8727,3.8484,3.8032,3.7518,3.7136,3.6743,3.6071,3.5295,3.4579,3.4327,3.3914,3.3513,3.3513,3.3513,3.3513,3.3513,3.3804,3.4111,3.4111,3.4458,3.4844,3.4987,3.574,3.6187,3.5551,3.6165,3.6517,3.5754,3.5595,3.5595,3.5595,3.5595,3.5486,3.5203,3.5006,3.4597,3.3806,3.3572,3.3315,3.283,3.28,3.28,3.28,3.28,3.2654,3.2317,3.18,3.1181,3.0382,2.9628,2.9034,2.8571,2.8318,2.82,2.82,2.82,2.82,0.0,2.944,2.9623,2.891,2.7111,2.5251,2.4347,2.2771,0.0,2.1614,2.1632,2.1798,2.2364,2.3873,2.5172,2.5563,0.0,0.0,0.0,0.0,0.0,0.0,0.0,0.0,0.0,0.0,0.0,0.0,0.0,0.0,3.8849,3.9253,3.9441,3.9407,3.8661,3.8251,3.8251,3.7843,3.7658,3.7658,3.7658,3.7894,3.8345,3.8323,3.8323,0.0,3.8811,3.9003,3.9025,3.9515,3.9689,3.9689,3.9731,3.9476,3.9062,3.8712,3.8302,3.7782,3.7002,3.6625,3.633,3.5245,3.4323,3.3611,3.3533,3.3513,3.3513,3.3513,3.3513,3.3513,3.3538,3.3845,3.4152,3.4192,3.4559,3.4987,3.5372,3.576,3.599,3.5837,3.6111,3.6234,3.5684,3.5601,3.5607,3.5607,3.5651,3.5651,3.5607,3.5209,3.4641,3.3871,3.3572,3.3293,3.2874,3.2808,3.28,3.28,3.2844,3.2683,3.2317,3.1584,3.0838,3.0064,2.9228,2.8592,2.82,2.82,2.82,2.82,2.82,2.82,2.3421,0.0,2.4701,2.4325,2.2921,2.1623,0.0,2.0561,1.9832,2.0804,0.0,2.0988,2.111,2.2495,2.3886,0.0,0.0,0.0,0.0,0.0,0.0,0.0,0.0,0.0,0.0,0.0,0.0,0.0,0.0,3.8439,3.8439,3.8815,3.8905,3.8576,3.8672,3.8731,3.8731,3.8356,3.813,3.813,3.813,3.8383,3.8811,3.8469,3.8512,0.0,3.8939,3.9003,3.9025,3.9515,3.9689,3.9731,4.0088,4.0173,4.0092,4.0361,3.9748,3.8736,3.8264,3.7857,3.7345,3.6104,3.5344,3.4698,3.3782,3.3513,3.3513,3.3513,3.3513,3.3558,3.3886,3.4294,3.4702,3.5027,3.5453,3.5834,3.5935,3.6208,3.6319,3.5878,3.6111,3.6234,3.5684,3.5654,3.5677,3.5677,3.5977,3.6079,3.5719,3.5545,3.5225,3.4684,3.3645,3.3058,3.3315,3.3006,3.28,3.28,3.3139,3.3013,3.2317,3.2232,3.1615,3.0482,2.9375,2.8592,2.82,2.82,2.82,2.82,2.82,2.82,2.1131,2.1727,2.2425,2.2277,2.1361,2.0501,2.0563,1.9699,0.0,0.0,0.0,2.0528,2.1214,0.0,0.0,0.0,0.0,0.0,0.0,0.0,0.0,0.0,0.0,0.0,0.0,0.0,0.0,0.0,0.0,3.8387,3.8576,3.861,3.861,3.8576,3.861,3.8627,3.8627,3.8422,3.8302,3.8302,3.8302,3.8554,3.8982,3.8512,3.8666,0.0,3.9323,3.9451,3.9664,4.0152,4.0325,4.0385,4.0617,4.0723,4.0726,4.0796,4.0075,3.905,3.8732,3.8044,3.7232,3.6522,3.5997,3.5464,3.4405,3.409,3.4009,3.3599,3.3513,3.3538,3.3763,3.4315,3.4844,3.5068,3.5615,3.6097,3.6097,3.6072,3.5959,3.5626,3.5717,3.5738,3.5401,3.5526,3.5762,3.5962,3.6234,3.6313,3.6005,3.5766,3.5421,3.494,3.388,3.3286,3.347,3.3073,3.2874,3.3095,3.3161,3.2954,3.24,3.2251,3.1521,3.0106,2.9243,2.8592,2.82,2.8403,2.8382,2.82,2.8403,2.8382,2.0274,2.0737,2.1346,2.1338,2.088,2.0341,2.0097,0.0,0.0,0.0,0.0,0.0,0.0,0.0,0.0,0.0,0.0,0.0,0.0,0.0,0.0,0.0,0.0,0.0,0.0,0.0,0.0,0.0,0.0,3.8456,3.8781,3.8555,3.8542,3.8907,3.8576,3.8409,3.8409,3.8345,3.8302,3.8302,3.8302,3.858,3.9089,3.8619,3.8943,3.9901,0.0,0.0,4.0512,4.0934,4.1102,4.1102,4.1029,4.1047,4.1047,4.0662,3.9935,3.9161,3.873,3.7848,3.688,3.6765,3.6523,3.6103,3.5109,3.4804,3.4621,3.3759,3.3513,3.3497,3.3579,3.4192,3.4824,3.4885,3.5494,3.6097,3.6097,3.5716,3.5408,3.5406,3.5243,3.509,3.504,3.5355,3.5772,3.6188,3.6341,3.6403,3.6313,3.5907,3.5451,3.4972,3.4119,3.3608,3.3556,3.3176,3.3117,3.3506,3.3139,3.2807,3.2573,3.1961,3.0972,2.9607,2.9069,2.8592,2.82,2.8592,2.8613,2.8297,2.8634,2.8613,1.9836,1.98,1.9741,1.9673,1.9419,1.9109,1.8844,0.0,0.0,0.0,0.0,0.0,0.0,0.0,0.0,0.0,0.0,0.0,0.0,0.0,0.0,0.0,0.0,0.0,0.0,0.0,0.0,0.0,0.0,3.8336,3.8387,3.8717,3.8931,3.8984,3.891,3.8875,3.8875,3.8512,3.8302,3.8302,3.8302,3.8751,3.9561,3.911,3.96,4.0789,0.0,4.0533,4.0916,4.106,4.1102,4.1066,4.0735,4.0809,4.1047,4.0662,4.0164,3.958,3.8852,3.8248,3.7745,3.7379,3.7241,3.6887,3.5291,3.4804,3.4621,3.3759,3.3513,3.3579,3.3927,3.4396,3.4885,3.523,3.5696,3.6097,3.6097,3.5716,3.551,3.5835,3.5291,3.4876,3.5132,3.5273,3.55,3.5904,3.6262,3.645,3.6387,3.6009,3.5558,3.5027,3.3917,3.3367,3.3815,3.3678,3.3572,3.3649,3.3498,3.3261,3.2938,3.1552,3.0517,2.9916,2.9179,2.8592,2.82,2.8592,2.8761,2.8718,2.8761,2.8761,1.9093,1.8974,1.8909,1.8877,1.9009,1.9095,1.8834,0.0,0.0,0.0,0.0,0.0,0.0,0.0,0.0,0.0,0.0,0.0,0.0,0.0,0.0,0.0,0.0,0.0,0.0,0.0,0.0,0.0,0.0,0.0,3.8302,3.8747,3.9003,3.9003,3.9003,3.9003,3.9003,3.8533,3.8302,3.8302,3.8302,3.8644,3.9323,3.9089,3.9728,4.0979,0.0,4.0765,4.1357,4.1187,4.1102,4.1066,4.0662,4.0604,4.0675,3.9807,3.9468,3.9357,3.8554,3.8288,3.8282,3.8103,3.8044,3.7825,3.6583,3.6201,3.5922,3.458,3.3845,3.3579,3.4009,3.4458,3.4905,3.5291,3.5757,3.6097,3.6097,3.5716,3.5443,3.5648,3.5299,3.4962,3.4925,3.5481,3.5951,3.6137,3.655,3.6811,3.6735,3.6148,3.5564,3.5055,3.4308,3.3883,3.3896,3.4408,3.4404,3.3637,3.3423,3.3045,3.2377,3.1296,3.04,2.9733,2.9376,2.8866,2.82,2.8866,2.9055,2.8803,2.9328,2.9286,1.8642,1.8508,1.8522,1.8578,1.8942,1.9288,1.932,0.0,0.0,0.0,0.0,0.0,0.0,0.0,0.0,0.0,0.0,0.0,0.0,0.0,0.0,0.0,0.0,0.0,0.0,0.0,0.0,0.0,0.0,0.0,3.8302,3.8747,3.9003,3.9003,3.9003,3.9003,3.9003,3.8533,3.8302,3.8302,3.8302,3.8554,3.9003,3.9003,3.9685,4.0852,4.0427,4.0789,4.1653,4.1166,4.106,4.1173,4.0593,4.0292,4.0086,3.9229,3.9036,3.9109,3.8479,3.8355,3.8481,3.856,3.854,3.8322,3.7625,3.7405,3.7085,3.5555,3.4478,3.3845,3.4049,3.4458,3.4905,3.5291,3.5676,3.5956,3.5956,3.5494,3.5169,3.5352,3.513,3.4906,3.4855,3.5642,3.6319,3.638,3.6716,3.6955,3.6983,3.6139,3.5398,3.5033,3.4561,3.4275,3.4287,3.5096,3.5131,3.405,3.3667,3.3008,3.2012,3.1284,3.0558,2.9761,2.9586,2.9167,2.8516,2.9272,2.9474,2.9139,2.9865,2.9824,1.888,1.8697,1.8564,1.881,1.89,0.0,2.0089,2.0773,0.0,0.0,0.0,0.0,0.0,0.0,0.0,0.0,0.0,0.0,0.0,0.0,0.0,0.0,0.0,0.0,0.0,0.0,0.0,0.0,0.0,0.0,3.8302,3.8747,3.9003,3.9003,3.9003,3.9003,3.9003,3.8533,3.8302,3.8302,3.8302,3.8554,3.9003,3.9003,3.9536,4.0412,3.9943,4.0494,4.1633,4.0807,4.0934,4.1537,4.0386,3.9669,3.9335,3.9685,3.9557,3.9186,3.9148,3.8651,3.8103,3.8481,3.8342,3.7964,3.7545,3.7405,3.7208,3.6264,3.5376,3.46,3.4213,3.4458,3.4905,3.5291,3.5433,3.5453,3.5453,3.4804,3.4437,3.5251,3.4686,3.4324,3.5117,3.5637,3.6043,3.6347,3.6439,3.6593,3.694,3.5843,3.5033,3.499,3.4138,3.4099,3.5371,3.554,3.5556,3.5466,3.4693,3.3686,3.2498,3.1694,3.1017,3.0545,2.9846,2.946,2.9398,2.9914,3.0137,3.0095,3.0179,3.0158,1.8484,1.8274,1.8264,1.8563,1.925,0.0,0.0,2.1584,0.0,0.0,0.0,0.0,0.0,0.0,0.0,0.0,0.0,0.0,0.0,0.0,0.0,0.0,0.0,0.0,0.0,0.0,0.0,0.0,0.0,0.0,3.8726,3.9195,3.9451,3.9451,3.9451,3.9302,3.9003,3.8533,3.8302,3.8302,3.8302,3.8387,3.8576,3.8875,3.9501,4.0404,4.049,4.0978,4.1726,4.1084,4.0881,4.0853,3.9848,3.9206,3.8838,3.9023,3.8986,3.882,3.882,3.8629,3.8402,3.854,3.8501,3.8342,3.8203,3.8143,3.7984,3.7148,3.6666,3.6181,3.5169,3.4641,3.4539,3.523,3.521,3.5088,3.5352,3.4946,3.4788,3.5596,3.5044,3.4705,3.5521,3.5972,3.6253,3.6363,3.6835,3.7189,3.7361,3.6055,3.5226,3.5467,3.4301,3.4076,3.5482,3.56,3.56,3.5595,3.4632,3.3808,3.3278,3.2065,3.1284,3.104,3.0301,2.9788,2.9502,2.9956,3.02,3.0221,3.0457,3.0436,1.8246,1.8052,1.8246,0.0,0.0,0.0,2.233,2.3429,2.4301,0.0,0.0,0.0,0.0,0.0,0.0,0.0,0.0,0.0,0.0,0.0,0.0,0.0,0.0,0.0,0.0,0.0,0.0,0.0,0.0,3.8512,3.8961,3.9174,3.9327,3.9472,3.9327,3.9093,3.879,3.8751,3.873,3.8751,3.9029,3.8858,3.8323,3.8779,3.9348,3.9977,4.0396,4.0985,4.1535,4.0944,4.0466,4.0036,3.9417,3.8948,3.86,3.86,3.86,3.86,3.86,3.8521,3.8421,3.856,3.8501,3.8421,3.856,3.86,3.8481,3.7944,3.7605,3.7185,3.6282,3.5271,3.4661,3.5251,3.4987,3.4641,3.4926,3.4661,3.4641,3.5466,3.4998,3.4742,3.5575,3.6088,3.6396,3.6396,3.708,3.7598,3.7598,3.641,3.5712,3.6126,3.496,3.4366,3.489,3.5349,3.5537,3.5398,3.4656,3.4108,3.3782,3.255,3.1772,3.1532,3.0783,3.0227,2.99,3.0227,3.0388,3.0394,3.0686,3.0665,1.8251,1.8211,0.0,0.0,0.0,0.0,0.0,2.6562,2.6985,0.0,0.0,0.0,0.0,0.0,0.0,0.0,0.0,0.0,0.0,0.0,0.0,0.0,0.0,0.0,0.0,0.0,3.8319,3.8319,3.8302,3.8512,3.8982,3.8576,3.8554,3.9003,3.8576,3.8323,3.8323,3.9242,3.971,3.971,4.0581,4.0053,3.8327,3.8796,3.902,3.9047,3.9506,4.0243,4.1033,4.016,3.9555,3.9206,3.9206,3.8948,3.86,3.86,3.86,3.86,3.86,3.8342,3.8084,3.8461,3.8322,3.8084,3.8481,3.86,3.86,3.86,3.8024,3.7425,3.7405,3.6422,3.5413,3.5413,3.4743,3.4111,3.4111,3.3784,3.3763,3.4637,3.4361,3.4271,3.5159,3.5918,3.638,3.6396,3.7063,3.7598,3.7576,3.6838,3.6492,3.6928,3.6117,3.5002,3.3609,3.4773,3.5382,3.4932,3.4969,3.4661,3.3947,3.3141,3.2495,3.2032,3.1223,3.0811,3.0811,3.0811,3.0811,3.0811,3.0796,3.0796,1.8187,1.8365,0.0,0.0,0.0,0.0,0.0,2.6566,0.0,0.0,0.0,0.0,0.0,0.0,0.0,0.0,0.0,0.0,0.0,0.0,0.0,0.0,0.0,0.0,3.8712,3.8712,3.8712,3.8712,3.8456,3.8794,3.9922,3.9858,4.0116,4.0895,4.075,4.0518,4.0219,4.0473,4.0328,3.9763,4.0036,4.0015,3.9784,3.9909,4.0002,4.008,4.0492,4.0872,4.111,4.0222,3.9631,3.9242,3.8923,3.871,3.86,3.86,3.86,3.86,3.86,3.8521,3.8441,3.856,3.8521,3.8441,3.856,3.86,3.86,3.86,3.8421,3.8183,3.7904,3.7325,3.6664,3.604,3.523,3.458,3.458,3.4233,3.4171,3.4994,3.4575,3.4414,3.5542,3.5658,3.5807,3.6314,3.6688,3.6652,3.6017,3.6429,3.6392,3.5357,3.3442,3.2567,3.3437,3.3877,3.425,3.4594,3.4848,3.5032,3.5083,3.3789,3.3248,3.3686,3.2561,3.1993,3.1993,3.1756,3.1484,3.1133,3.0913,3.0796,1.8119,0.0,0.0,0.0,0.0,0.0,0.0,0.0,0.0,0.0,0.0,0.0,0.0,0.0,0.0,0.0,0.0,0.0,0.0,0.0,3.8454,3.8533,3.861,3.873,3.8884,3.8747,3.8812,3.9201,3.8997,3.9455,4.0834,4.0729,4.0961,4.1674,4.1507,4.1126,4.0494,4.0831,4.0746,4.0278,4.0469,4.0779,4.1164,4.0464,4.0293,4.0527,4.0942,4.105,4.086,4.0177,3.9666,3.9253,3.8778,3.86,3.86,3.86,3.86,3.86,3.86,3.86,3.86,3.86,3.86,3.86,3.86,3.86,3.86,3.86,3.86,3.854,3.8302,3.8064,3.7625,3.6583,3.5817,3.5271,3.5068,3.4824,3.4768,3.5252,3.467,3.4384,3.5299,3.5237,3.5273,3.5864,3.6468,3.6564,3.5814,3.6479,3.6354,3.4677,3.354,3.3202,3.3948,3.4263,3.4377,3.4323,3.4307,3.4547,3.5069,3.4009,3.3628,3.4108,3.2862,3.2312,3.2505,3.2104,3.1707,3.13,3.1089,3.0928,1.814,0.0,0.0,0.0,0.0,0.0,0.0,0.0,0.0,0.0,0.0,0.0,0.0,0.0,0.0,0.0,0.0,0.0,0.0,0.0,3.8525,3.8798,3.8558,3.8533,3.8945,3.8671,3.8829,3.9689,3.9795,4.0367,4.1633,4.1357,4.1357,4.1863,4.1483,4.0873,4.007,4.0816,4.1137,4.1019,4.1403,4.1783,4.2085,4.0638,4.019,4.0591,4.0996,4.0958,4.0529,4.0079,3.9706,3.9371,3.8818,3.862,3.8659,3.862,3.862,3.8659,3.86,3.862,3.8659,3.86,3.86,3.86,3.86,3.86,3.86,3.86,3.86,3.86,3.86,3.86,3.8302,3.7148,3.6526,3.6022,3.5575,3.5433,3.5392,3.5392,3.4743,3.4315,3.4763,3.476,3.4849,3.5246,3.6357,3.6964,3.6451,3.6689,3.6304,3.479,3.5506,3.5765,3.5007,3.532,3.5121,3.4026,3.3545,3.358,3.4129,3.3788,3.3655,3.3737,3.2542,3.2135,3.2594,3.2135,3.1738,3.1402,3.1373,3.1162,0.0,1.9736,0.0,0.0,0.0,0.0,0.0,0.0,0.0,0.0,0.0,0.0,0.0,0.0,0.0,0.0,0.0,0.0,0.0,0.0,0.0,3.8507,3.8627,3.8959,3.9485,3.9686,3.9904,4.0237,4.0536,4.1021,4.1653,4.1944,4.2445,4.3237,4.3154,4.3029,4.2842,4.2721,4.2149,4.1153,4.0901,4.0485,3.9989,4.0949,4.1247,4.1074,4.1152,4.1152,4.0997,4.0216,4.0039,4.0138,3.9035,3.8838,3.9114,3.8739,3.8838,3.9095,3.8719,3.8838,3.9095,3.8719,3.86,3.86,3.86,3.86,3.86,3.86,3.86,3.86,3.86,3.86,3.8521,3.8263,3.7368,3.6466,3.604,3.5656,3.5392,3.5392,3.4987,3.4783,3.519,3.4992,3.4919,3.5327,3.6106,3.6384,3.5643,3.5904,3.5991,3.5559,3.5864,3.6032,3.5831,3.4703,3.3873,3.3621,3.351,3.3305,3.2972,3.2822,3.3172,3.4073,3.321,3.2919,3.3282,3.2926,3.2517,3.2076,3.1812,3.152,0.0,0.0,0.0,0.0,0.0,0.0,0.0,0.0,0.0,0.0,0.0,0.0,0.0,0.0,0.0,0.0,0.0,0.0,0.0,0.0,0.0,3.8623,3.861,3.8959,3.9848,3.9752,4.0113,4.1273,4.134,4.1626,4.2328,4.2616,4.2849,4.3065,4.3065,4.2882,4.2453,4.1815,4.1299,4.0849,3.9993,3.9604,3.9607,4.0484,4.0878,4.086,4.086,4.0977,4.1152,4.047,4.0294,4.0412,3.9568,3.9371,3.9568,3.9312,3.9371,3.9548,3.9312,3.9253,3.9292,3.9233,3.9095,3.8937,3.8937,3.8937,3.8897,3.8659,3.86,3.86,3.86,3.86,3.86,3.86,3.7946,3.7208,3.6804,3.6342,3.5959,3.5757,3.5372,3.5149,3.5352,3.523,3.5149,3.5372,3.5933,3.6163,3.5732,3.5872,3.5974,3.5943,3.6048,3.5923,3.551,3.5036,3.4392,3.356,3.269,3.2267,3.2413,3.2209,3.2725,3.3973,3.3107,3.2957,3.3558,3.3106,3.2704,3.2302,3.2105,3.1856,0.0,0.0,0.0,0.0,0.0,0.0,0.0,0.0,0.0,0.0,0.0,0.0,0.0,0.0,0.0,0.0,0.0,0.0,0.0,3.8322,3.8572,3.8899,3.8525,3.8785,4.0222,3.9687,4.0128,4.2248,4.2112,4.2251,4.2943,4.2987,4.2793,4.2421,4.2402,4.204,4.1335,4.0551,4.025,4.0492,3.9278,3.9091,3.9804,3.9863,4.0079,4.0392,4.047,4.0724,4.1055,4.0646,4.0548,4.0568,4.0098,3.9941,4.0,3.9922,3.9941,3.9981,3.9922,3.9725,3.9568,3.9804,3.9666,3.9391,3.9331,3.9312,3.9213,3.8739,3.86,3.86,3.86,3.86,3.862,3.8699,3.8342,3.7884,3.7485,3.7145,3.6764,3.6299,3.5878,3.5595,3.5534,3.5514,3.5494,3.5413,3.5797,3.6077,3.5959,3.6057,3.6097,3.6097,3.6097,3.5814,3.5098,3.5408,3.5042,3.359,3.2083,3.1455,3.1927,3.1697,3.2145,3.3418,3.2568,3.2503,3.3283,3.2843,3.2566,3.2411,3.2346,3.2178,0.0,0.0,0.0,0.0,0.0,0.0,0.0,0.0,0.0,0.0,0.0,0.0,0.0,0.0,0.0,3.6682,3.7357,3.7708,3.7479,3.833,3.9017,3.907,3.8401,3.8751,4.0775,4.0575,4.089,4.2284,4.2718,4.2781,4.2515,4.2493,4.246,4.2402,4.2402,4.2342,4.2221,4.1772,4.1181,4.0503,3.9613,3.927,3.9391,3.9745,3.9922,4.0,4.0353,4.0548,4.0588,4.0529,4.0743,4.1036,4.0216,4.0118,4.0373,4.0039,4.0118,4.0373,4.002,4.0098,4.0294,4.0,3.9863,3.9745,3.941,3.9312,3.9213,3.8739,3.86,3.86,3.86,3.86,3.8699,3.9114,3.86,3.7884,3.7485,3.7625,3.7585,3.6782,3.6581,3.642,3.6077,3.6016,3.5875,3.5453,3.5797,3.5918,3.5379,3.5777,3.6097,3.6097,3.6097,3.6047,3.594,3.4645,3.3744,3.351,3.3269,3.2484,3.104,3.0948,3.1256,3.1966,3.1614,3.1621,3.2028,3.1965,3.2263,3.2911,3.2476,3.2505,2.1583,2.4672,2.7646,0.0,0.0,0.0,0.0,0.0,0.0,0.0,0.0,0.0,0.0,3.6063,3.6569,3.698,3.7112,3.7293,3.7592,3.8093,3.8599,3.9062,3.8787,3.9326,4.1254,4.0839,4.1,4.2352,4.2404,4.2173,4.1741,4.1929,4.1973,4.1738,4.1719,4.1719,4.1719,4.1071,4.0443,3.9831,3.9701,3.9647,3.9647,3.9823,4.002,4.0255,4.0412,4.0646,4.088,4.088,4.0997,4.1152,4.0782,4.0743,4.086,4.0685,4.0724,4.086,4.0704,4.0568,4.0509,4.0587,4.0313,3.9902,3.9942,3.9647,3.9312,3.9312,3.9174,3.8996,3.8996,3.9154,3.9312,3.9312,3.9193,3.8956,3.856,3.8044,3.7545,3.7165,3.7085,3.6945,3.652,3.6019,3.5635,3.5433,3.5575,3.5595,3.5237,3.572,3.6097,3.6097,3.6097,3.6108,3.6089,3.449,3.3839,3.4614,3.3938,3.2681,3.0876,3.0803,3.0913,3.1197,3.1265,3.15,3.1902,3.1838,3.1978,3.2305,3.2125,3.2147,0.0,0.0,2.7572,2.9452,3.0158,3.0581,0.0,0.0,0.0,0.0,3.4349,3.5318,3.5819,3.6263,3.6687,3.707,3.6944,3.6963,3.7537,3.7956,3.8453,3.9048,3.9127,3.9761,4.1383,4.0877,4.0943,4.2228,4.1999,4.167,4.1362,4.1541,4.1523,4.1211,4.1191,4.1191,4.1191,4.0431,3.9902,3.9608,3.9922,4.0059,4.0059,4.0177,4.0392,4.0666,4.0548,4.0685,4.1016,4.1152,4.1191,4.1191,4.1191,4.1191,4.1191,4.1191,4.1191,4.1191,4.1191,4.0958,4.0743,4.1094,4.0763,4.0255,4.0451,4.0079,3.9647,3.9843,3.9686,3.945,3.945,3.9686,3.9843,3.9647,3.9686,3.9686,3.9509,3.8713,3.8032,3.8042,3.7936,3.7712,3.7263,3.6382,3.5656,3.5433,3.5578,3.5575,3.523,3.5801,3.62,3.6097,3.6097,3.6088,3.6099,3.5015,3.4903,3.6196,3.4856,3.3418,3.208,3.1219,3.0787,3.0809,3.1053,3.1351,3.1687,3.1601,3.1657,3.1837,3.173,3.1789,0.0,2.5174,0.0,2.8184,2.9469,0.0,0.0,0.0,0.0,0.0,3.473,3.5817,3.6576,3.6406,3.6266,3.6666,3.7015,3.7157,3.6806,3.8136,3.9151,3.9189,3.9192,3.9705,4.1004,4.0764,4.0879,4.1776,4.1816,4.1777,4.1757,4.1426,4.1211,4.1191,4.1191,4.1191,4.1191,4.0724,4.0451,4.0431,4.0451,4.047,4.049,4.0919,4.1133,4.1133,4.0685,4.0509,4.0568,4.1036,4.1191,4.1191,4.1191,4.1191,4.1191,4.1191,4.1191,4.1191,4.1191,4.1172,4.1172,4.1191,4.1172,4.1055,4.0627,4.047,4.0353,4.0,3.9882,3.9863,3.9863,3.9882,3.9981,4.0353,3.9863,3.943,3.9784,3.9829,3.976,3.9761,3.945,3.9058,3.8574,3.7445,3.6342,3.5514,3.6045,3.6225,3.5327,3.5998,3.6436,3.6131,3.6097,3.6092,3.6102,3.6409,3.7087,3.809,3.6466,3.5443,3.5347,3.2402,3.0805,3.0805,3.0832,3.0846,3.0867,3.0861,3.1246,3.1984,3.152,3.1739,0.0,0.0,0.0,2.7771,2.8829,2.9709,3.0337,3.1635,3.2766,3.3038,3.4242,3.5447,3.6279,3.6441,3.6727,3.7428,3.6967,3.6659,3.7083,3.7887,3.8612,3.9122,3.9689,4.0426,4.1456,4.1147,4.1018,4.1382,4.1382,4.1246,4.0975,4.1113,4.1191,4.1191,4.1191,4.1191,4.1191,4.1016,4.0938,4.0938,4.0938,4.0938,4.0938,4.1133,4.1191,4.1191,4.1036,4.0938,4.0958,4.1133,4.1191,4.1191,4.1191,4.1191,4.1191,4.1191,4.1191,4.1191,4.1191,4.1191,4.1191,4.1191,4.1016,4.0782,4.0899,4.0568,4.0196,4.0626,4.0529,4.0275,4.0275,4.0509,4.0646,4.0216,3.9882,3.9647,3.9548,3.9523,3.9519,3.9508,3.9154,3.8803,3.8615,3.7935,3.7035,3.601,3.6266,3.6491,3.6195,3.6494,3.6573,3.6157,3.6106,3.6293,3.6761,3.7397,3.7761,3.772,3.747,3.6454,3.4462,3.2894,3.1881,3.1443,3.1456,3.1234,3.0796,3.0796,3.0938,3.1223,3.1056,3.1129,2.415,0.0,0.0,0.0,0.0,2.89,2.9696,0.0,3.2456,3.2995,3.4098,3.5285,3.6227,3.6579,3.6964,3.7687,3.6965,3.6483,3.7085,3.766,3.8212,3.8741,3.9677,4.0552,4.1287,4.1197,4.1126,4.1188,4.1149,0.0,4.0743,4.1016,4.1191,4.1191,4.1191,4.1191,4.1191,4.1054,4.1054,4.1191,4.1054,4.1054,4.1191,4.1191,4.1191,4.1191,4.1191,4.1191,4.1191,4.1191,4.1191,4.1191,4.1191,4.1191,4.1191,4.1191,4.1191,4.1191,4.1191,4.1191,4.1191,4.1191,4.0977,4.0802,4.1113,4.0802,4.047,4.1036,4.0997,4.0743,4.0743,4.086,4.0782,4.0059,3.9842,3.9646,3.9174,3.9524,3.9874,3.9735,3.9796,3.9721,3.926,3.8549,3.7872,3.7279,3.7106,3.6995,3.6881,3.7013,3.6985,3.6631,3.6518,3.6528,3.6718,3.7434,3.7621,3.6949,3.7434,3.6758,3.4527,3.3438,3.2688,3.2249,3.2233,3.1927,3.1268,3.0957,3.0796,3.0796,3.0796,3.0796,0.0,0.0,0.0,0.0,0.0,0.0,2.9481,3.0664,3.1943,3.3504,3.4462,3.5378,3.6569,3.6782,3.6924,3.7337,3.7025,3.6721,3.6742,3.7478,3.8029,3.8012,3.9067,3.9973,4.0427,4.0846,4.1109,4.1152,4.1191,4.1191,4.1191,4.1191,4.1191,4.1191,4.1191,4.1191,4.1191,4.0762,4.0762,4.1191,4.0742,4.0762,4.1191,4.1191,4.1191,4.1191,4.1191,4.1191,4.1191,4.1191,4.1191,4.1191,4.1191,4.1191,4.1191,4.1191,4.1191,4.1191,4.1191,4.1191,4.1191,4.1191,4.1191,4.1191,4.1191,4.1191,4.1191,4.1191,4.1191,4.1191,4.1172,4.0841,4.0392,3.9981,3.9665,3.931,3.8719,3.9928,4.1006,4.0568,4.1486,4.1894,4.0545,3.9388,3.8813,3.9308,3.8566,3.7788,3.728,3.756,3.7761,3.7643,3.7386,3.6832,3.5932,3.6611,3.6763,3.5952,3.64,3.6453,3.5872,3.4113,3.3123,3.3102,3.311,3.2819,3.2231,3.1289,3.0817,3.0853,3.0817,3.0817,2.2829,0.0,0.0,0.0,0.0,0.0,2.8434,3.0049,3.1664,3.2509,3.3917,3.5276,3.6186,3.6371,3.6575,3.7281,3.7288,3.7305,3.7605,3.8105,3.843,3.8422,3.9292,3.9926,4.0051,4.0427,4.0664,0.0,4.0997,4.1191,4.1191,4.1191,4.1191,4.1191,4.1191,4.1191,4.1191,4.1074,4.1074,4.1191,4.1074,4.1074,4.1191,4.1191,4.1191,4.1191,4.1191,4.1191,4.1191,4.1191,4.1191,4.1191,4.1191,4.1191,4.1191,4.1191,4.1191,4.1191,4.1191,4.1191,4.1191,4.1191,4.1191,4.1191,4.1191,4.1191,4.1191,4.1191,4.1191,4.1133,4.0782,4.0528,4.0214,3.9607,3.9154,3.8816,3.864,3.9328,3.9992,4.0051,4.0505,4.0768,4.0374,3.989,3.9384,3.8889,3.9125,3.8825,3.7377,3.7766,3.8154,3.8118,3.7812,3.7385,3.6776,3.6954,3.6864,3.6316,3.6387,3.6,3.4927,3.4382,3.3812,3.3177,3.3175,3.3161,3.3124,3.2,3.1589,3.1806,3.1568,3.1227,2.269,2.3629,2.4394,2.4836,0.0,0.0,2.7719,2.9235,3.0839,3.1963,3.3446,3.477,3.5567,3.598,3.6338,3.6811,3.7168,3.7469,3.7711,3.7819,3.7904,3.8084,3.8555,3.8932,3.9118,3.9659,3.9988,3.9988,4.0415,4.0666,4.0664,4.0664,4.0742,4.0898,4.0742,4.0839,4.1211,4.0839,4.0839,4.1191,4.1015,4.0898,4.0898,4.1113,4.0996,4.0664,4.0839,4.0801,4.0683,4.0817,4.0972,4.1168,4.1168,4.1168,4.1188,4.1384,4.1347,4.1191,4.1191,4.1191,4.1191,4.1191,4.1191,4.1191,4.1191,4.1074,4.0937,4.1133,4.1075,4.0841,4.0568,4.0196,3.9783,3.9391,3.8937,3.86,3.86,3.9076,3.9524,3.9593,4.0147,4.0628,4.0629,4.0226,3.9835,3.9667,3.9641,3.9366,3.8544,3.8351,3.831,3.8308,3.8124,3.7828,3.7338,3.7162,3.6797,3.6141,3.5802,3.5219,3.4339,3.4159,3.385,3.3327,3.3338,3.3286,3.3213,3.2695,3.2354,3.2199,3.2003,3.1781,2.3132,2.3851,2.4388,0.0,0.0,0.0,2.736,2.853,2.9939,3.1845,3.3102,3.4071,3.4848,3.554,3.5997,3.6003,3.6686,3.7251,3.7375,3.7098,3.7002,3.7355,3.7398,3.7564,3.7984,3.8724,3.9163,3.9086,3.951,3.9797,3.9903,3.9902,4.0059,4.043,4.0098,4.0254,4.1035,4.0292,4.0292,4.1054,4.0644,4.043,4.045,4.0879,4.0644,3.9922,4.0274,4.0253,3.9977,4.0218,4.0605,4.102,4.1077,4.1096,4.1137,4.1573,4.152,4.1249,4.1211,4.123,4.125,4.1152,4.1113,4.1113,4.1074,4.0801,4.0586,4.1074,4.086,4.049,4.0431,3.9903,3.9371,3.9253,3.8956,3.8679,3.86,3.9054,3.9423,3.9238,4.0212,4.1087,4.1178,4.06,4.0412,4.1263,4.0218,3.9488,3.9932,3.9007,3.8302,3.831,3.8306,3.8109,3.7641,3.7227,3.6614,3.5686,3.4917,3.4334,3.3969,3.3651,3.3513,3.3513,3.3513,3.3292,3.2881,3.3289,3.3021,3.2154,3.2293,3.2432,0.0,0.0,0.0,0.0,0.0,0.0,2.7897,2.9116,3.0504,3.2187,3.2948,3.3677,3.4792,3.4864,3.4737,3.4739,3.543,3.6291,3.7272,3.7324,3.7308,3.7385,3.7389,3.7448,3.7525,3.802,3.8192,3.7885,3.8518,3.9222,3.9865,3.9902,3.9941,4.0019,3.9941,3.998,4.0137,3.998,3.9999,4.0137,4.0059,4.0019,4.0019,4.0098,4.0059,3.9902,3.998,4.0131,4.0275,4.0032,4.0149,4.0564,4.0903,4.1035,4.1037,4.1174,4.1391,4.1565,4.1287,4.1424,4.1559,4.0858,4.0644,4.0586,4.0254,4.0312,4.0586,4.1074,4.086,4.0431,4.0098,4.0058,3.986,3.8955,3.9034,3.9172,3.8699,3.8996,3.933,3.9286,4.0001,4.086,4.1624,4.1612,4.1903,4.3023,4.1168,3.9384,3.8746,3.8453,3.8302,3.8299,3.8297,3.8109,3.7641,3.7227,3.6515,3.5372,3.4794,3.4223,3.3619,3.3544,3.3513,3.3513,3.3513,3.3435,3.3353,3.3448,3.2917,3.1819,3.2783,3.3015,0.0,0.0,0.0,2.4407,0.0,0.0,0.0,2.8396,2.9683,3.1059,3.1693,3.2317,3.3325,3.3488,3.3564,3.3758,3.4317,3.4917,3.5522,3.6292,3.6879,3.708,3.6934,3.6805,3.6805,3.7197,3.7364,3.7156,3.7896,3.8442,3.8644,3.9034,3.9336,3.9551,3.9354,3.9472,3.9883,3.9668,3.9668,3.9902,3.9902,3.9766,3.9551,3.9785,3.9648,3.9276,3.9677,3.9824,3.9809,3.9974,4.0161,4.04,4.0844,4.0999,4.1024,4.1296,4.1538,4.1674,4.1557,4.1753,4.1963,4.1085,4.0928,4.0945,4.0133,4.0176,4.0547,4.0781,4.055,4.0162,3.9943,3.9672,3.9303,3.8741,3.8836,3.8975,3.8659,3.8778,3.9075,3.9509,3.9915,4.0422,4.1098,4.1837,4.2214,4.1786,4.0673,3.9614,3.8849,3.8485,3.8293,3.8292,3.8302,3.8195,3.798,3.7189,3.6431,3.5836,3.4825,3.4096,3.3762,3.3592,3.3513,3.3513,3.3513,3.3374,3.3148,3.3401,3.302,3.2154,3.285,3.2948,0.0,0.0,0.0,0.0,0.0,2.6413,0.0,0.0,0.0,2.9907,3.0398,0.0,0.0,0.0,0.0,3.2526,0.0,0.0,0.0,3.466,0.0,3.6292,3.6127,3.5944,3.5888,3.6013,3.6231,3.6455,3.6942,3.7146,3.6974,3.7634,3.8228,3.8724,3.851,3.8779,3.9629,3.9258,3.9258,3.9648,3.9648,3.9453,3.9101,3.9566,3.9387,3.8758,3.9477,3.9639,3.9465,4.004,4.0346,4.0458,4.0827,4.097,4.1018,4.1332,4.1602,4.1798,4.1706,4.204,4.2347,4.1329,4.1032,4.0948,4.013,4.0059,4.0293,4.045,4.0105,3.9702,3.9753,3.9192,3.8614,3.8607,3.8679,3.8757,3.862,3.86,3.8857,3.9725,3.9889,4.0093,4.0647,4.1776,4.207,4.0453,4.0253,4.0126,3.9625,3.8982,3.8537,3.8447,3.8469,3.8392,3.822,3.724,3.6496,3.6203,3.4906,3.4068,3.3905,3.3635,3.3513,3.3513,3.3513,3.3271,3.2798,3.3271,3.3251,3.2778,3.2881,3.2881,0.0,0.0,0.0,0.0,2.5834,0.0,0.0,0.0,2.9035,3.0082,0.0,0.0,0.0,0.0,0.0,0.0,0.0,0.0,3.1669,3.2753,3.3818,3.4569,3.4954,3.5011,3.4722,3.4087,3.4136,3.5209,3.472,3.4667,3.5335,3.574,3.6289,3.7055,3.7378,3.7937,3.8749,3.869,3.869,3.8749,3.8749,3.871,3.8689,3.9094,3.9238,3.9157,3.954,3.9901,4.0166,4.0256,4.0507,4.0847,4.0891,4.0912,4.0881,4.0651,4.1263,4.2116,4.1419,4.1933,4.267,4.1085,3.9843,3.9054,3.9705,3.9648,3.9512,4.0293,3.9701,3.8918,3.9277,3.9043,3.8672,3.8607,3.9014,3.925,3.8719,3.86,3.8857,3.9725,3.9901,4.0269,4.1462,4.1808,4.1956,4.2078,4.1468,4.0948,4.0902,4.0087,3.937,3.8961,3.9021,3.8771,3.7945,3.7611,3.6879,3.5518,3.4922,3.4309,3.3597,3.3529,3.3513,3.3513,3.3513,3.3271,3.2798,3.3271,3.3446,3.3386,3.3405,3.3415,0.0,0.0,0.0,0.0,0.0,0.0,0.0,0.0,2.8747,0.0,0.0,0.0,0.0,0.0,0.0,0.0,3.0211,0.0,0.0,0.0,3.1836,3.3817,0.0,0.0,3.3553,3.3216,3.3197,3.3675,3.4216,3.4681,3.5026,3.5846,3.665,3.7408,3.7413,3.7788,3.8592,3.8592,3.8592,3.8592,3.8592,3.8592,3.8611,3.8756,3.8994,3.9212,3.9554,3.9932,4.031,4.0543,4.0757,4.09,4.09,4.09,4.0852,4.0527,4.1214,4.2218,4.1659,4.2274,4.3147,4.1944,4.0695,3.9757,4.0358,4.008,3.967,4.0281,3.9944,3.9375,3.9317,3.918,3.8964,3.8666,3.8778,3.8915,3.864,3.86,3.8778,3.943,3.9745,4.0136,4.0917,4.1461,4.1573,4.0975,4.0809,4.0551,3.9944,3.9578,3.937,3.9397,3.9038,3.8434,3.7517,3.6967,3.6403,3.5761,3.4863,3.4108,3.3513,3.3513,3.3513,3.3513,3.3513,3.3271,3.2798,3.3517,3.3718,3.3483,3.3205,3.3045,2.5019,0.0,0.0,0.0,0.0,0.0,0.0,0.0,0.0,0.0,0.0,0.0,0.0,0.0,2.8714,2.8904,0.0,2.9152,0.0,2.8847,0.0,0.0,0.0,0.0,0.0,3.2085,3.2123,3.2069,3.3018,3.3688,3.3892,3.4934,3.6038,3.7091,3.7005,3.7454,3.8592,3.8374,3.8374,3.8592,3.8592,3.8592,3.8592,3.8702,3.8956,3.9375,3.9716,4.0074,4.0489,4.0775,4.09,4.09,4.09,4.09,4.087,4.0514,4.1122,4.2049,4.1654,4.2192,4.2969,4.2346,4.1351,4.0415,4.0618,4.019,3.9714,4.0138,3.9917,3.9523,3.9337,3.9103,3.8848,3.8647,3.86,3.86,3.86,3.86,3.8778,3.9351,3.9611,3.9925,4.0546,4.1093,4.1189,4.0451,4.0338,4.0151,3.9641,3.9422,3.9333,3.9374,3.8859,3.8098,3.713,3.6427,3.5965,3.5857,3.4793,3.4074,3.3845,3.3779,3.3697,3.3661,3.3697,3.3492,3.2983,3.3865,3.407,3.3661,3.3337,3.3214,0.0,0.0,0.0,2.6287,0.0,0.0,0.0,0.0,2.7993,0.0,0.0,0.0,0.0,0.0,2.7134,2.6763,2.7573,0.0,0.0,0.0,0.0,0.0,0.0,0.0,0.0,3.0287,3.048,0.0,3.0224,3.0377,3.108,3.1913,3.3215,3.5134,3.5503,3.6603,3.8592,3.7825,3.7825,3.8592,3.8592,3.8592,3.8611,3.9012,3.9355,3.9714,4.0112,4.0507,4.0882,4.09,4.09,4.09,4.09,4.09,4.0847,4.0456,4.0851,4.155,4.1152,4.1349,4.1755,4.1714,4.1111,4.0323,3.9957,3.9551,3.9319,3.9779,3.9309,3.8743,3.9203,3.8583,3.7979,3.8472,3.86,3.86,3.86,3.86,3.8857,3.9706,3.958,3.9678,4.0891,4.0783,4.0801,4.1621,4.0699,4.0203,4.0937,4.034,3.9541,3.8636,3.8515,3.7986,3.672,3.629,3.5896,3.5446,3.4714,3.4429,3.4743,3.4433,3.4209,3.409,3.4209,3.4004,3.3492,3.4335,3.4539,3.409,3.4205,3.4429,0.0,0.0,2.7904,2.7966,0.0,0.0,0.0,0.0,0.0,0.0,0.0,0.0,0.0,2.7136,2.7014,2.6891,2.7031,2.6983,0.0,2.5989,2.5745,0.0,0.0,0.0,0.0,0.0,0.0,2.8921,2.9539,3.0221,3.096,3.1983,3.3073,3.4267,3.4885,3.565,3.6621,3.7141,3.7531,3.7806,3.8355,3.8592,3.8592,3.8738,3.9138,3.9714,3.984,4.0272,4.09,4.09,4.09,4.09,4.09,4.09,4.0865,4.0453,4.0848,4.1625,4.1789,4.1959,4.2041,4.1714,4.1435,4.105,4.0347,4.0036,3.9984,4.0164,4.0016,3.9766,3.9702,3.9428,3.9088,3.8702,3.887,3.9018,3.8686,3.86,3.8703,3.8991,3.8974,3.9089,3.974,3.9988,4.0373,4.1207,4.0513,4.0094,4.0618,3.9953,3.9354,3.9133,3.8531,3.7789,3.688,3.6371,3.5916,3.5433,3.5173,3.497,3.4804,3.4698,3.4617,3.4559,3.4617,3.4555,3.4356,3.4926,3.5109,3.4966,3.5335,3.5332,2.8097,2.847,0.0,2.9343,2.9593,0.0,2.9266,0.0,0.0,0.0,0.0,0.0,0.0,0.0,2.6797,2.6797,2.6537,2.6161,0.0,2.4853,2.4329,0.0,0.0,0.0,0.0,0.0,2.7274,2.7939,2.8451,2.9232,3.0361,3.1254,3.2193,3.325,3.4127,3.4976,3.581,3.6561,3.7151,3.7577,3.8104,3.8436,3.8592,3.8738,3.9138,3.9714,3.984,4.0292,4.09,4.09,4.09,4.09,4.09,4.09,4.0882,4.0614,4.0871,4.1415,4.1892,4.2058,4.1995,4.1705,4.1493,4.1247,4.0525,4.0202,4.0122,4.033,4.0415,4.0346,4.0085,4.0009,3.9717,3.858,3.8517,3.8587,3.824,3.8172,3.8253,3.8576,3.8652,3.8822,3.9318,3.9545,4.0007,4.0995,4.0305,3.9948,4.0649,3.9718,3.9014,3.9125,3.8462,3.7677,3.6913,3.6379,3.5976,3.5656,3.5656,3.5534,3.5271,3.5264,3.5162,3.495,3.5162,3.5162,3.4929,3.5413,3.5656,3.5656,3.5976,3.5892]}]]